     2              OBSERVATION DATA    GPS                 RINEX VERSION / TYPE
teqc 2000Jul20 Karen Wendt 20030425 19:01:26UTC             PGM / RUN BY / DATE
                                                            COMMENT
L2: 1 -> 1; 150 -> 5; 250 -> 9                              COMMENT
L2: 1 -> 1; 150 -> 5; 250 -> 9                              COMMENT
L2: 1 -> 1; 150 -> 5; 250 -> 9                              COMMENT
L2: 1 -> 1; 150 -> 5; 250 -> 9                              COMMENT
L2: 1 -> 1; 150 -> 5; 250 -> 9                              COMMENT
L2: 1 -> 1; 150 -> 5; 250 -> 9                              COMMENT
L2: 1 -> 1; 150 -> 5; 250 -> 9                              COMMENT
L2: 1 -> 1; 150 -> 5; 250 -> 9                              COMMENT
L2: 1 -> 1; 150 -> 5; 250 -> 9                              COMMENT
L2: 1 -> 1; 150 -> 5; 250 -> 9                              COMMENT
L2: 1 -> 1; 150 -> 5; 250 -> 9                              COMMENT
L2: 1 -> 1; 150 -> 5; 250 -> 9                              COMMENT
L2: 1 -> 1; 150 -> 5; 250 -> 9                              COMMENT
L2: 1 -> 1; 150 -> 5; 250 -> 9                              COMMENT
Original Marker Name: mont Montosa_1944_USC&GS              COMMENT
Campaign Name: USGS 2003                                    COMMENT
4-Character Station Name: MONT                              COMMENT
6-Character Antenna Code: DMRCHT                            COMMENT
Vertical Measurement Point: BCR                             COMMENT
Vertical Offset to Rinex Ref. Point: 0.0348                 COMMENT
Radial Measurement Point: ECF                               COMMENT
Radial Offset to Rinex Ref. Point: 0.1897                   COMMENT
Antenna Height from Field Measurement: 1.1810 m             COMMENT
Additional Antenna Identification Info.:                    COMMENT
Turborogue and Ashtech Choke Ring                           COMMENT
Original XYZ: -2639975.5546 -4444944.1029 3723960.4699      COMMENT
New XYZ position is based on association with SCEC monument COMMENT
E1F1N1C4+0011. Position of that monument is believed to be  COMMENT
valid to within 1 m horizontally; vertical accuracy         COMMENT
should be no worse than 3-times this value.                 COMMENT
                                                            COMMENT
Revised Rinex header created by UCSD GPS archive for        COMMENT
GSAC on 11-Jul-2003 (2003:192) 16:22:31 GMT                 COMMENT
For assistance contact dagnew@ucsd.edu                      COMMENT
or anderson@python.ucsd.edu                                 COMMENT
                                                            COMMENT
MONTOSA 1944                                                MARKER NAME
JMS US GEOLOGICAL SURVEY                                    OBSERVER / AGENCY
LP019992804 ASHTECH Z-XII3 CD00                             REC # / TYPE / VERS
CR14341 DORNE-MARGOL. TYPE T                                ANT # / TYPE
 -2639993.4439 -4444918.7120  3723951.4686                  APPROX POSITION XYZ
        1.1309        0.0000        0.0000                  ANTENNA: DELTA H/E/N
     1     1     0                                          WAVELENGTH FACT L1/2
     5    C1    L1    L2    P1    P2                        # / TYPES OF OBSERV
    30                                                      INTERVAL
  2003     4     9     0     1    0.000000                  TIME OF FIRST OBS
  2003     4     9    23    59   30.000000                  TIME OF LAST OBS
                                                            END OF HEADER
 03  4  9  0  1  0.0000000  0  8G18G31G 3G17G15G14G 9G23
  20957915.916     1686136.90649   1423832.31547  20957915.497    20957917.647
  23118631.903    -7292470.53049  -5386306.14345  23118631.554    23118636.090
  21699657.184   -12655437.78749  -9841773.85947  21699656.920    21699660.883
  22004381.915     6161326.37449   4822550.32646  22004381.294    22004385.942
  20271432.896    -4779174.32349  -3713432.10348  20271432.289    20271435.704
  21502165.042   -20753453.67149 -16114033.87147  21502164.641    21502167.784
  23687596.149    -7029754.24849  -5468436.67045  23687595.859    23687601.075
  21552446.449     4266841.25649   3328545.27047  21552445.922    21552449.427
 03  4  9  0  1 30.0000000  0  8G18G31G 3G17G15G14G 9G23
  20965804.858     1727593.54049   1456136.17147  20965804.446    20965806.599
  23106271.577    -7357424.12649  -5436919.30045  23106271.231    23106275.829
  21696387.372   -12672620.68349  -9855163.13447  21696387.104    21696391.069
  22016020.775     6222489.23849   4870209.65346  22016020.177    22016024.889
  20273766.250    -4766912.62549  -3703877.53548  20273765.634    20273769.068
  21486743.918   -20834492.07449 -16177180.63347  21486743.497    21486746.653
  23681100.344    -7063888.57049  -5495034.79545  23681100.216    23681105.367
  21561040.822     4312005.09249   3363737.85647  21561040.302    21561043.821
 03  4  9  0  2  0.0000000  0  8G18G31G 3G17G15G14G 9G23
  20973732.984     1769256.10349   1488600.48947  20973732.587    20973734.745
  23093999.757    -7421912.74049  -5487170.11746  23093999.367    23094004.046
  21693224.799   -12689240.06649  -9868113.31147  21693224.523    21693228.525
  22027718.375     6283960.44649   4918109.24446  22027717.758    22027722.519
  20276171.616    -4754272.39249  -3694028.01348  20276170.989    20276174.395
  21471399.900   -20915125.15049 -16240011.55547  21471399.510    21471402.654
  23674696.912    -7097539.90349  -5521256.55945  23674696.628    23674701.675
  21569658.240     4357289.96649   3399024.75447  21569657.727    21569661.236
 03  4  9  0  2 30.0000000  0  8G18G31G 3G17G15G14G 9G23
  20981700.147     1811123.85349   1521224.69847  20981699.751    20981701.942
  23081816.938    -7485933.75849  -5537056.59346  23081816.512    23081821.198
  21690169.723   -12705294.60249  -9880623.35247  21690169.448    21690173.426
  22039474.650     6345740.19849   4966249.25346  22039474.129    22039478.845
  20278649.240    -4741252.26849  -3683882.46948  20278648.634    20278652.055
  21456133.586   -20995350.11749 -16302524.46947  21456133.178    21456136.304
  23668385.575    -7130705.45149  -5547099.79645  23668385.318    23668390.449
  21578298.660     4402695.51849   3434405.68547  21578298.135    21578301.634
 03  4  9  0  3  0.0000000  0  8G18G31G 3G17G15G14G 9G23
  20989706.141     1853195.31449   1554007.64347  20989705.719    20989707.847
  23069723.440    -7549485.30849  -5586577.25045  23069723.003    23069727.638
  21687222.186   -12720784.35749  -9892693.29747  21687221.879    21687225.851
  22051289.760     6407828.31149   5014629.54046  22051289.180    22051293.891
  20281199.291    -4727851.85449  -3673440.59548  20281198.678    20281202.069
  21440945.296   -21075165.21549 -16364717.99947  21440944.853    21440947.944
  23662167.079    -7163383.35449  -5572563.05145  23662166.942    23662171.838
  21586961.742     4448220.27949   3469879.50947  21586961.238    21586964.693
 03  4  9  0  3 30.0000000  0  8G18G31G 3G17G15G14G 9G23
  20997750.846     1895470.28949   1586949.16747  20997750.410    20997752.511
  23057719.871    -7612564.61849  -5635729.93246  23057719.393    23057724.033
  21684382.254   -12735708.16949  -9904322.24647  21684381.935    21684385.983
  22063163.527     6470225.47449   5063250.65246  22063162.960    22063167.694
  20283822.025    -4714069.43649  -3662701.05648  20283821.403    20283824.795
  21425835.494   -21154567.44149 -16426589.82147  21425835.063    21425838.154
  23656042.149    -7195570.48349  -5597643.87545  23656041.923    23656046.809
  21595647.469     4493863.88849   3505445.94147  21595646.945    21595650.398
 03  4  9  0  4  0.0000000  0  8G18G31G 3G17G15G14G 9G23
  21005833.853     1937946.77849   1620047.71547  21005833.434    21005835.506
  23045806.342    -7675170.52749  -5684513.72846  23045805.930    23045810.495
  21681649.980   -12750066.44849  -9915510.53447  21681649.686    21681653.685
  22075095.995     6532930.98349   5112112.01846  22075095.439    22075100.196
  20286517.391    -4699905.31449  -3651664.09448  20286516.757    20286520.139
  21410804.473   -21233555.64749 -16488139.02847  21410804.089    21410807.140
  23650010.748    -7227265.67949  -5622341.40545  23650010.529    23650015.381
  21604355.416     4539624.22949   3541103.33147  21604354.876    21604358.302
 03  4  9  0  4 30.0000000  0  8G18G31G 3G17G15G14G 9G23
  21013954.982     1980623.78549   1653302.51647  21013954.582    21013956.690
  23033983.308    -7737300.83349  -5732926.90346  23033982.865    23033987.536
  21679025.404   -12763858.80149  -9926257.83047  21679025.103    21679029.076
  22087087.122     6595944.36949   5161213.29146  22087086.568    22087091.340
  20289285.528    -4685358.51549  -3640328.92848  20289284.910    20289288.312
  21395852.696   -21312127.81049 -16549364.03647  21395852.270    21395855.291
  23644073.129    -7258466.54049  -5646653.72645  23644073.008    23644078.029
  21613085.417     4585500.64549   3576851.18247  21613084.883    21613088.313
 03  4  9  0  5  0.0000000  0  8G18G31G 3G17G15G14G 9G23
  21022113.976     2023499.76549   1686712.36147  21022113.574    21022115.750
  23022251.099    -7798953.95449  -5780968.25946  23022250.618    23022255.355
  21676508.516   -12777085.20349  -9936564.12347  21676508.226    21676512.200
  22099136.876     6659265.62249   5210554.45946  22099136.276    22099141.011
  20292126.632    -4670428.54049  -3628695.19248  20292125.994    20292129.394
  21380980.414   -21390282.07949 -16610263.41947  21380979.986    21380982.964
  23638230.363    -7289171.40249  -5670579.53145  23638230.134    23638235.105
  21621837.274     4631491.73849   3612688.38447  21621836.734    21621840.173
 03  4  9  0  5 30.0000000  0  8G18G31G 3G17G15G14G 9G23
  21030310.782     2066574.50449   1720277.08447  21030310.379    21030312.596
  23010610.135    -7860126.99749  -5828635.52846  23010609.706    23010614.423
  21674099.533   -12789744.46149  -9946428.48747  21674099.223    21674103.233
  22111245.194     6722895.32549   5260135.99946  22111244.614    22111249.440
  20295040.982    -4655113.70249  -3616761.56248  20295040.336    20295043.738
  21366188.207   -21468015.51549 -16670834.87947  21366187.736    21366190.728
  23632482.184    -7319377.24649  -5694116.52445  23632482.043    23632487.142
  21630610.917     4677597.34949   3648614.82047  21630610.370    21630613.802
 03  4  9  0  6  0.0000000  0  8G18G31G 3G17G15G14G 9G23
  21038545.242     2109846.78749   1753995.73647  21038544.868    21038547.061
  22999061.024    -7920818.08149  -5875927.25246  22999060.572    22999065.285
  21671798.528   -12801836.33149  -9955850.73847  21671798.226    21671802.223
  22123412.249     6786833.33849   5309957.74846  22123411.660    22123416.508
  20298028.683    -4639413.34549  -3604527.52548  20298028.008    20298031.427
  21351476.428   -21545326.11249 -16731076.85747  21351476.021    21351478.975
  23626829.702    -7349081.93549  -5717262.97945  23626829.536    23626834.383
  21639406.089     4723816.31049   3684629.58647  21639405.551    21639408.981
 03  4  9  0  6 30.0000000  0  8G18G31G 3G17G15G14G 9G23
  21046816.963     2153314.66349   1787866.79747  21046816.552    21046818.727
  22987603.828    -7981026.03249  -5922842.49346  22987603.343    22987608.078
  21669605.437   -12813361.19149  -9964831.15947  21669605.125    21669609.108
  22135637.870     6851079.08849   5360019.30646  22135637.287    22135642.171
  20301089.728    -4623327.33649  -3591992.98048  20301089.068    20301092.501
  21336845.438   -21622212.65449 -16790988.39847  21336844.990    21336847.931
  23621272.449    -7378284.28549  -5740018.03645  23621272.443    23621277.402
  21648222.533     4770146.99749   3720731.40847  21648222.017    21648225.441
 03  4  9  0  7  0.0000000  0  8G18G31G 3G17G15G14G 9G23
  21055125.773     2196977.43349   1821889.71747  21055125.340    21055127.528
  22976239.049    -8040748.43149  -5969379.39446  22976238.531    22976243.294
  21667520.290   -12824318.57449  -9973369.39147  21667520.028    21667523.995
  22147922.074     6915632.87649   5410320.87446  22147921.503    22147926.377
  20304224.351    -4606854.69349  -3579157.16648  20304223.688    20304227.127
  21322295.461   -21698672.90149 -16850567.76747  21322295.023    21322297.978
  23615811.695    -7406981.80749  -5762379.69745  23615811.494    23615816.433
  21657060.136     4816588.71049   3756919.74547  21657059.590    21657063.039
 03  4  9  0  7 30.0000000  0  8G18G31G 3G17G15G14G 9G23
  21063471.323     2240833.47749   1856063.24547  21063470.912    21063473.097
  22964966.892    -8099983.83149  -6015536.82546  22964966.375    22964971.134
  21665543.140   -12834708.62549  -9981465.54347  21665542.857    21665546.849
  22160264.767     6980493.86849   5460861.83146  22160264.188    22160269.086
  20307432.673    -4589995.04549  -3566019.78948  20307432.027    20307435.431
  21307826.991   -21774705.01449 -16909813.52947  21307826.559    21307829.486
  23610446.859    -7435172.86849  -5784346.72445  23610446.798    23610451.797
  21665918.515     4863140.09749   3793193.54147  21665918.017    21665921.507
 03  4  9  0  8  0.0000000  0  8G18G31G 3G17G15G14G 9G23
  21071853.594     2284882.44649   1890387.11347  21071853.150    21071855.367
  22953787.863    -8158729.79049  -6061312.86546  22953787.354    22953792.020
  21663674.095   -12844530.71149  -9989119.12847  21663673.841    21663677.791
  22172665.970     7045662.48749   5511642.51746  22172665.383    22172670.381
  20310714.870    -4572747.09249  -3552579.83448  20310714.205    20310717.602
  21293440.428   -21850306.78549 -16968723.95547  21293440.018    21293442.901
  23605179.304    -7462854.62349  -5805916.88045  23605179.145    23605184.127
  21674797.699     4909800.53149   3829552.31147  21674797.200    21674800.731
 03  4  9  0  8 30.0000000  0  8G18G31G 3G17G15G14G 9G23
  21080272.436     2329123.93849   1924860.98847  21080272.011    21080274.243
  22942702.409    -8216983.85449  -6106705.61546  22942701.968    22942706.568
  21661913.203   -12853784.30049  -9996329.72847  21661912.910    21661916.886
  22185125.795     7111139.16949   5562663.22546  22185125.247    22185130.237
  20314071.207    -4555109.35649  -3538836.15348  20314070.532    20314073.955
  21279136.263   -21925475.43949 -17027296.88847  21279135.861    21279138.748
  23600008.848    -7490024.65649  -5827088.30245  23600008.764    23600013.752
  21683697.628     4956569.86449   3865995.93647  21683697.109    21683700.678
 03  4  9  0  9  0.0000000  0  8G18G31G 3G17G15G14G 9G23
  21088727.367     2373554.80249   1959482.42447  21088726.948    21088729.172
  22931710.738    -8274745.74849  -6151714.85446  22931710.297    22931714.852
  21660260.245   -12862470.52449 -10003098.22547  21660259.984    21660263.979
  22197643.976     7176922.33849   5613922.76046  22197643.461    22197648.371
  20317501.565    -4537082.79549  -3524789.49248  20317500.897    20317504.322
  21264914.606   -22000210.65449 -17085532.07847  21264914.186    21264917.060
  23594936.201    -7516682.69749  -5847860.74645  23594935.826    23594940.822
  21692617.759     5003445.34949   3902522.26647  21692617.224    21692620.782
 03  4  9  0  9 30.0000000  0  8G18G31G 3G17G15G14G 9G23
  21097218.466     2418175.69749   1994251.94247  21097218.040    21097220.222
  22920813.409    -8332011.99549  -6196337.87946  22920812.991    22920817.455
  21658715.641   -12870587.80349 -10009423.38747  21658715.363    21658719.355
  22210220.681     7243013.29449   5665422.12846  22210220.145    22210225.149
  20321006.315    -4518665.27949  -3510438.18448  20321005.641    20321009.078
  21250776.100   -22074509.00549 -17143426.84947  21250775.664    21250778.526
  23589961.136    -7542825.29849  -5868231.57045  23589960.950    23589966.111
  21701558.178     5050427.61849   3939131.81747  21701557.654    21701561.193
 03  4  9  0 10  0.0000000  0  8G18G31G 3G17G15G14G 9G23
  21105745.299     2462984.35349   2029167.76347  21105744.877    21105747.026
  22910010.379    -8388781.90049  -6240574.14346  22910009.901    22910014.414
  21657279.033   -12878137.07549 -10015305.95047  21657278.748    21657282.829
  22222855.769     7309410.69149   5717160.27846  22222855.197    22222860.235
  20324585.383    -4499857.25249  -3495782.59548  20324584.713    20324588.121
  21236720.835   -22148369.52349 -17200980.46447  21236720.414    21236723.243
  23585084.733    -7568451.48349  -5888199.97645  23585084.596    23585089.488
  21710518.562     5097514.61949   3975822.96947  21710518.011    21710521.536
 03  4  9  0 10 30.0000000  0  8G18G31G 3G17G15G14G 9G23
  21114307.876     2507980.99149   2064230.05847  21114307.449    21114309.602
  22899302.281    -8445052.68649  -6284421.48846  22899301.843    22899306.403
  21655950.757   -12885117.28449 -10020745.09347  21655950.477    21655954.543
  22235549.234     7376114.96149   5769137.54846  22235548.680    22235553.738
  20328239.050    -4480656.90449  -3480821.29848  20328238.403    20328241.825
  21222749.451   -22221789.47849 -17258190.77947  21222749.017    21222751.840
  23580306.956    -7593558.40449  -5907763.79245  23580306.813    23580311.730
  21719498.904     5144706.36849   4012595.74047  21719498.344    21719501.852
 03  4  9  0 11  0.0000000  0  8G18G31G 3G17G15G14G 9G23
  21122905.729     2553163.25649   2099437.01047  21122905.307    21122907.498
  22888689.429    -8500823.57449  -6327879.29946  22888688.980    22888693.560
  21654730.544   -12891529.58349 -10025741.69447  21654730.272    21654734.335
  22248300.950     7443125.26749   5821353.29646  22248300.382    22248305.420
  20331967.340    -4461064.78249  -3465554.71648  20331966.702    20331970.088
  21208862.073   -22294768.13149 -17315057.21147  21208861.621    21208864.449
  23575628.414    -7618145.39449  -5926922.42545  23575628.213    23575632.839
  21728498.769     5192000.78749   4049448.52047  21728498.204    21728501.709
 03  4  9  0 11 30.0000000  0  8G18G31G 3G17G15G14G 9G23
  21131538.921     2598530.88949   2134788.39547  21131538.500    21131540.674
  22878172.226    -8556091.85649  -6370945.46246  22878171.782    22878176.341
  21653618.607   -12897373.18449 -10030295.16847  21653618.332    21653622.356
  22261111.141     7510442.57649   5873808.26446  22261110.544    22261115.537
  20335770.471    -4441079.28349  -3449981.60848  20335769.839    20335773.238
  21195059.144   -22367302.75149 -17371577.65647  21195058.716    21195061.534
  23571048.993    -7642209.66749  -5945673.78745  23571048.773    23571053.642
  21737518.158     5239397.85749   4086381.28547  21737517.619    21737521.105
 03  4  9  0 12  0.0000000  0  8G18G31G 3G17G15G14G 9G23
  21140207.075     2644081.89649   2170282.66547  21140206.629    21140208.770
  22867750.749    -8610856.85549  -6413619.45046  22867750.286    22867754.901
  21652614.649   -12902649.02049 -10034406.22547  21652614.367    21652618.418
  22273979.332     7578065.34449   5926501.27746  22273978.785    22273983.781
  20339648.451    -4420700.66649  -3434102.17648  20339647.775    20339651.148
  21181340.944   -22439392.36049 -17427751.33247  21181340.473    21181343.282
  23566569.489    -7665750.22049  -5964017.03245  23566569.314    23566573.928
  21746556.731     5286895.54249   4123392.45147  21746556.182    21746559.647
 03  4  9  0 12 30.0000000  0  8G18G31G 3G17G15G14G 9G23
  21148910.087     2689816.54049   2205920.03247  21148909.655    21148911.793
  22857425.627    -8665115.55949  -6455898.93646  22857425.214    22857429.765
  21651718.962   -12907355.70249 -10038073.78447  21651718.707    21651722.756
  22286905.881     7645994.57049   5979433.07846  22286905.376    22286910.338
  20343601.567    -4399927.02049  -3417914.93147  20343600.888    20343604.270
  21167707.944   -22511033.90949 -17483575.87447  21167707.511    21167710.321
  23562190.072    -7688764.08749  -5981949.88945  23562189.825    23562194.422
  21755614.484     5334494.26449   4160482.35047  21755613.932    21755617.420
 03  4  9  0 13  0.0000000  0  8G18G31G 3G17G15G14G 9G23
  21157647.680     2735732.81849   2241698.93647  21157647.236    21157649.420
  22847197.139    -8718866.79349  -6497782.99546  22847196.725    22847201.185
  21650931.429   -12911494.26149 -10041298.65947  21650931.192    21650935.180
  22299890.612     7714229.23649   6032602.87446  22299890.057    22299895.072
  20347629.782    -4378758.49649  -3401419.99047  20347629.109    20347632.514
  21154160.482   -22582226.24549 -17539050.37947  21154160.030    21154162.845
  23557911.113    -7711250.12249  -5999471.44145  23557910.858    23557915.487
  21764691.129     5382192.45749   4197649.75047  21764690.588    21764694.094
 03  4  9  0 13 30.0000000  0  8G18G31G 3G17G15G14G 9G23
  21166419.773     2781830.30249   2277619.03847  21166419.343    21166421.529
  22837065.534    -8772108.72549  -6539270.17446  22837065.059    22837069.586
  21650252.097   -12915064.32249 -10044080.53547  21650251.823    21650255.874
  22312933.379     7782769.42149   6086010.73746  22312932.887    22312937.928
  20351733.372    -4357194.15949  -3384616.62347  20351732.689    20351736.082
  21140698.822   -22652967.31449 -17594173.25147  21140698.379    21140701.245
  23553732.984    -7733206.32749  -6016580.14645  23553732.661    23553737.362
  21773786.588     5429989.40949   4234894.11347  21773786.032    21773789.575
 03  4  9  0 14  0.0000000  0  8G18G31G 3G17G15G14G 9G23
  21175225.928     2828107.24149   2313678.97147  21175225.517    21175227.751
  22827031.122    -8824840.00749  -6580359.47246  22827030.646    22827035.075
  21649680.837   -12918066.35749 -10046419.80347  21649680.588    21649684.645
  22326034.295     7851614.46749   6139656.14846  22326033.748    22326038.785
  20355912.310    -4335233.85649  -3367504.71847  20355911.606    20355915.000
  21127323.312   -22723255.83049 -17648943.48847  21127322.889    21127325.747
  23549655.979    -7754631.20649  -6033274.82745  23549655.643    23549660.222
  21782900.577     5477883.81149   4272214.40647  21782900.022    21782903.565
 03  4  9  0 14 30.0000000  0  8G18G31G 3G17G15G14G 9G23
  21184066.217     2874563.33649   2349878.50747  21184065.806    21184068.070
  22817094.276    -8877058.42449  -6621049.11146  22817093.805    22817098.231
  21649217.737   -12920500.00249 -10048316.16947  21649217.469    21649221.518
  22339193.171     7920764.79049   6193539.44246  22339192.668    22339197.749
  20360166.715    -4312876.64249  -3350083.52047  20360166.040    20360169.451
  21114034.452   -22793089.47949 -17703359.27847  21114033.989    21114036.784
  23545680.376    -7775522.49149  -6049553.71045  23545679.955    23545684.741
  21792033.041     5525875.31549   4309610.36147  21792032.480    21792036.018
 03  4  9  0 15  0.0000000  0  8G18G31G 3G17G15G14G 9G23
  21192940.452     2921197.50649   2386216.80247  21192940.033    21192942.239
  22807255.306    -8928762.22649  -6661337.75846  22807254.866    22807259.286
  21648862.778   -12922365.50849 -10049769.83247  21648862.474    21648866.510
  22352410.149     7990219.98049   6247660.29846  22352409.629    22352414.711
  20364496.874    -4290121.68449  -3332352.40047  20364496.173    20364499.608
  21100832.427   -22862466.30249 -17757419.10247  21100831.978    21100834.755
  23541806.612    -7795878.51449  -6065415.54645  23541806.426    23541811.156
  21801183.840     5573963.19649   4347081.41547  21801183.315    21801186.887
 03  4  9  0 15 30.0000000  0  8G18G31G 3G17G15G14G 9G23
  21201848.325     2968008.13749   2422692.59847  21201847.866    21201850.028
  22797514.463    -8979950.58649  -6701224.75846  22797514.010    22797518.497
  21648615.713   -12923663.86449 -10050781.56147  21648615.435    21648619.448
  22365684.972     8059979.30649   6302018.13346  22365684.419    22365689.527
  20368902.674    -4266968.95649  -3314311.32947  20368901.993    20368905.440
  21087717.501   -22931385.36249 -17811122.23247  21087717.097    21087719.915
  23538035.185    -7815698.43049  -6080859.60045  23538034.839    23538039.559
  21810352.681     5622145.74949   4384626.23947  21810352.147    21810355.767
 03  4  9  0 16  0.0000000  0  8G18G31G 3G17G15G14G 9G23
  21210789.480     3014994.20049   2459305.09847  21210789.036    21210791.200
  22787872.106    -9030621.37049  -6740708.46746  22787871.665    22787876.111
  21648476.703   -12924394.54249 -10051350.93447  21648476.422    21648480.453
  22379017.763     8130043.03649   6356613.17946  22379017.148    22379022.298
  20373384.348    -4243417.64549  -3295959.67347  20373383.650    20373387.108
  21074690.135   -22999844.59449 -17864467.04747  21074689.696    21074692.501
  23534365.781    -7834980.12849  -6095884.28945  23534365.567    23534370.387
  21819539.471     5670422.57049   4422244.51847  21819538.947    21819542.610
 03  4  9  0 16 30.0000000  0  8G18G31G 3G17G15G14G 9G23
  21219763.723     3062154.45349   2496053.33347  21219763.304    21219765.507
  22778328.477    -9080773.46749  -6779787.99746  22778328.001    22778332.398
  21648445.529   -12924558.50249 -10051478.71947  21648445.243    21648449.238
  22392408.094     8200409.85349   6411444.39046  22392407.489    22392412.711
  20377941.888    -4219467.63949  -3277297.34247  20377941.205    20377944.677
  21061750.470   -23067842.75449 -17917452.58747  21061750.044    21061752.845
  23530799.364    -7853722.56149  -6110488.74145  23530799.077    23530803.685
  21828743.977     5718792.16649   4459935.09147  21828743.405    21828747.064
 03  4  9  0 17  0.0000000  0  8G18G31G 3G17G15G14G 9G23
  21228771.093     3109488.42249   2532936.92647  21228770.668    21228772.910
  22768883.921    -9130404.95149  -6818461.86246  22768883.460    22768887.832
  21648522.259   -12924155.45249 -10051164.67647  21648521.960    21648525.964
  22405856.209     8271079.75749   6466511.78346  22405855.589    22405860.816
  20382575.520    -4195117.87349  -3258323.51347  20382574.817    20382578.261
  21048898.986   -23135377.73449 -17970077.21447  21048898.541    21048901.347
  23527335.618    -7871923.51149  -6124671.28145  23527335.385    23527340.184
  21837966.001     5767254.00149   4497697.53947  21837965.431    21837968.989
 03  4  9  0 17 30.0000000  0  8G18G31G 3G17G15G14G 9G23
  21237811.387     3156995.37549   2569955.31147  21237810.979    21237813.198
  22759538.763    -9179513.90849  -6856728.55346  22759538.349    22759542.687
  21648706.857   -12923185.43649 -10050408.83947  21648706.552    21648710.543
  22419362.137     8342053.24749   6521815.72646  22419361.509    22419366.745
  20387285.380    -4170367.50049  -3239037.52147  20387284.686    20387288.167
  21036135.943   -23202447.75049 -18022339.52847  21036135.527    21036138.307
  23523975.749    -7889581.18149  -6138430.47045  23523975.391    23523980.081
  21847205.464     5815807.68249   4535531.55747  21847204.895    21847208.437
 03  4  9  0 18  0.0000000  0  8G18G31G 3G17G15G14G 9G23
  21246884.210     3204673.06349   2607106.73847  21246883.778    21246885.983
  22750293.100    -9228099.88449  -6894587.72146  22750292.710    22750297.071
  21648999.030   -12921650.10549 -10049212.49747  21648998.740    21649002.741
  22432925.464     8413328.70549   6577354.95946  22432924.809    22432930.112
  20392071.347    -4145217.07649  -3219439.80347  20392070.653    20392074.108
  21023461.567   -23269051.97649 -18074238.88847  21023461.131    21023463.894
  23520718.862    -7906695.10849  -6151765.98245  23520718.595    23520723.309
  21856462.017     5864451.32149   4573435.67347  21856461.487    21856465.060
 03  4  9  0 18 30.0000000  0  8G18G31G 3G17G15G14G 9G23
  21255989.653     3252522.29749   2644391.83647  21255989.205    21255991.415
  22741147.677    -9276159.56749  -6932036.80746  22741147.262    22741151.588
  21649399.126   -12919547.73149 -10047574.30247  21649398.843    21649402.872
  22446546.415     8484907.51349   6633130.58446  22446545.810    22446551.169
  20396933.859    -4119664.35549  -3199528.60947  20396933.187    20396936.652
  21010876.424   -23335187.13549 -18125772.74547  21010876.003    21010878.774
  23517566.255    -7923261.84849  -6164675.10445  23517566.098    23517570.699
  21865735.953     5913185.87549   4611410.63047  21865735.416    21865738.939
 03  4  9  0 19  0.0000000  0  8G18G31G 3G17G15G14G 9G23
  21265127.467     3300541.63749   2681809.48447  21265127.009    21265129.191
  22732102.538    -9323692.05149  -6969075.07746  22732102.063    22732106.406
  21649906.940   -12916879.11749 -10045494.87947  21649906.661    21649910.712
  22460225.048     8556788.40849   6689141.58946  22460224.400    22460229.692
  20401872.939    -4093709.40149  -3179303.98647  20401872.258    20401875.728
  20998380.749   -23400852.16949 -18176940.27047  20998380.324    20998383.072
  23514518.061    -7939280.59349  -6177157.22545  23514517.838    23514522.515
  21875026.919     5962009.89849   4649455.30047  21875026.384    21875029.883
 03  4  9  0 19 30.0000000  0  8G18G31G 3G17G15G14G 9G23
  21274297.138     3348728.85749   2719357.94747  21274296.701    21274298.918
  22723157.730    -9370696.92449  -7005702.21946  22723157.226    22723161.653
  21650522.234   -12913645.73749 -10042975.38747  21650521.975    21650525.968
  22473960.846     8628969.98849   6745386.89446  22473960.201    22473965.508
  20406888.449    -4067352.84749  -3158766.42847  20406887.756    20406891.227
  20985974.670   -23466046.43149 -18227740.95847  20985974.252    20985976.976
  23511574.144    -7954750.83549  -6189211.93545  23511573.936    23511578.505
  21884334.543     6010921.49049   4687568.20847  21884334.001    21884337.466
 03  4  9  0 20  0.0000000  0  8G18G31G 3G17G15G14G 9G23
  21283498.907     3397084.28849   2757037.49247  21283498.491    21283500.723
  22714313.840    -9417171.52649  -7041916.16646  22714313.378    22714317.784
  21651245.171   -12909846.87849 -10040015.24747  21651244.905    21651248.915
  22487754.028     8701453.36049   6801867.34946  22487753.372    22487758.667
  20411980.710    -4040592.99249  -3137914.60647  20411980.020    20411983.480
  20973658.662   -23530767.39849 -18278172.84347  20973658.249    20973660.963
  23508735.194    -7969670.03049  -6200837.25845  23508734.882    23508739.454
  21893658.835     6059920.88949   4725749.54447  21893658.286    21893661.778
 03  4  9  0 20 30.0000000  0  8G18G31G 3G17G15G14G 9G23
  21292732.386     3445606.55849   2794847.03847  21292731.958    21292734.214
  22705571.144    -9463114.90149  -7077716.17246  22705570.670    22705575.027
  21652075.524   -12905483.40649 -10036615.15747  21652075.260    21652079.313
  22501604.440     8774237.76949   6858582.36946  22501603.774    22501609.117
  20417149.740    -4013429.80449  -3116748.50147  20417149.002    20417152.454
  20961433.014   -23595013.75549 -18328234.90047  20961432.572    20961435.267
  23506001.099    -7984037.12249  -6212032.38645  23506000.924    23506005.482
  21902999.528     6109006.91449   4763998.37947  21902998.999    21903002.578
 03  4  9  0 21  0.0000000  0  8G18G31G 3G17G15G14G 9G23
  21301997.475     3494294.75749   2832785.87347  21301997.044    21301999.302
  22696929.809    -9508525.40649  -7113100.94946  22696929.333    22696933.703
  21653013.264   -12900555.77149 -10032775.46547  21653012.961    21653017.036
  22515512.140     8847322.82149   6915531.66146  22515511.455    22515516.844
  20422395.600    -3985862.61149  -3095267.58847  20422394.880    20422398.341
  20949297.880   -23658783.99049 -18377925.96147  20949297.463    20949300.169
  23503372.545    -7997850.77349  -6222796.24845  23503372.324    23503376.789
  21912356.673     6158178.99649   4802314.26547  21912356.151    21912359.719
 03  4  9  0 21 30.0000000  0  8G18G31G 3G17G15G14G 9G23
  21311293.780     3543147.03949   2870852.57147  21311293.319    21311295.562
  22688389.982    -9553402.32949  -7148069.95946  22688389.495    22688393.857
  21654058.139   -12895065.00449 -10028496.96047  21654057.838    21654061.913
  22529476.947     8920707.51649   6972714.45146  22529476.188    22529481.530
  20427718.340    -3957891.52149  -3073471.94947  20427717.645    20427721.074
  20937253.615   -23722077.07249 -18427245.20847  20937253.181    20937255.872
  23500849.306    -8011110.12649  -6233128.19645  23500849.101    23500853.565
  21921729.934     6207435.60949   4840696.02547  21921729.373    21921732.948
 03  4  9  0 22  0.0000000  0  8G18G31G 3G17G15G14G 9G23
  21320621.348     3592163.84249   2909047.45847  21320620.921    21320623.152
  22679952.135    -9597743.25849  -7182621.31346  22679951.646    22679956.000
  21655210.218   -12889010.71149 -10023779.35247  21655209.910    21655214.021
  22543498.579     8994392.49949   7030131.23046  22543497.991    22543503.415
  20433118.135    -3929515.30549  -3051360.62647  20433117.447    20433120.900
  20925300.515   -23784890.64149 -18476190.81947  20925300.116    20925302.795
  23498432.105    -8023812.67449  -6243026.26345  23498431.844    23498436.412
  21931119.290     6256776.95449   4879143.80147  21931118.732    21931122.316
 03  4  9  0 22 30.0000000  0  8G18G31G 3G17G15G14G 9G23
  21329979.956     3641343.75649   2947369.45747  21329979.542    21329981.834
  22671616.521    -9641547.13149  -7216754.16946  22671616.076    22671620.394
  21656469.348   -12882393.90549 -10018623.41347  21656469.078    21656473.170
  22557577.470     9068376.83649   7087781.26246  22557576.834    22557582.219
  20438595.084    -3900733.79649  -3028933.49347  20438594.386    20438597.861
  20913438.957   -23847223.62049 -18524761.92947  20913438.538    20913441.194
  23496120.845    -8035957.68049  -6252489.89645  23496120.545    23496125.284
  21940524.568     6306202.02149   4917656.82647  21940524.001    21940527.585
 03  4  9  0 23  0.0000000  0  8G18G31G 3G17G15G14G 9G23
  21339369.293     3690685.23049   2985817.34547  21339368.892    21339371.206
  22663383.301    -9684812.92149  -7250467.74946  22663382.857    22663387.148
  21657835.415   -12875215.30749 -10013029.71647  21657835.123    21657839.238
  22571713.013     9142659.49249   7145663.76946  22571712.449    22571717.861
  20444149.155    -3871546.82449  -3006190.41047  20444148.500    20444151.991
  20901669.118   -23909074.44549 -18572957.34547  20901668.686    20901671.356
  23493916.219    -8047543.97449  -6261518.14145  23493915.851    23493920.531
  21949945.609     6355709.76349   4956234.26747  21949945.049    21949948.631
 03  4  9  0 23 30.0000000  0  8G18G31G 3G17G15G14G 9G23
  21348789.384     3740187.64949   3024390.63947  21348788.941    21348791.223
  22655252.737    -9727539.30349  -7283761.01446  22655252.285    22655256.597
  21659308.256   -12867475.44249 -10006998.67747  21659307.993    21659312.107
  22585905.386     9217240.53149   7203778.77546  22585904.813    22585910.281
  20449780.548    -3841953.75149  -2983130.88847  20449779.882    20449783.375
  20889991.289   -23970441.83749 -18620776.05847  20889990.850    20889993.486
  23491817.817    -8058570.20849  -6270110.00145  23491817.494    23491822.201
  21959382.175     6405299.36749   4994875.49447  21959381.667    21959385.263
 03  4  9  0 24  0.0000000  0  8G18G31G 3G17G15G14G 9G23
  21358240.027     3789850.88449   3063089.24947  21358239.618    21358241.828
  22647225.121    -9769724.34949  -7316632.44546  22647224.682    22647229.010
  21660887.970   -12859174.31249 -10000530.28347  21660887.670    21660891.758
  22600154.563     9292120.24749   7262126.54146  22600154.029    22600159.514
  20455489.446    -3811953.58249  -2959754.14747  20455488.760    20455492.250
  20878405.807   -24031323.77349 -18668216.49847  20878405.361    20878407.993
  23489826.725    -8069034.40049  -6278263.88545  23489826.332    23489830.895
  21968834.310     6454970.80249   5033580.49547  21968833.783    21968837.447
 03  4  9  0 24 30.0000000  0  8G18G31G 3G17G15G14G 9G23
  21367720.807     3839672.68049   3101911.40747  21367720.385    21367722.595
  22639300.652    -9811367.72949  -7349081.80646  22639300.229    22639304.579
  21662574.087   -12850313.60849  -9993625.85747  21662573.802    21662577.903
  22614460.161     9367296.70349   7320705.52746  22614459.625    22614465.147
  20461275.650    -3781547.06649  -2936060.77447  20461274.924    20461278.420
  20866912.763   -24091719.99049 -18715278.44747  20866912.307    20866914.929
  23487942.291    -8078936.34849  -6285979.66945  23487941.986    23487946.682
  21978301.684     6504722.22749   5072347.82247  21978301.179    21978304.865
 03  4  9  0 25  0.0000000  0  8G18G31G 3G17G15G14G 9G23
  21377231.787     3889653.44449   3140857.44647  21377231.371    21377233.661
  22631479.742    -9852466.97949  -7381107.17346  22631479.303    22631483.610
  21664366.843   -12840892.79849  -9986284.98247  21664366.531    21664370.660
  22628822.636     9442771.10149   7379516.67746  22628822.032    22628827.516
  20467139.434    -3750732.64949  -2912049.55347  20467138.715    20467142.232
  20855512.690   -24151627.43849 -18761959.54247  20855512.239    20855514.881
  23486165.481    -8088273.55949  -6293255.38845  23486165.276    23486169.868
  21987784.497     6554554.16949   5111177.88547  21987783.954    21987787.557
 03  4  9  0 25 30.0000000  0  8G18G31G 3G17G15G14G 9G23
  21386772.667     3939791.29149   3179925.87947  21386772.246    21386774.592
  22623762.377    -9893022.05349  -7412708.51446  22623761.955    22623766.207
  21666265.813   -12830913.57949  -9978508.99347  21666265.536    21666269.624
  22643241.207     9518541.13649   7438558.19446  22643240.641    22643246.162
  20473080.668    -3719511.16549  -2887721.13847  20473079.972    20473083.470
  20844205.626   -24211046.33049 -18808259.94247  20844205.187    20844207.827
  23484496.170    -8097046.34849  -6300091.29545  23484495.932    23484500.443
  21997282.164     6604464.74549   5150069.22447  21997281.609    21997285.220
 03  4  9  0 26  0.0000000  0  8G18G31G 3G17G15G14G 9G23
  21396343.414     3990085.83249   3219116.41347  21396342.980    21396345.358
  22616148.884    -9933030.96749  -7443884.27346  22616148.456    22616152.728
  21668271.074   -12820375.98249  -9970297.90447  21668270.778    21668274.893
  22657716.276     9594607.56249   7497830.64146  22657715.670    22657721.167
  20479099.624    -3687881.58849  -2863074.73647  20479098.915    20479102.393
  20832991.950   -24269974.38649 -18854177.87647  20832991.500    20832994.132
  23482934.353    -8105252.72849  -6306485.84945  23482934.183    23482938.735
  22006794.725     6654453.96849   5189021.85347  22006794.233    22006797.853
 03  4  9  0 26 30.0000000  0  8G18G31G 3G17G15G14G 9G23
  21405943.838     4040536.32149   3258428.46747  21405943.414    21405945.760
  22608639.576    -9972492.44449  -7474633.46346  22608639.135    22608643.448
  21670382.489   -12809280.50649  -9961652.10147  21670382.217    21670386.342
  22672247.551     9670969.48949   7557333.35646  22672246.960    22672252.426
  20485196.277    -3655843.45549  -2838109.97647  20485195.574    20485199.071
  20821871.971   -24328410.12449 -18899712.18747  20821871.528    20821874.153
  23481480.706    -8112891.40149  -6312438.03745  23481480.599    23481485.105
  22016322.231     6704521.18949   5228035.25347  22016321.708    22016325.305
 03  4  9  0 27  0.0000000  0  8G18G31G 3G17G15G14G 9G23
  21415573.696     4091141.30749   3297860.90747  21415573.237    21415575.550
  22601234.669   -10011405.66149  -7504955.43746  22601234.221    22601238.491
  21672599.859   -12797628.37549  -9952572.54547  21672599.572    21672603.642
  22686834.820     9747626.46049   7617065.95346  22686834.321    22686839.839
  20491370.724    -3623396.68549  -2812826.79847  20491369.990    20491373.493
  20810845.806   -24386352.75749 -18944862.25547  20810845.372    20810848.007
  23480135.224    -8119961.66849  -6317947.31045  23480135.111    23480139.634
  22025864.362     6754665.21549   5267108.50747  22025863.812    22025867.427
 03  4  9  0 27 30.0000000  0  8G18G31G 3G17G15G14G 9G23
  21425232.801     4141900.20649   3337413.28247  21425232.340    21425234.686
  22593934.308   -10049769.37249  -7534849.22346  22593933.855    22593938.172
  21674923.059   -12785420.09349  -9943059.62547  21674922.753    21674926.825
  22701478.416     9824577.93949   7677028.04346  22701477.784    22701483.297
  20497622.984    -3590540.82549  -2787224.84647  20497622.291    20497625.783
  20799913.787   -24443800.99049 -18989627.07847  20799913.330    20799915.970
  23478898.193    -8126462.29349  -6323012.72545  23478898.066    23478902.661
  22035420.904     6804885.48349   5306241.16947  22035420.406    22035424.053
 03  4  9  0 28  0.0000000  0  8G18G31G 3G17G15G14G 9G23
  21434920.964     4192811.66749   3377084.53647  21434920.533    21434922.849
  22586738.639   -10087582.95249  -7564314.34346  22586738.157    22586742.444
  21677351.773   -12772657.06849  -9933114.43247  21677351.472    21677355.595
  22716177.742     9901823.00949   7737218.92446  22716177.108    22716182.556
  20503953.128    -3557275.85449  -2761304.10347  20503952.419    20503955.911
  20789075.974   -24500753.93049 -19034005.95847  20789075.523    20789078.149
  23477769.689    -8132392.76949  -6327633.86245  23477769.488    23477774.055
  22044991.879     6855180.94049   5345432.41447  22044991.330    22044994.960
 03  4  9  0 28 30.0000000  0  8G18G31G 3G17G15G14G 9G23
  21444638.156     4243875.86949   3416874.81047  21444637.716    21444640.034
  22579648.033   -10124844.21449  -7593349.08346  22579647.575    22579651.823
  21679886.096   -12759339.18249  -9922736.88647  21679885.807    21679889.936
  22730932.873     9979361.83049   7797638.68846  22730932.313    22730937.844
  20510361.283    -3523600.73649  -2735063.76847  20510360.583    20510364.103
  20778332.897   -24557209.01449 -19077996.89847  20778332.460    20778335.067
  23476749.891    -8137751.13149  -6331809.19845  23476749.644    23476754.326
  22054577.196     6905551.91649   5384682.51247  22054576.644    22054580.266
 03  4  9  0 29  0.0000000  0  8G18G31G 3G17G15G14G 9G23
  21454384.157     4295091.27049   3456782.89747  21454383.729    21454386.002
  22572662.619   -10161552.62449  -7621953.02346  22572662.221    22572666.403
  21682525.767   -12745467.83349  -9911928.06847  21682525.460    21682529.567
  22745743.707    10057193.23949   7858286.44846  22745743.159    22745748.793
  20516847.432    -3489515.72049  -2708504.03347  20516846.763    20516850.266
  20767684.721   -24613165.52349 -19121599.34547  20767684.271    20767686.851
  23475839.293    -8142536.84049  -6335538.29245  23475839.094    23475843.419
  22064176.597     6955997.22849   5423990.52947  22064176.069    22064179.739
 03  4  9  0 29 30.0000000  0  8G18G31G 3G17G15G14G 9G23
  21464158.749     4346457.09349   3496808.19647  21464158.322    21464160.587
  22565782.673   -10197707.16649  -7650125.38346  22565782.274    22565786.457
  21685270.535   -12731043.83949  -9900688.62147  21685270.220    21685274.399
  22760610.270    10135316.65549   7919161.74346  22760609.668    22760615.302
  20523411.701    -3455020.33549  -2681624.52747  20523411.038    20523414.543
  20757131.625   -24668622.48049 -19164812.52347  20757131.137    20757133.719
  23475037.839    -8146748.73449  -6338820.28345  23475037.600    23475041.983
  22073790.054     7006516.17049   5463355.92147  22073789.523    22073793.176
 03  4  9  0 30  0.0000000  0  8G18G31G 3G17G15G14G 9G23
  21473961.794     4397972.51649   3536950.06947  21473961.366    21473963.613
  22559008.293   -10233306.73949  -7677865.29946  22559007.884    22559012.082
  21688120.367   -12716067.91249  -9889019.09247  21688120.067    21688124.239
  22775532.404    10213731.95549   7980264.45646  22775531.707    22775537.281
  20530054.109    -3420114.22349  -2654424.97547  20530053.450    20530056.963
  20746673.758   -24723578.69649 -19207635.51247  20746673.307    20746675.857
  23474345.553    -8150385.87449  -6341654.40845  23474345.319    23474349.855
  22083417.418     7057108.14949   5502778.22447  22083416.879    22083420.533
 03  4  9  0 30 30.0000000  0  8G18G31G 3G17G15G14G 9G23
  21483793.300     4449637.21749   3577208.25747  21483792.870    21483795.114
  22552339.801   -10268349.72149  -7705171.50346  22552339.371    22552343.565
  21691075.166   -12700540.47049  -9876919.81847  21691074.901    21691079.044
  22790509.851    10292438.98249   8041594.52046  22790509.189    22790514.827
  20536774.917    -3384796.44949  -2626904.64947  20536774.237    20536777.737
  20736311.562   -24778032.25849 -19250066.82747  20736311.121    20736313.655
  23473763.007    -8153446.86749  -6344039.58545  23473762.872    23473767.344
  22093058.569     7107772.98049   5542257.29047  22093058.074    22093061.761
 03  4  9  0 31  0.0000000  0  8G18G31G 3G17G15G14G 9G23
  21493652.841     4501449.30749   3617581.29747  21493652.384    21493654.675
  22545777.225   -10302836.15149  -7732044.02946  22545776.804    22545781.014
  21694134.532   -12684463.71849  -9864392.49947  21694134.233    21694138.451
  22805542.422    10371436.01249   8103150.57346  22805541.842    22805547.605
  20543573.739    -3349068.30749  -2599064.55647  20543573.070    20543576.614
  20726045.033   -24831983.08249 -19292106.39447  20726044.598    20726047.111
  23473290.216    -8155931.96449  -6345976.00645  23473289.959    23473294.601
  22102713.387     7158508.93449   5581791.78147  22102712.860    22102716.538
 03  4  9  0 31 30.0000000  0  8G18G31G 3G17G15G14G 9G23
  21503540.530     4553409.81149   3658069.98247  21503540.099    21503542.436
  22539321.144   -10336763.24649  -7758480.72346  22539320.713    22539324.876
  21697298.589   -12667836.43949  -9851436.20547  21697298.313    21697302.494
  22820630.515    10450724.13449   8164933.42046  22820629.986    22820635.788
  20550451.098    -3312927.67149  -2570903.03647  20550450.419    20550453.951
  20715874.742   -24885428.21249 -19333751.91747  20715874.309    20715876.827
  23472927.332    -8157838.32849  -6347461.47345  23472927.201    23472931.633
  22112381.955     7209317.47749   5621382.83147  22112381.417    22112385.126
 03  4  9  0 32  0.0000000  0  8G18G31G 3G17G15G14G 9G23
  21513455.756     4605514.71849   3698671.18647  21513455.335    21513457.708
  22532971.040   -10370133.13849  -7784483.21846  22532970.609    22532974.798
  21700566.655   -12650662.92249  -9838054.27947  21700566.370    21700570.522
  22835773.325    10530299.62449   8226940.17346  22835772.733    22835778.720
  20557406.426    -3276377.23349  -2542422.19147  20557405.764    20557409.309
  20705800.339   -24938369.63049 -19375004.93847  20705799.893    20705802.382
  23472674.354    -8159168.17649  -6348497.69645  23472674.096    23472678.523
  22122063.656     7260194.86049   5661027.52247  22122063.084    22122066.771
 03  4  9  0 32 30.0000000  0  8G18G31G 3G17G15G14G 9G23
  21523398.788     4657765.61449   3739386.14447  21523398.371    21523400.734
  22526727.626   -10402942.59149  -7810049.01646  22526727.212    22526731.372
  21703938.863   -12632942.03549  -9824245.81947  21703938.556    21703942.780
  22850971.160    10610164.18849   8289172.20246  22850970.552    22850976.569
  20564440.195    -3239414.68149  -2513620.22047  20564439.505    20564443.051
  20695822.471   -24990803.76149 -19415862.66847  20695821.991    20695824.481
  23472531.620    -8159918.34449  -6349082.24045  23472531.435    23472535.881
  22131758.683     7311142.75149   5700727.15647  22131758.113    22131761.873
 03  4  9  0 33  0.0000000  0  8G18G31G 3G17G15G14G 9G23
  21533369.455     4710161.48349   3780214.07447  21533369.019    21533371.395
  22520591.060   -10435190.88749  -7835177.55246  22520590.600    22520594.696
  21707415.025   -12614674.77649  -9810011.61747  21707414.739    21707418.923
  22866223.861    10690317.28849   8351629.06245  22866223.263    22866229.244
  20571552.355    -3202039.91449  -2484497.04147  20571551.691    20571555.237
  20685941.187   -25042729.81949 -19456324.49747  20685940.751    20685943.226
  23472499.135    -8160088.58849  -6349214.87145  23472498.927    23472503.333
  22141466.981     7362160.19749   5740480.98047  22141466.442    22141470.223
 03  4  9  0 33 30.0000000  0  8G18G31G 3G17G15G14G 9G23
  21543367.389     4762700.95149   3821153.89947  21543366.967    21543369.380
  22514561.174   -10466877.74049  -7859868.58846  22514560.724    22514564.855
  21710994.829   -12595862.85449  -9795353.00147  21710994.571    21710998.744
  22881531.260    10770757.50449   8414309.64245  22881530.685    22881536.625
  20578743.007    -3164253.09449  -2455052.78547  20578742.313    20578745.842
  20676156.716   -25094147.44049 -19496390.13947  20676156.285    20676158.758
  23472577.223    -8159678.45649  -6348895.27545  23472577.044    23472581.553
  22151188.392     7413246.10849   5780288.16647  22151187.822    22151191.580
 03  4  9  0 34  0.0000000  0  8G18G31G 3G17G15G14G 9G23
  21553392.650     4815383.83049   3862205.46747  21553392.217    21553394.577
  22508638.434   -10498001.45449  -7884120.82246  22508637.994    22508642.194
  21714678.277   -12576506.37249  -9780270.05647  21714678.021    21714682.193
  22896893.219    10851484.87849   8477213.98345  22896892.651    22896898.590
  20586012.182    -3126053.37949  -2425286.79947  20586011.501    20586015.025
  20666469.414   -25145054.54049 -19536057.97947  20666468.981    20666471.450
  23472766.005    -8158686.36649  -6348122.22245  23472765.842    23472770.359
  22160922.761     7464400.63349   5820148.81047  22160922.173    22160925.950
 03  4  9  0 34 30.0000000  0  8G18G31G 3G17G15G14G 9G23
  21563444.942     4868208.68249   3903367.66347  21563444.498    21563446.779
  22502822.983   -10528562.09849  -7907934.31246  22502822.530    22502826.710
  21718464.906   -12556607.52349  -9764764.48647  21718464.650    21718468.797
  22912309.463    10932497.70349   8540340.74445  22912308.879    22912314.912
  20593359.776    -3087441.49049  -2395199.63047  20593359.104    20593362.638
  20656879.242   -25195451.18549 -19575328.06147  20656878.781    20656881.238
  23473065.585    -8157112.62049  -6346895.88945  23473065.325    23473069.755
  22170669.916     7515622.51249   5860061.93847  22170669.395    22170673.127
 03  4  9  0 35  0.0000000  0  8G18G31G 3G17G15G14G 9G23
  21573524.159     4921175.16949   3944640.23647  21573523.690    21573525.997
  22497114.908   -10558558.28649  -7931307.96546  22497114.462    22497118.614
  21722354.740   -12536166.58049  -9748836.50647  21722354.447    21722358.657
  22927780.127    11013795.93649   8603689.90845  22927779.508    22927785.537
  20600785.969    -3048416.79049  -2364790.79447  20600785.293    20600788.806
  20647386.474   -25245335.73449 -19614199.10347  20647386.042    20647388.485
  23473475.849    -8154956.04149  -6345215.44145  23473475.701    23473480.206
  22180429.988     7566911.63249   5900027.46647  22180429.428    22180433.179
 03  4  9  0 35 30.0000000  0  8G18G31G 3G17G15G14G 9G23
  21583630.236     4974283.05049   3986022.98347  21583629.784    21583632.150
  22491514.354   -10587988.79449  -7954240.81546  22491513.939    22491518.112
  21726347.528   -12515184.43149  -9732486.80747  21726347.243    21726351.406
  22943304.879    11095379.17849   8667261.16245  22943304.271    22943310.327
  20608290.843    -3008978.51649  -2334059.68847  20608290.158    20608293.678
  20637991.444   -25294706.66849 -19652669.92947  20637991.006    20637993.456
  23473997.475    -8152215.51349  -6343079.93345  23473997.280    23474001.638
  22190202.746     7618267.78549   5940045.22447  22190202.193    22190205.965
 03  4  9  0 36  0.0000000  0  8G18G31G 3G17G15G14G 9G23
  21593762.886     5027530.48249   4027514.47047  21593762.449    21593764.830
  22486021.544   -10616853.75349  -7976732.98446  22486021.141    22486025.278
  21730442.931   -12493663.18749  -9715717.03247  21730442.608    21730446.764
  22958883.798    11177246.13249   8731053.47845  22958883.166    22958889.262
  20615874.265    -2969127.57949  -2303007.03247  20615873.558    20615877.091
  20628694.171   -25343564.00349 -19690740.54547  20628693.752    20628696.178
  23474629.910    -8148891.26749  -6340489.63245  23474629.762    23474634.198
  22199987.922     7669689.45049   5980114.03147  22199987.388    22199991.155
 03  4  9  0 36 30.0000000  0  8G18G31G 3G17G15G14G 9G23
  21603922.058     5080917.04449   4069114.36247  21603921.636    21603923.973
  22480636.560   -10645152.13249  -7998783.66146  22480636.110    22480640.274
  21734640.667   -12471603.75449  -9698527.88647  21734640.362    21734644.607
  22974516.471    11259396.15449   8795066.41045  22974515.873    22974521.998
  20623536.222    -2928863.51549  -2271632.45747  20623535.533    20623539.103
  20619494.894   -25391906.50449 -19728409.99347  20619494.431    20619496.863
  23475373.846    -8144982.34549  -6337443.68645  23475373.608    23475377.952
  22209785.612     7721176.41449   6020233.71947  22209785.056    22209788.826
 03  4  9  0 37  0.0000000  0  8G18G31G 3G17G15G14G 9G23
  21614107.696     5134442.91649   4110822.81847  21614107.255    21614109.607
  22475359.642   -10672882.25949  -8020391.53246  22475359.202    22475363.426
  21738940.852   -12449006.32949  -9680919.53647  21738940.554    21738944.757
  22990203.113    11341829.66549   8859300.22545  22990202.574    22990208.653
  20631277.058    -2888185.46049  -2239935.29147  20631276.335    20631279.901
  20610393.923   -25439732.36149 -19765676.86347  20610393.472    20610395.903
  23476229.109    -8140487.26049  -6333941.05445  23476229.004    23476233.409
  22219595.738     7772729.10449   6060404.63547  22219595.224    22219599.077
 03  4  9  0 37 30.0000000  0  8G18G31G 3G17G15G14G 9G23
  21624319.347     5188105.74749   4152637.99847  21624318.936    21624321.270
  22470190.728   -10700045.18249  -8041557.44246  22470190.311    22470194.498
  21743342.822   -12425873.92949  -9662894.31647  21743342.497    21743346.714
  23005943.330    11424543.93249   8923752.77845  23005942.757    23005948.850
  20639096.282    -2847095.06649  -2207916.82147  20639095.621    20639099.176
  20601391.127   -25487042.17249 -19802541.61647  20601390.684    20601393.081
  23477196.084    -8135407.29449  -6329982.61445  23477195.796    23477200.130
  22229417.970     7824345.27249   6100625.00447  22229417.454    22229421.320
 03  4  9  0 38  0.0000000  0  8G18G31G 3G17G15G14G 9G23
  21634557.172     5241905.46849   4194559.83847  21634556.738    21634559.014
  22465130.024   -10726639.21449  -8062280.05346  22465129.624    22465133.762
  21747846.459   -12402207.08849  -9644452.65047  21747846.149    21747850.403
  23021736.779    11507538.98649   8988424.14045  23021736.223    23021742.382
  20646994.234    -2805591.25049  -2175576.20647  20646993.534    20646997.095
  20592486.890   -25533834.36449 -19839003.03247  20592486.428    20592488.820
  23478274.229    -8129740.78449  -6325567.16645  23478274.100    23478278.352
  22239252.460     7876025.46849   6140895.26547  22239251.907    22239255.715
 03  4  9  0 38 30.0000000  0  8G18G31G 3G17G15G14G 9G23
  21644820.935     5295842.03249   4236588.31647  21644820.513    21644822.819
  22460177.837   -10752663.17749  -8082558.46146  22460177.423    22460181.568
  21752451.766   -12378006.14349  -9625594.80547  21752451.491    21752455.678
  23037583.830    11590815.15949   9053314.53745  23037583.253    23037589.352
  20654970.978    -2763673.14549  -2142912.76547  20654970.292    20654973.868
  20583681.387   -25580107.36149 -19875059.88447  20583680.944    20583683.308
  23479464.429    -8123486.69749  -6320693.85245  23479464.274    23479468.499
  22249098.961     7927769.65249   6181215.39647  22249098.430    22249102.339
 03  4  9  0 39  0.0000000  0  8G18G31G 3G17G15G14G 9G23
  21655110.488     5349913.75749   4278722.10947  21655110.059    21655112.331
  22455334.067   -10778117.44949  -8102392.94446  22455333.646    22455337.741
  21757158.174   -12353273.83249  -9606322.89647  21757157.903    21757162.172
  23053484.132    11674370.93249   9118422.82245  23053483.436    23053489.538
  20663026.408    -2721341.74849  -2109927.27947  20663025.705    20663029.287
  20574974.707   -25625861.21049 -19910712.20048  20574974.262    20574976.607
  23480766.201    -8116645.63149  -6315363.18345  23480766.054    23480770.331
  22258957.460     7979576.19949   6221584.10847  22258956.965    22258960.819
 03  4  9  0 39 30.0000000  0  8G18G31G 3G17G15G14G 9G23
  21665425.949     5404121.04549   4320961.53647  21665425.438    21665427.642
  22450598.905   -10803000.50549  -8121782.31946  22450598.484    22450602.630
  21761965.704   -12328010.34049  -9586637.09747  21761965.425    21761969.638
  23069437.396    11758205.47349   9183748.33845  23069436.721    23069442.878
  20671160.626    -2678596.17649  -2076619.05947  20671159.944    20671163.546
  20566367.096   -25671094.35149 -19945958.77348  20566366.641    20566368.982
  23482179.885    -8109216.39649  -6309574.14845  23482179.696    23482184.081
  22268827.930     8031445.61749   6262001.82347  22268827.392    22268831.249
 03  4  9  0 40  0.0000000  0  8G18G31G 3G17G15G14G 9G23
  21675766.668     5458462.26449   4363305.33347  21675766.199    21675768.453
  22445972.570   -10827312.35849  -8140726.62046  22445972.147    22445976.202
  21766873.929   -12302217.37649  -9566538.71947  21766873.667    21766877.882
  23085443.644    11842318.41849   9249290.76445  23085442.970    23085449.159
  20679373.483    -2635437.15449  -2042988.67347  20679372.808    20679376.408
  20557858.581   -25715806.77349 -19980799.59048  20557858.141    20557860.472
  23483705.511    -8101199.02849  -6303326.86745  23483705.340    23483709.799
  22278710.064     8083376.78149   6302467.65047  22278709.570    22278713.424
 03  4  9  0 40 30.0000000  0  8G18G31G 3G17G15G14G 9G23
  21686132.804     5512936.78649   4405752.99147  21686132.373    21686134.617
  22441455.108   -10851052.43649  -8159225.37746  22441454.625    22441458.673
  21771882.692   -12275896.53749  -9546029.01147  21771882.429    21771886.627
  23101502.512    11926708.38949   9315049.07945  23101501.963    23101508.162
  20687665.129    -2591864.43449  -2009035.91947  20687664.458    20687668.079
  20549449.398   -25759997.39149 -20015233.80548  20549448.943    20549451.262
  23485343.251    -8092593.23749  -6296621.06545  23485343.005    23485347.410
  22288604.035     8135369.26649   6342981.25747  22288603.471    22288607.254
 03  4  9  0 41  0.0000000  0  8G18G31G 3G17G15G14G 9G23
  21696524.214     5567543.92649   4448303.99347  21696523.759    21696525.998
  22437046.419   -10874219.87749  -8177277.91446  22437045.976    22437050.044
  21776991.677   -12249048.76049  -9525108.69347  21776991.393    21776995.653
  23117614.090    12011375.07749   9381022.99145  23117613.509    23117619.796
  20696035.556    -2547877.66649  -1974760.53947  20696034.863    20696038.488
  20541139.664   -25803665.04649 -20049260.52348  20541139.225    20541141.544
  23487092.918    -8083397.99149  -6289455.94845  23487092.774    23487097.220
  22298509.517     8187422.82949   6383542.45347  22298508.944    22298512.714
 03  4  9  0 41 30.0000000  0  8G18G31G 3G17G15G14G 9G23
  21706940.734     5622282.90449   4490957.72647  21706940.288    21706942.521
  22432746.769   -10896814.70849  -8194884.27246  22432746.362    22432750.407
  21782200.505   -12221676.22949  -9503779.48647  21782200.256    21782204.476
  23133778.170    12096317.26149   9447211.55045  23133777.569    23133783.850
  20704484.642    -2503477.60149  -1940163.10847  20704483.954    20704487.560
  20532929.553   -25846809.33649 -20082879.41848  20532929.109    20532931.434
  23488954.864    -8073613.86949  -6281831.95445  23488954.705    23488959.126
  22308426.381     8239536.58849   6424150.55746  22308425.828    22308429.637
 03  4  9  0 42  0.0000000  0  8G18G31G 3G17G15G14G 9G23
  21717382.304     5677153.49549   4533714.01747  21717381.849    21717384.099
  22428556.270   -10918836.06949  -8212043.77046  22428555.844    22428559.890
  21787509.048   -12193779.77149  -9482042.01747  21787508.771    21787513.037
  23149994.512    12181534.22549   9513614.26845  23149993.933    23150000.211
  20713012.448    -2458663.71349  -1905243.21347  20713011.770    20713015.401
  20524819.140   -25889429.64749 -20116090.02148  20524818.714    20524821.015
  23490928.907    -8063240.01649  -6273748.43045  23490928.699    23490933.237
  22318354.737     8291710.41249   6464805.47846  22318354.205    22318358.059
 03  4  9  0 42 30.0000000  0  8G18G31G 3G17G15G14G 9G23
  21727848.733     5732154.88049   4576572.21947  21727848.264    21727850.568
  22424475.017   -10940283.18349  -8228755.79946  22424474.529    22424478.620
  21792917.043   -12165360.66249  -9459897.29647  21792916.777    21792921.019
  23166262.987    12267025.19249   9580230.49345  23166262.390    23166268.737
  20721618.994    -2413435.94949  -1870000.81547  20721618.312    20721621.983
  20516808.738   -25931524.75149 -20148891.36548  20516808.289    20516810.559
  23493015.204    -8052275.84149  -6265204.93445  23493015.113    23493019.695
  22328294.557     8343944.12749   6505507.04646  22328293.984    22328297.864
 03  4  9  0 43  0.0000000  0  8G18G31G 3G17G15G14G 9G23
  21738339.870     5787286.36549   4619531.80047  21738339.421    21738341.740
  22420503.041   -10961155.91849  -8245020.27046  22420502.579    22420506.634
  21798424.138   -12136420.78449  -9437346.77247  21798423.855    21798428.149
  23182583.449    12352789.02049   9647059.31645  23182582.852    23182589.095
  20730304.244    -2367794.86649  -1834436.35447  20730303.560    20730307.242
  20508898.302   -25973094.33749 -20181283.21548  20508897.835    20508900.093
  23495214.112    -8040721.61749  -6256201.62045  23495213.852    23495218.430
  22338245.599     8396236.96049   6546254.69046  22338245.025    22338248.827
 03  4  9  0 43 30.0000000  0  8G18G31G 3G17G15G14G 9G23
  21748855.614     5842546.91049   4662591.94847  21748855.181    21748857.498
  22416640.473   -10981454.11149  -8260837.04646  22416640.003    22416644.004
  21804030.072   -12106961.55549  -9414391.56947  21804029.804    21804034.096
  23198955.741    12438825.20949   9714100.36945  23198955.187    23198961.395
  20739068.106    -2321740.62949  -1798549.96447  20739067.412    20739071.087
  20501087.957   -26014137.83749 -20213265.13548  20501087.512    20501089.766
  23497524.921    -8028577.09749  -6246738.37145  23497524.812    23497529.336
  22348207.701     8448588.29249   6587047.92346  22348207.158    22348210.965
 03  4  9  0 44  0.0000000  0  8G18G31G 3G17G15G14G 9G23
  21759395.861     5897936.17149   4705752.39547  21759395.424    21759397.765
  22412887.250   -11001177.28449  -8276205.74246  22412886.762    22412890.821
  21809734.650   -12076984.32049  -9391032.72247  21809734.355    21809738.580
  23215379.557    12525132.77749   9781352.87445  23215379.037    23215385.318
  20747910.602    -2275273.10449  -1762341.52347  20747909.911    20747913.593
  20493377.877   -26054654.49849 -20244836.52548  20493377.430    20493379.664
  23499948.597    -8015842.07049  -6236814.94745  23499948.354    23499952.630
  22358180.914     8500997.78749   6627886.46946  22358180.404    22358184.215
 03  4  9  0 44 30.0000000  0  8G18G31G 3G17G15G14G 9G23
  21769960.397     5953453.42549   4749012.56947  21769959.990    21769962.355
  22409243.603   -11020324.79549  -8291125.88346  22409243.124    22409247.225
  21815537.393   -12046490.51849  -9367271.34847  21815537.108    21815541.373
  23231854.936    12611710.80349   9848816.12645  23231854.402    23231860.690
  20756831.790    -2228392.02649  -1725810.84047  20756831.065    20756834.727
  20485768.166   -26094643.67049 -20275996.88948  20485767.708    20485769.944
  23502484.267    -8002516.14349  -6226431.14445  23502484.039    23502488.611
  22368165.186     8553465.18549   6668770.13546  22368164.672    22368168.443
 03  4  9  0 45  0.0000000  0  8G18G31G 3G17G15G14G 9G23
  21780549.257     6009098.07049   4792372.01547  21780548.840    21780551.153
  22405709.524   -11038896.51249  -8305597.35846  22405709.080    22405713.094
  21821438.185   -12015481.95249  -9343108.86147  21821437.873    21821442.189
  23248381.597    12698558.71549   9916489.70245  23248381.100    23248387.456
  20765831.663    -2181097.58149  -1688958.04647  20765830.954    20765834.608
  20478258.948   -26134104.68249 -20306745.69748  20478258.507    20478260.708
  23505132.762    -7988599.28449  -6215586.80345  23505132.485    23505136.695
  22378160.372     8605990.07849   6709698.59946  22378159.852    22378163.603
 03  4  9  0 45 30.0000000  0  8G18G31G 3G17G15G14G 9G23
  21791162.244     6064869.21949   4835830.03547  21791161.773    21791164.106
  22402285.024   -11056892.10249  -8319619.89546  22402284.611    22402288.638
  21827436.660   -11983959.98249  -9318546.32247  21827436.340    21827440.663
  23264959.462    12785675.45849   9984372.75645  23264958.924    23264965.286
  20774910.148    -2133389.97249  -1651783.31347  20774909.449    20774913.095
  20470850.373   -26173037.11549 -20337082.62648  20470849.896    20470852.101
  23507893.492    -7974091.49349  -6204282.04445  23507893.164    23507897.548
  22388166.336     8658571.95749   6750671.48246  22388165.865    22388169.651
 03  4  9  0 46  0.0000000  0  8G18G31G 3G17G15G14G 9G23
  21801799.109     6120766.19649   4879386.10347  21801798.629    21801800.980
  22398970.257   -11074311.41349  -8333193.39446  22398969.826    22398973.838
  21833532.443   -11951926.48449  -9293585.19447  21833532.140    21833536.444
  23281588.312    12873059.77949  10052464.31845  23281587.772    23281594.127
  20784067.115    -2085269.60049  -1614286.94647  20784066.430    20784070.094
  20463542.378   -26211440.51949 -20367007.33248  20463541.925    20463544.151
  23510766.804    -7958992.97549  -6192516.97345  23510766.565    23510770.855
  22398183.136     8711210.22349   6791688.28846  22398182.631    22398186.414
 03  4  9  0 46 30.0000000  0  8G18G31G 3G17G15G14G 9G23
  21812459.926     6176788.92949   4923040.15947  21812459.439    21812461.759
  22395765.249   -11091153.82649  -8346317.35546  22395764.824    22395768.857
  21839725.347   -11919382.79249  -9268226.51147  21839725.043    21839729.315
  23298268.076    12960711.39849  10120764.14145  23298267.465    23298273.787
  20793302.787    -2036736.05249  -1576468.62047  20793302.096    20793305.765
  20456335.310   -26249313.99449 -20396519.10348  20456334.824    20456337.044
  23513752.412    -7943303.16449  -6180291.13045  23513752.019    23513756.344
  22408210.667     8763904.97149   6832749.10546  22408210.139    22408213.896
 03  4  9  0 47  0.0000000  0  8G18G31G 3G17G15G14G 9G23
  21823144.376     6232936.11449   4966791.19047  21823143.912    21823146.256
  22392670.037   -11107419.46849  -8358991.88746  22392669.617    22392673.602
  21846014.929   -11886330.93249  -9242471.85247  21846014.639    21846018.929
  23314998.323    13048628.73549  10189271.02345  23314997.703    23315004.068
  20802616.931    -1987789.93649  -1538328.81647  20802616.239    20802619.913
  20449229.050   -26286657.47449 -20425617.89348  20449228.584    20449230.783
  23516850.448    -7927022.30649  -6167604.75145  23516850.193    23516854.462
  22418248.703     8816655.55749   6873853.43846  22418248.190    22418252.021
 03  4  9  0 47 30.0000000  0  8G18G31G 3G17G15G14G 9G23
  21833852.478     6289207.56649   5010639.06047  21833852.019    21833854.378
  22389684.670   -11123107.84449  -8371216.59546  22389684.194    22389688.234
  21852401.017   -11852772.23049  -9216322.24947  21852400.708    21852404.997
  23331779.049    13136811.13649  10257984.45545  23331778.336    23331784.659
  20812009.616    -1938431.29449  -1499867.56047  20812008.926    20812012.608
  20442223.869   -26323469.94849 -20454302.91148  20442223.393    20442225.572
  23520061.218    -7910150.31849  -6154457.74745  23520060.920    23520065.124
  22428297.483     8869461.70449   6915001.06646  22428296.943    22428300.708
 03  4  9  0 48  0.0000000  0  8G18G31G 3G17G15G14G 9G23
  21844584.150     6345602.54849   5054583.18847  21844583.679    21844586.008
  22386809.147   -11138218.69549  -8382991.29546  22386808.695    22386812.724
  21858883.204   -11818708.20049  -9189778.88647  21858882.880    21858887.210
  23348610.019    13225257.81849  10326903.81745  23348609.314    23348615.680
  20821480.727    -1888660.27949  -1461084.97547  20821480.009    20821483.720
  20435319.703   -26359751.31849 -20482574.08048  20435319.243    20435321.426
  23523384.176    -7892686.93849  -6140849.92045  23523384.010    23523388.306
  22438356.810     8922323.09649   6956191.74246  22438356.219    22438359.899
 03  4  9  0 48 30.0000000  0  8G18G31G 3G17G15G14G 9G23
  21855339.273     6402121.04349   5098623.55947  21855338.784    21855341.141
  22384043.552   -11152751.89149  -8394315.86746  22384043.100    22384047.148
  21865461.240   -11784140.45949  -9162843.02047  21865460.926    21865465.257
  23365490.980    13313968.23549  10396028.71645  23365490.418    23365496.857
  20831030.331    -1838476.85749  -1421981.03047  20831029.618    20831033.350
  20428516.813   -26395500.66049 -20510430.68548  20428516.352    20428518.528
  23526819.938    -7874632.38449  -6126781.44145  23526819.642    23526824.138
  22448426.366     8975239.36449   6997425.19246  22448425.798    22448429.550
 03  4  9  0 49  0.0000000  0  8G18G31G 3G17G15G14G 9G23
  21866117.733     6458762.23149   5142759.53147  21866117.262    21866119.650
  22381387.885   -11166707.13549  -8405190.08646  22381387.468    22381391.589
  21872134.838   -11749070.89349  -9135516.12747  21872134.526    21872138.836
  23382422.028    13402940.95149  10465357.98545  23382421.396    23382427.987
  20840658.387    -1787881.18949  -1382555.86647  20840657.673    20840661.401
  20421815.247   -26430717.47849 -20537872.33848  20421814.802    20421816.936
  23530367.989    -7855986.38149  -6112252.09945  23530367.895    23530372.369
  22458506.299     9028210.37949   7038701.28946  22458505.790    22458509.590
 03  4  9  0 49 30.0000000  0  8G18G31G 3G17G15G14G 9G23
  21876919.357     6515525.09949   5186990.32447  21876918.904    21876921.289
  22378842.324   -11180084.44649  -8415613.96846  22378841.890    22378845.994
  21878903.531   -11713501.35149  -9107799.63747  21878903.210    21878907.529
  23399402.827    13492174.97049  10534890.85545  23399402.121    23399408.873
  20850364.806    -1736873.60049  -1342809.71347  20850364.103    20850367.845
  20415215.084   -26465401.58949 -20564898.89448  20415214.611    20415216.774
  23534028.761    -7836749.29449  -6097262.17145  23534028.571    23534033.160
  22468596.732     9081235.68349   7080019.68746  22468596.165    22468599.995
 03  4  9  0 50  0.0000000  0  8G18G31G 3G17G15G14G 9G23
  21887744.097     6572409.45649   5231315.78747  21887743.651    21887746.045
  22376406.720   -11192883.53749  -8425587.28646  22376406.276    22376410.409
  21885767.051   -11677433.36849  -9079694.75347  21885766.729    21885771.095
  23416433.011    13581669.43249  10604626.67545  23416432.330    23416439.222
  20860149.613    -1685454.32549  -1302742.77347  20860148.899    20860152.649
  20408716.371   -26499552.53049 -20591509.99248  20408715.900    20408718.038
  23537801.815    -7816921.21149  -6081811.72645  23537801.729    23537806.310
  22478697.385     9134315.03849   7121380.20546  22478696.812    22478700.690
 03  4  9  0 50 30.0000000  0  8G18G31G 3G17G15G14G 9G23
  21898591.830     6629414.59349   5275735.35947  21898591.381    21898593.770
  22374081.164   -11205104.52149  -8435110.13846  22374080.726    22374084.856
  21892725.106   -11640868.70249  -9051202.84047  21892724.772    21892729.113
  23433512.968    13671423.67749  10674564.89245  23433512.257    23433519.143
  20870012.778    -1633623.43049  -1262355.08447  20870012.031    20870015.756
  20402319.171   -26533169.91649 -20617705.32948  20402318.709    20402320.825
  23541687.410    -7796502.37949  -6065900.95545  23541687.279    23541691.813
  22488808.181     9187448.16149   7162782.63246  22488807.682    22488811.548
 03  4  9  0 51  0.0000000  0  8G18G31G 3G17G15G14G 9G23
  21909462.322     6686539.04849   5320247.90047  21909461.845    21909464.161
  22371865.490   -11216748.14749  -8444183.09646  22371865.020    22371869.217
  21899777.137   -11603810.08149  -9022326.03047  21899776.830    21899781.177
  23450641.771    13761435.70049  10744703.98545  23450641.059    23450647.923
  20879953.934    -1581382.21049  -1221647.66747  20879953.219    20879956.950
  20396023.372   -26566254.45449 -20643485.46848  20396022.937    20396025.019
  23545685.425    -7775493.61449  -6049530.48645  23545685.241    23545689.628
  22498929.205     9240633.66249   7204225.85846  22498928.636    22498932.438
 03  4  9  0 51 30.0000000  0  8G18G31G 3G17G15G14G 9G23
  21920355.533     6743783.02249   5364853.57647  21920355.074    21920357.396
  22369759.735   -11227813.75949  -8452805.66246  22369759.258    22369763.457
  21906923.022   -11566258.56149  -8993065.14447  21906922.683    21906927.080
  23467819.400    13851705.33449  10815043.83545  23467818.817    23467825.718
  20889973.291    -1528730.29249  -1180620.22847  20889972.563    20889976.289
  20389829.221   -26598805.00449 -20668849.50648  20389828.765    20389830.823
  23549795.535    -7753894.62149  -6032700.13345  23549795.376    23549799.783
  22509060.080     9293871.99149   7245710.25446  22509059.532    22509063.388
 03  4  9  0 52  0.0000000  0  8G18G31G 3G17G15G14G 9G23
  21931271.434     6801146.33249   5409552.24647  21931270.967    21931273.272
  22367764.085   -11238301.05449  -8460977.58146  22367763.639    22367767.800
  21914162.389   -11528215.58749  -8963421.30247  21914162.051    21914166.476
  23485046.025    13942231.25049  10885583.35945  23485045.372    23485052.348
  20900070.799    -1475667.57949  -1139272.68447  20900070.083    20900073.821
  20383736.811   -26630820.83249 -20693796.87548  20383736.343    20383738.402
  23554018.133    -7731705.37649  -6015409.79745  23554017.923    23554022.183
  22519201.017     9347163.14849   7287235.81246  22519200.512    22519204.328
 03  4  9  0 52 30.0000000  0  8G18G31G 3G17G15G14G 9G23
  21942209.848     6858628.09249   5454343.20947  21942209.335    21942211.671
  22365878.467   -11248210.28749  -8468699.06446  22365878.025    22365882.197
  21921494.848   -11489683.38049  -8933396.24347  21921494.515    21921498.931
  23502321.427    14033012.42849  10956321.81245  23502320.572    23502327.594
  20910246.371    -1422194.59549  -1097605.45547  20910245.668    20910249.408
  20377746.129   -26662301.91949 -20718327.56748  20377745.690    20377747.735
  23558352.864    -7708926.23449  -5997659.83145  23558352.602    23558357.084
  22529352.046     9400506.56149   7328802.07946  22529351.494    22529355.315
 03  4  9  0 53  0.0000000  0  8G18G31G 3G17G15G14G 9G23
  21953170.800     6916228.08549   5499226.29447  21953170.296    21953172.581
  22364102.850   -11257541.26649  -8475969.95846  22364102.404    22364106.555
  21928920.082   -11450663.50149  -8902991.17947  21928919.775    21928924.185
  23519644.887    14124047.93149  11027258.42045  23519644.158    23519651.190
  20920500.045    -1368311.40249  -1055618.58647  20920499.340    20920503.070
  20371857.333   -26693247.86649 -20742441.26348  20371856.867    20371858.917
  23562799.700    -7685557.31849  -5979450.30245  23562799.413    23562804.100
  22539512.914     9453902.36149   7370409.19146  22539512.370    22539516.238
 03  4  9  0 53 30.0000000  0  8G18G31G 3G17G15G14G 9G23
  21964153.977     6973945.00849   5544200.50347  21964153.483    21964155.795
  22362437.078   -11266294.70449  -8482790.82046  22362436.607    22362440.813
  21936437.694   -11411158.41249  -8872208.02947  21936437.360    21936441.736
  23537016.570    14215336.42249  11098392.16945  23537015.812    23537022.922
  20930831.575    -1314018.93049  -1013312.78847  20930830.867    20930834.632
  20366070.274   -26723658.91549 -20766138.15948  20366069.793    20366071.842
  23567358.654    -7661599.57449  -5960781.95245  23567358.347    23567362.995
  22549683.556     9507349.68249   7412056.43246  22549683.009    22549686.923
 03  4  9  0 54  0.0000000  0  8G18G31G 3G17G15G14G 9G23
  21975159.366     7031778.87449   5589265.83247  21975158.884    21975161.219
  22360881.387   -11274470.20749  -8489161.35246  22360880.904    22360885.091
  21944047.313   -11371169.60949  -8841047.95147  21944046.982    21944051.387
  23554436.424    14306877.29249  11169722.57245  23554435.663    23554442.669
  20941241.012    -1259317.02549   -970687.96047  20941240.301    20941244.067
  20360385.132   -26753534.55149 -20789417.84548  20360384.659    20360386.659
  23572029.668    -7637052.79849  -5941654.61545  23572029.424    23572034.121
  22559864.152     9560848.58549   7453743.86046  22559863.611    22559867.403
 03  4  9  0 54 30.0000000  0  8G18G31G 3G17G15G14G 9G23
  21986187.197     7089730.44949   5634422.88247  21986186.710    21986189.051
  22359435.801   -11282066.65149  -8495080.66046  22359435.325    22359439.545
  21951748.961   -11330697.59249  -8809511.35147  21951748.640    21951753.047
  23571904.188    14398670.76649  11241249.81945  23571903.571    23571910.576
  20951728.543    -1204204.81249   -927743.40847  20951727.831    20951731.626
  20354802.174   -26782873.26749 -20812279.15348  20354801.684    20354803.642
  23576813.163    -7611916.21649  -5922067.67345  23576812.922    23576817.447
  22570054.661     9614400.11349   7495472.31246  22570054.117    22570057.982
 03  4  9  0 55  0.0000000  0  8G18G31G 3G17G15G14G 9G23
  21997236.655     7147795.63249   5679668.46347  21997236.180    21997238.547
  22358099.703   -11289087.84749  -8500551.72046  22358099.220    22358103.424
  21959541.349   -11289748.36149  -8777602.89347  21959541.016    21959545.432
  23589419.056    14490711.98149  11312970.10345  23589418.386    23589425.638
  20962293.441    -1148686.09049   -884482.10147  20962292.707    20962296.497
  20349320.671   -26811678.48149 -20834724.74948  20349320.199    20349322.160
  23581707.945    -7586193.84649  -5902024.27245  23581707.714    23581712.264
  22580254.561     9668000.31449   7537238.68146  22580254.015    22580257.725
 03  4  9  0 55 30.0000000  0  8G18G31G 3G17G15G14G 9G23
  22008308.243     7205976.79749   5725004.42047  22008307.736    22008310.128
  22356873.667   -11295530.90049  -8505572.28846  22356873.188    22356877.382
  21967424.827   -11248320.45549  -8745321.44347  21967424.479    21967428.927
  23606981.626    14583003.03449  11384885.08345  23606980.907    23606988.149
  20972936.090    -1092758.46849   -840902.16847  20972935.399    20972939.218
  20343941.363   -26839946.79549 -20856751.97948  20343940.913    20343942.874
  23586714.673    -7559883.02449  -5881522.35145  23586714.567    23586719.081
  22590464.129     9721652.08849   7579045.23946  22590463.588    22590467.293
 03  4  9  0 56  0.0000000  0  8G18G31G 3G17G15G14G 9G23
  22019401.470     7264272.40549   5770429.54247  22019401.006    22019403.367
  22355757.318   -11301397.21949  -8510143.44346  22355756.862    22355761.089
  21975398.809   -11206417.05549  -8712669.47347  21975398.488    21975402.964
  23624591.355    14675541.71749  11456993.02945  23624590.625    23624597.796
  20983656.369    -1036423.33249   -797004.69447  20983655.667    20983659.468
  20338663.998   -26867679.42249 -20878361.79348  20338663.526    20338665.503
  23591833.198    -7532985.36649  -5860563.15545  23591832.894    23591837.459
  22600683.322     9775354.00949   7620890.87246  22600682.753    22600686.480
 03  4  9  0 56 30.0000000  0  8G18G31G 3G17G15G14G 9G23
  22030516.539     7322682.43549   5815943.82147  22030516.081    22030518.432
  22354750.781   -11306686.47949  -8514264.95146  22354750.338    22354754.551
  21983463.016   -11164039.69649  -8679648.19947  21983462.675    21983467.145
  23642247.877    14768327.52749  11529293.52845  23642247.242    23642254.490
  20994454.165     -979680.60449   -752789.62247  20994453.482    20994457.311
  20333488.650   -26894875.82349 -20899553.77448  20333488.189    20333490.176
  23597063.290    -7505500.93049  -5839146.72345  23597063.023    23597067.568
  22610912.138     9829106.35049   7662775.78546  22610911.542    22610915.236
 03  4  9  0 57  0.0000000  0  8G18G31G 3G17G15G14G 9G23
  22041653.273     7381206.54349   5861547.00747  22041652.851    22041655.230
  22353854.130   -11311398.77749  -8517936.87846  22353853.679    22353857.782
  21991616.988   -11121190.17549  -8646258.99047  21991616.651    21991621.176
  23659951.290    14861359.37749  11601785.74645  23659950.677    23659958.023
  21005329.515     -922530.41249   -708257.03747  21005328.843    21005332.670
  20328415.443   -26921535.66249 -20920327.64748  20328414.981    20328416.942
  23602405.045    -7477430.02249  -5817273.29945  23602404.835    23602409.300
  22621150.361     9882909.18849   7704700.06246  22621149.804    22621153.565
 03  4  9  0 57 30.0000000  0  8G18G31G 3G17G15G14G 9G23
  22052811.465     7439843.46849   5907238.09147  22052811.047    22052813.467
  22353066.958   -11315535.20849  -8521160.07246  22353066.504    22353070.682
  21999860.363   -11077871.26749  -8612504.03647  21999860.024    21999864.494
  23677701.274    14954635.54649  11674468.34345  23677700.699    23677707.961
  21016282.144     -864974.08549   -663407.98747  21016281.461    21016285.293
  20323444.211   -26947659.57249 -20940683.92148  20323443.733    20323445.691
  23607858.048    -7448773.90749  -5794943.85745  23607857.890    23607862.377
  22631398.169     9936761.30749   7746662.72746  22631397.579    22631401.328
 03  4  9  0 58  0.0000000  0  8G18G31G 3G17G15G14G 9G23
  22063991.390     7498594.09749   5953017.78147  22063990.957    22063993.366
  22352389.640   -11319094.92749  -8523933.87546  22352389.183    22352393.340
  22008192.822   -11034084.02249  -8578384.14347  22008192.456    22008196.960
  23695497.591    15048155.92049  11747341.23545  23695497.119    23695504.395
  21027312.159     -807011.01849   -618241.98947  21027311.465    21027315.320
  20318575.177   -26973246.52249 -20960621.77548  20318574.694    20318576.647
  23613422.532    -7419532.16849  -5772158.11045  23613422.268    23613426.836
  22641655.441     9990663.67849   7788664.56646  22641654.859    22641658.602
 03  4  9  0 58 30.0000000  0  8G18G31G 3G17G15G14G 9G23
  22075192.606     7557456.74149   5998884.75947  22075192.163    22075194.611
  22351821.697   -11322079.35149  -8526259.40946  22351821.256    22351825.407
  22016613.808   -10989831.57749  -8543901.76147  22016613.456    22016617.967
  23713340.240    15141918.00849  11820402.46645  23713339.576    23713346.996
  21038419.317     -748642.62949   -572760.15647  21038418.636    21038422.492
  20313808.129   -26998297.27749 -20980141.82348  20313807.664    20313809.625
  23619098.363    -7389706.40649  -5748917.26145  23619098.078    23619102.495
  22651921.964    10044614.98449   7830704.51646  22651921.441    22651925.212
 03  4  9  0 59  0.0000000  0  8G18G31G 3G17G15G14G 9G23
  22086415.030     7616430.87649   6044838.60547  22086414.583    22086417.055
  22351363.210   -11324488.89849  -8528136.98246  22351362.743    22351366.878
  22025122.819   -10945116.06349  -8509058.54047  22025122.475    22025127.036
  23731228.744    15235921.02349  11893651.42345  23731227.963    23731235.254
  21049603.563     -689869.30849   -526962.79847  21049602.853    21049606.713
  20309143.107   -27022812.08249 -20999244.24848  20309142.623    20309144.575
  23624885.161    -7359297.05849  -5725221.68245  23624884.733    23624889.246
  22662197.931    10098615.08249   7872782.48646  22662197.367    22662201.128
 03  4  9  0 59 30.0000000  0  8G18G31G 3G17G15G14G 9G23
  22097658.787     7675516.88349   6090879.62246  22097658.309    22097660.741
  22351014.190   -11326322.91349  -8529566.08446  22351013.725    22351017.920
  22033719.906   -10899938.42349  -8473855.23247  22033719.583    22033724.120
  23749162.654    15330164.43349  11967087.69245  23749161.897    23749169.277
  21060864.932     -630690.75949   -480849.68447  21060864.217    21060868.067
  20304580.238   -27046789.93749 -21017928.26748  20304579.772    20304581.722
  23630782.778    -7328303.98149  -5701071.25245  23630782.500    23630787.003
  22672483.247    10152664.79549   7914899.11546  22672482.697    22672486.468
 03  4  9  1  0  0.0000000  0  8G18G31G 3G17G15G14G 9G23
  22108923.577     7734713.74349   6137007.03446  22108923.101    22108925.584
  22350774.589   -11327582.29449  -8530547.42846  22350774.111    22350778.277
  22042404.427   -10854301.14949  -8438293.76347  22042404.081    22042408.655
  23767142.062    15424646.83249  12040710.20445  23767141.350    23767148.851
  21072203.161     -571107.91749   -434421.52847  21072202.458    21072206.334
  20300119.475   -27070231.29449 -21036194.23648  20300119.020    20300120.958
  23636791.344    -7296728.23049  -5676466.77945  23636791.190    23636795.569
  22682777.828    10206763.51449   7957053.94246  22682777.310    22682781.166
 03  4  9  1  0 30.0000000  0  8G18G31G 3G17G15G14G 9G23
  22120209.385     7794021.19649   6183220.60446  22120208.888    22120211.456
  22350644.090   -11328267.62249  -8531081.45146  22350643.632    22350647.885
  22051175.918   -10808206.62449  -8402376.00247  22051175.589    22051180.210
  23785166.809    15519367.24349  12114518.17145  23785166.112    23785173.680
  21083618.307     -511121.23149   -387678.69147  21083617.565    21083621.479
  20295760.808   -27093136.32149 -21054042.29048  20295760.347    20295762.252
  23642910.690    -7264570.56849  -5651408.87845  23642910.564    23642914.990
  22693081.803    10260910.88849   7999246.67646  22693081.207    22693085.137
 03  4  9  1  1  0.0000000  0  8G18G31G 3G17G15G14G 9G23
  22131516.305     7853439.23249   6229520.35446  22131515.800    22131518.333
  22350622.933   -11328378.94749  -8531168.20446  22350622.476    22350626.688
  22060034.144   -10761656.68449  -8366103.37047  22060033.826    22060038.439
  23803236.714    15614324.31849  12188510.54145  23803236.012    23803243.559
  21095110.271     -450730.84949   -340621.29047  21095109.490    21095113.396
  20291504.254   -27115504.72949 -21071472.19348  20291503.764    20291505.669
  23649140.805    -7231831.21549  -5625897.72045  23649140.631    23649145.107
  22703394.969    10315107.01549   8041477.40146  22703394.417    22703398.404
 03  4  9  1  1 30.0000000  0  8G18G31G 3G17G15G14G 9G23
  22142843.851     7912966.05549   6275904.86846  22142843.378    22142845.874
  22350710.682   -11327917.88149  -8530808.93846  22350710.215    22350714.440
  22068978.340   -10714654.62249  -8329478.43847  22068978.034    22068982.676
  23821351.281    15709516.10249  12262685.80745  23821350.492    23821358.063
  21106678.672     -389938.58049   -293250.72647  21106677.921    21106681.825
  20287349.526   -27137337.61549 -21088484.81248  20287349.080    20287350.968
  23655481.281    -7198512.34649  -5599934.99045  23655481.200    23655485.499
  22713717.251    10369350.64449   8083745.12846  22713716.711    22713720.654
 03  4  9  1  2  0.0000000  0  8G18G31G 3G17G15G14G 9G23
  22154192.379     7972602.51449   6322374.81946  22154191.892    22154194.364
  22350907.423   -11326883.87149  -8530003.22346  22350906.939    22350911.153
  22078008.486   -10667201.36349  -8292501.91947  22078008.143    22078012.809
  23839510.341    15804942.47649  12337043.90645  23839509.661    23839517.268
  21118323.623     -328743.93849   -245566.61747  21118322.859    21118326.767
  20283296.934   -27158634.16349 -21105079.49648  20283296.456    20283298.341
  23661932.223    -7164613.33749  -5573520.18845  23661931.956    23661936.300
  22724048.763    10423642.73449   8126050.63946  22724048.179    22724052.150
 03  4  9  1  2 30.0000000  0  8G18G31G 3G17G15G14G 9G23
  22165561.488     8032347.69149   6368929.47446  22165561.051    22165563.446
  22351213.119   -11325277.66549  -8528751.64346  22351212.627    22351216.858
  22087123.934   -10619299.43149  -8255175.79047  22087123.612    22087128.294
  23857713.620    15900601.72249  12411583.42745  23857713.039    23857720.784
  21130045.057     -267147.72749   -197569.60747  21130044.275    21130048.189
  20279346.273   -27179394.80549 -21121256.60148  20279345.811    20279347.699
  23668493.046    -7130135.28049  -5546654.18545  23668492.943    23668497.312
  22734389.289    10477982.95949   8168393.63846  22734388.710    22734392.758
 03  4  9  1  3  0.0000000  0  8G18G31G 3G17G15G14G 9G23
  22176951.364     8092201.38149   6415568.69146  22176950.876    22176953.231
  22351627.550   -11323099.90149  -8527054.69046  22351627.011    22351631.284
  22096324.387   -10570950.96949  -8217501.71547  22096324.053    22096328.744
  23875961.316    15996493.19849  12486303.92645  23875960.836    23875968.420
  21141842.751     -205150.56049   -149260.15847  21141841.997    21141845.898
  20275497.639   -27199619.69749 -21137016.23348  20275497.165    20275499.025
  23675164.157    -7095079.02649  -5519337.64645  23675163.866    23675168.299
  22744739.035    10532371.14549   8210774.00846  22744738.495    22744742.520
 03  4  9  1  3 30.0000000  0  8G18G31G 3G17G15G14G 9G23
  22188361.572     8152162.54349   6462291.65246  22188361.107    22188363.485
  22352150.584   -11320351.46449  -8524913.06546  22352150.069    22352154.314
  22105609.260   -10522158.68549  -8179481.80247  22105608.945    22105613.690
  23894252.684    16092614.52149  12561203.51245  23894252.173    23894259.881
  21153716.551     -142753.20449   -100638.88347  21153715.817    21153719.753
  20271750.835   -27219309.16649 -21152358.65748  20271750.369    20271752.235
  23681944.846    -7059445.92749  -5491571.61245  23681944.690    23681949.059
  22755097.896    10586806.73849   8253191.32746  22755097.274    22755101.297
 03  4  9  1  4  0.0000000  0  8G18G31G 3G17G15G14G 9G23
  22199792.420     8212231.80149   6509098.84746  22199791.954    22199794.325
  22352782.170   -11317032.34749  -8522326.75046  22352781.651    22352785.894
  22114978.353   -10472924.05449  -8141117.20047  22114978.029    22114982.758
  23912587.816    16188965.80549  12636282.29845  23912587.360    23912595.044
  21165666.578      -79955.65649    -51705.76547  21165665.844    21165669.768
  20268105.958   -27238462.96549 -21167283.66848  20268105.513    20268107.356
  23688835.486    -7023236.27249  -5463356.30845  23688835.222    23688839.481
  22765465.695    10641290.31749   8295646.04346  22765465.156    22765469.205
 03  4  9  1  4 30.0000000  0  8G18G31G 3G17G15G14G 9G23
  22211243.624     8272408.27649   6555989.56846  22211243.146    22211245.520
  22353522.192   -11313143.52249  -8519296.51646  22353521.719    22353525.961
  22124431.049   -10423249.95749  -8102410.16147  22124430.715    22124435.491
  23930966.208    16285545.01749  12711538.67745  23930965.818    23930973.543
  21177692.516      -16758.92349     -2461.59547  21177691.809    21177695.722
  20264562.955   -27257081.61549 -21181791.68748  20264562.485    20264564.318
  23695835.343    -6986451.15749  -5434692.61045  23695835.144    23695839.466
  22775842.731    10695821.45549   8338137.81046  22775842.132    22775846.197
 03  4  9  1  5  0.0000000  0  8G18G31G 3G17G15G14G 9G23
  22222715.255     8332691.92249   6602963.82046  22222714.775    22222717.161
  22354370.640   -11308685.14349  -8515822.47146  22354370.142    22354374.396
  22133967.128   -10373137.84949  -8063361.81547  22133966.803    22133971.545
  23949388.097    16382351.47049  12786972.14345  23949387.474    23949395.203
  21189794.453       46837.01449     47093.64247  21189793.741    21189797.669
  20261121.817   -27275164.99749 -21195882.61048  20261121.357    20261123.154
  23702944.771    -6949091.00849  -5405580.83945  23702944.502    23702949.004
  22786228.794    10750400.42449   8380666.84046  22786228.193    22786232.250
 03  4  9  1  5 30.0000000  0  8G18G31G 3G17G15G14G 9G23
  22234206.813     8393080.46249   6650019.79746  22234206.329    22234208.744
  22355326.951   -11303659.97249  -8511906.76746  22355326.409    22355330.625
  22143585.752   -10322591.93849  -8023975.44147  22143585.375    22143590.166
  23967852.637    16479382.00749  12862580.19445  23967852.000    23967859.593
  21201971.929      110829.67449     96958.01847  21201971.201    21201975.137
  20257782.077   -27292715.35649 -21209558.19148  20257781.590    20257783.394
  23710162.998    -6911158.79449  -5376023.28945  23710162.766    23710167.199
  22796623.512    10805025.09149   8423231.49046  22796622.926    22796626.973
 03  4  9  1  6  0.0000000  0  8G18G31G 3G17G15G14G 9G23
  22245718.639     8453575.17849   6697158.51146  22245718.150    22245720.538
  22356391.199   -11298066.89549  -8507548.54046  22356390.703    22356394.987
  22153286.741   -10271612.89649  -7984251.55447  22153286.399    22153291.211
  23986359.814    16576637.23449  12938363.35745  23986359.259    23986366.727
  21214224.991      175219.87549    147132.16247  21214224.268    21214228.202
  20254544.081   -27309730.99449 -21222817.10548  20254543.611    20254545.439
  23717490.308    -6872653.76749  -5346019.39445  23717490.153    23717494.511
  22807027.407    10859697.28349   8465833.17246  22807026.774    22807030.834
 03  4  9  1  6 30.0000000  0  8G18G31G 3G17G15G14G 9G23
  22257250.576     8514175.81749   6744379.76146  22257250.096    22257252.491
  22357563.512   -11291906.59849  -8502748.32646  22357563.011    22357567.229
  22163069.790   -10220202.92849  -7944191.88947  22163069.426    22163074.193
  24004909.444    16674115.82349  13014320.55245  24004908.917    24004916.447
  21226553.650      240007.06749    197615.64847  21226552.923    21226556.837
  20251407.809   -27326212.24349 -21235659.62048  20251407.322    20251409.142
  23724926.415    -6833577.00249  -5315569.98945  23724926.205    23724930.598
  22817440.207    10914416.79249   8508471.72146  22817439.585    22817443.627
 03  4  9  1  7  0.0000000  0  8G18G31G 3G17G15G14G 9G23
  22268802.555     8574881.80049   6791683.10546  22268802.049    22268804.491
  22358843.577   -11285180.00849  -8497506.84946  22358843.035    22358847.243
  22172934.286   -10168364.75549  -7903798.55047  22172933.937    22172938.712
  24023501.240    16771815.98049  13090450.39645  24023500.786    24023508.282
  21238957.679      305190.41549    248407.83147  21238956.926    21238960.836
  20248373.092   -27342159.65949 -21248086.15948  20248372.613    20248374.401
  23732471.261    -6793929.46149  -5284675.78945  23732470.982    23732475.275
  22827861.942    10969183.43549   8551147.00846  22827861.360    22827865.385
 03  4  9  1  7 30.0000000  0  8G18G31G 3G17G15G14G 9G23
  22280374.503     8635692.36149   6839067.91946  22280373.948    22280376.433
  22360231.217   -11277888.19049  -8491824.92146  22360230.674    22360234.906
  22182879.847   -10116100.93649  -7863073.54046  22182879.472    22182884.270
  24042134.966    16869736.40649  13166751.88645  24042134.367    24042142.074
  21251436.863      370768.91449    299507.91747  21251436.107    21251440.062
  20245439.914   -27357573.68649 -21260097.06848  20245439.414    20245441.243
  23740124.116    -6753712.25649  -5253337.75445  23740123.955    23740128.437
  22838292.627    11023996.84449   8593858.72846  22838291.979    22838296.055
 03  4  9  1  8  0.0000000  0  8G18G31G 3G17G15G14G 9G23
  22291966.212     8696607.36249   6886534.14446  22291965.654    22291968.194
  22361726.222   -11270032.04949  -8485703.27546  22361725.669    22361729.937
  22192905.872   -10063413.71449  -7822018.61246  22192905.491    22192910.307
  24060810.387    16967876.15949  13243224.29345  24060809.778    24060817.558
  21263991.090      436741.61649    350915.18747  21263990.326    21263994.296
  20242608.017   -27372455.10749 -21271692.96548  20242607.554    20242609.359
  23747885.575    -6712926.56849  -5221556.71445  23747885.321    23747889.756
  22848732.083    11078856.92749   8636606.82946  22848731.492    22848735.612
 03  4  9  1  8 30.0000000  0  8G18G31G 3G17G15G14G 9G23
  22303577.843     8757626.82749   6934081.75246  22303577.275    22303579.840
  22363328.509   -11261611.84049  -8479142.08846  22363327.980    22363332.207
  22203012.196   -10010305.03749  -7780635.27446  22203011.815    22203016.594
  24079527.489    17066234.04249  13319866.65545  24079526.730    24079534.576
  21276620.273      503108.50549    402629.60547  21276619.583    21276623.548
  20239877.607   -27386803.57649 -21282873.56948  20239877.115    20239878.875
  23755754.838    -6671573.05549  -5189333.22145  23755754.614    23755759.057
  22859180.625    11133764.05149   8679391.57546  22859179.999    22859184.119
 03  4  9  1  9  0.0000000  0  8G18G31G 3G17G15G14G 9G23
  22315209.400     8818750.65149   6981710.67746  22315208.832    22315211.315
  22365038.108   -11252628.16849  -8472141.84046  22365037.527    22365041.711
  22213198.284    -9956777.02549  -7738925.18546  22213197.913    22213202.668
  24098285.884    17164809.08749  13396678.23945  24098285.124    24098292.721
  21289324.416      569868.91649    454650.66547  21289323.688    21289327.667
  20237248.574   -27400619.27049 -21293639.02848  20237248.055    20237249.848
  23763732.034    -6629652.81049  -5156668.11345  23763731.870    23763736.225
  22869638.207    11188718.44349   8722213.14946  22869637.540    22869641.548
 03  4  9  1  9 30.0000000  0  8G18G31G 3G17G15G14G 9G23
  22326860.308     8879976.71849   7029419.27346  22326859.747    22326862.289
  22366854.340   -11243083.92349  -8464704.78546  22366853.759    22366857.949
  22223463.211    -9902834.12449  -7696891.80546  22223462.867    22223467.682
  24117084.897    17263598.00449  13473656.49645  24117084.170    24117091.723
  21302102.978      637020.36649    506976.42147  21302102.231    21302106.214
  20234720.368   -27413904.66249 -21303991.27248  20234719.905    20234721.699
  23771816.419    -6587168.76749  -5123563.67545  23771816.224    23771820.749
  22880104.299    11243718.04949   8765069.95246  22880103.654    22880107.608
 03  4  9  1 10  0.0000000  0  8G18G31G 3G17G15G14G 9G23
  22338530.876     8941306.29849   7077208.52846  22338530.387    22338532.941
  22368777.450   -11232978.15349  -8456830.18846  22368776.848    22368781.062
  22233807.128    -9848476.61949  -7654535.35946  22233806.806    22233811.625
  24135924.709    17362601.41649  13550801.87945  24135924.017    24135931.682
  21314956.084      704563.93549    559607.73447  21314955.343    21314959.374
  20232293.450   -27426658.13849 -21313929.02548  20232292.965    20232294.757
  23780008.200    -6544120.52349  -5090019.59945  23780007.923    23780012.640
  22890579.248    11298764.83249   8807963.54146  22890578.682    22890582.708
 03  4  9  1 10 30.0000000  0  8G18G31G 3G17G15G14G 9G23
  22350221.118     9002738.64749   7125077.86546  22350220.584    22350223.145
  22370807.053   -11222312.14949  -8448519.03246  22370806.493    22370810.748
  22244229.469    -9793707.32649  -7611858.03346  22244229.120    22244233.925
  24154805.184    17461817.56049  13628113.01545  24154804.587    24154812.233
  21327883.646      772498.42149    612543.66547  21327882.914    21327886.943
  20229967.537   -27438880.63449 -21323453.02548  20229967.085    20229968.882
  23788307.232    -6500509.52849  -5056037.01045  23788307.008    23788311.462
  22901063.309    11353858.29649   8850893.48546  22901062.704    22901066.666
 03  4  9  1 11  0.0000000  0  8G18G31G 3G17G15G14G 9G23
  22361930.846     9064273.59149   7173027.14546  22361930.328    22361932.940
  22372943.174   -11211086.75449  -8439771.98946  22372942.644    22372946.957
  22254729.619    -9738529.04449  -7568862.02446  22254729.261    22254734.036
  24173725.718    17561245.08949  13705588.86645  24173725.038    24173732.780
  21340885.448      840823.20549    665783.70047  21340884.713    21340888.765
  20227742.654   -27450572.61449 -21332563.64048  20227742.195    20227743.994
  23796712.979    -6456336.78449  -5021616.69845  23796712.768    23796717.256
  22911556.102    11408998.40049   8893859.78146  22911555.540    22911559.520
 03  4  9  1 11 30.0000000  0  9G18G31G 3G17G25G15G14G 9G23
  22373659.671     9125909.07949   7221054.77946  22373659.178    22373661.802
  22375185.144   -11199304.96649  -8430591.39446  22375184.602    22375188.948
  22265306.790    -9682945.80449  -7525550.46246  22265306.439    22265311.223
  24192685.621    17660880.80149  13783226.94645  24192685.082    24192692.805
  24536036.074    -4197139.67159  -3245085.95145  24536035.906    24536045.108
  21353961.023      909535.62249    719325.78947  21353960.301    21353964.317
  20225618.238   -27461736.62649 -21341262.85248  20225617.766    20225619.524
  23805225.064    -6411605.37949  -4986761.08145  23805224.786    23805229.295
  22922057.490    11464183.20449   8936860.90046  22922056.890    22922060.821
 03  4  9  1 12  0.0000000  0  9G18G31G 3G17G25G15G14G 9G23
  22385407.849     9187645.88049   7269161.35746  22385407.325    22385409.922
  22377533.081   -11186966.56649  -8420977.07846  22377532.577    22377536.854
  22275960.789    -9626958.82449  -7481924.28446  22275960.453    22275965.265
  24211685.268    17760724.36149  13861026.98045  24211684.829    24211692.675
  24517421.947    -4294956.26849  -3321306.43945  24517421.732    24517430.931
  21367110.371      978635.85649    773170.08347  21367109.668    21367113.676
  20223594.386   -27472371.77749 -21349549.95848  20223593.917    20223595.679
  23813843.421    -6366315.36949  -4951470.19245  23813843.289    23813847.682
  22932567.541    11519413.86049   8979897.75846  22932566.914    22932570.846
 03  4  9  1 12 30.0000000  0  9G18G31G 3G17G25G15G14G 9G23
  22397175.503     9249485.38349   7317347.95746  22397175.028    22397177.628
  22379987.108   -11174070.84849  -8410928.48846  22379986.588    22379990.863
  22286691.512    -9570568.84249  -7437984.09546  22286691.164    22286695.959
  24230724.535    17860776.16049  13938989.29245  24230724.109    24230732.164
  24498797.254    -4392828.21749  -3397570.07645  24498797.136    24498806.115
  21380333.698     1048124.76449    827317.23047  21380332.963    21380337.014
  20221671.390   -27482477.07149 -21357424.19648  20221670.948    20221672.695
  23822568.288    -6320466.69149  -4915743.97945  23822567.999    23822572.420
  22943086.636    11574692.12249   9022971.69646  22943086.052    22943090.018
 03  4  9  1 13  0.0000000  0  9G18G31G 3G17G25G15G14G 9G23
  22408962.633     9311426.78749   7365613.96446  22408962.118    22408964.715
  22382546.916   -11160619.23049  -8400446.72746  22382546.386    22382550.687
  22297498.322    -9513779.00449  -7393732.32946  22297497.973    22297502.748
  24249803.299    17961034.49349  14017112.53745  24249802.671    24249810.941
  24480162.335    -4490753.66849  -3473875.42245  24480162.437    24480171.154
  21393630.789     1118001.23849    881766.38747  21393630.058    21393634.145
  20219849.088   -27492053.27349 -21364886.15148  20219848.600    20219850.386
  23831398.954    -6274060.66849  -4879583.46945  23831398.815    23831403.188
  22953614.763    11630017.63149   9066082.45546  22953614.154    22953618.086
 03  4  9  1 13 30.0000000  0  9G18G31G 3G17G25G15G14G 9G23
  22420768.845     9373468.64249   7413958.24146  22420768.335    22420770.892
  22385212.008   -11146614.07549  -8389533.63246  22385211.451    22385215.745
  22308380.508    -9456592.78949  -7349171.69846  22308380.170    22308384.974
  24268920.760    18061496.73249  14095394.65945  24268920.016    24268928.346
  24461517.657    -4588731.10749  -3550221.29745  24461517.754    24461526.377
  21407001.293     1188263.35649    936516.04747  21407000.502    21407004.623
  20218127.075   -27501102.31749 -21371937.33848  20218126.612    20218128.388
  23840335.400    -6227099.98249  -4842990.72345  23840335.240    23840339.551
  22964151.571    11685389.11549   9109229.04946  22964150.989    22964154.925
 03  4  9  1 14  0.0000000  0  8G18G31G 3G25G15G14G 9G23
  22432594.516     9435612.44349   7462381.94646  22432593.978    22432596.506
  22387982.532   -11132054.85849  -8378188.80646  22387981.973    22387986.256
  22319337.928    -9399011.39349  -7304303.13346  22319337.584    22319342.402
  24442863.996    -4686756.30849  -3626604.39045  24442863.898    24442872.507
  21420445.273     1258911.66249    991566.62047  21420444.475    21420448.586
  20216505.619   -27509623.34749 -21378577.08348  20216505.115    20216506.868
  23849377.285    -6179584.44749  -4805965.64945  23849377.129    23849381.451
  22974697.505    11740808.16849   9152412.70946  22974696.928    22974700.901
 03  4  9  1 14 30.0000000  0  8G18G31G 3G25G15G14G 9G23
  22444439.391     9497857.78549   7510884.80046  22444438.898    22444441.443
  22390858.320   -11116942.55249  -8366413.00246  22390857.812    22390862.115
  22330370.161    -9341036.93749  -7259128.28846  22330369.786    22330374.643
  24424201.783    -4784826.53249  -3703022.57645  24424201.627    24424210.109
  21433962.581     1329945.48849   1046917.60247  21433961.797    21433965.932
  20214984.507   -27517616.68549 -21384805.64148  20214984.028    20214985.774
  23858524.540    -6131515.31349  -4768509.20145  23858524.397    23858528.841
  22985252.559    11796275.06149   9195633.62846  22985251.982    22985255.958
 03  4  9  1 15  0.0000000  0  8G18G31G 3G25G15G14G 9G23
  22456303.115     9560201.92849   7559464.60746  22456302.625    22456305.131
  22393838.739   -11101280.72149  -8354208.99646  22393838.178    22393842.488
  22341476.195    -9282674.42949  -7213651.06146  22341475.818    22341480.717
  24405530.940    -4882941.80449  -3779475.88245  24405530.723    24405539.180
  21447552.580     1401361.42249   1102566.33347  21447551.809    21447555.962
  20213563.240   -27525085.51249 -21390625.49248  20213562.732    20213564.502
  23867776.465    -6082896.39749  -4730624.35145  23867776.203    23867780.669
  22995816.291    11851787.31449   9238889.88946  22995815.648    22995819.603
 03  4  9  1 15 30.0000000  0  8G18G31G 3G25G15G14G 9G23
  22468185.882     9622646.23749   7608122.48946  22468185.409    22468187.896
  22396923.724   -11085068.82049  -8341576.36046  22396923.183    22396927.480
  22352656.022    -9223924.59549  -7167872.02746  22352655.608    22352660.494
  24386852.221    -4981097.94649  -3855961.03645  24386852.144    24386860.439
  21461215.465     1473160.27249   1158513.44247  21461214.720    21461218.897
  20212241.973   -27532028.63549 -21396035.70548  20212241.476    20212243.226
  23877133.032    -6033727.40949  -4692310.87845  23877132.775    23877137.357
  23006388.826    11907346.55549   9282182.79246  23006388.199    23006392.223
 03  4  9  1 16  0.0000000  0  8G18G31G 3G25G15G14G 9G23
  22480087.531     9685189.73849   7656857.65646  22480087.039    22480089.529
  22400113.000   -11068308.99649  -8328516.78446  22400112.495    22400116.776
  22363908.746    -9164791.12649  -7121794.06146  22363908.348    22363913.299
  24368166.302    -5079292.97149  -3932476.48045  24368166.180    24368174.427
  21474950.863     1545340.18549   1214757.47947  21474950.141    21474954.302
  20211020.455   -27538447.77749 -21401037.62048  20211019.952    20211021.702
  23886593.756    -5984010.60849  -4653570.55745  23886593.485    23886598.149
  23016970.068    11962951.89049   9325511.58846  23016969.504    23016973.575
 03  4  9  1 16 30.0000000  0  8G18G31G 3G25G15G14G 9G23
  22492007.942     9747831.90949   7705669.70546  22492007.447    22492009.969
  22403406.336   -11051002.69949  -8315031.37846  22403405.835    22403410.110
  22375234.015    -9105276.81849  -7075419.33146  22375233.628    22375238.574
  24349473.254    -5177524.63349  -4009020.47445  24349473.111    24349481.366
  21488758.608     1617900.13749   1271297.65847  21488757.863    21488762.062
  20209898.431   -27544343.85849 -21405631.96048  20209897.939    20209899.675
  23896158.538    -5933747.62249  -4614404.61745  23896158.304    23896162.777
  23027560.312    12018603.19049   9368876.20546  23027559.672    23027563.775
 03  4  9  1 17  0.0000000  0  8G18G31G 3G25G15G14G 9G23
  22503947.230     9810573.29549   7754559.06846  22503946.742    22503949.279
  22406803.512   -11033150.42249  -8301120.53946  22406803.023    22406807.305
  22386631.374    -9045383.37749  -7028749.18046  22386631.008    22386635.975
  24330773.915    -5275789.61749  -4085590.40445  24330773.696    24330781.999
  21502638.654     1690839.98949   1328133.85847  21502637.894    21502642.106
  20208875.984   -27549716.90249 -21409818.73548  20208875.487    20208877.211
  23905827.043    -5882939.28949  -4574813.73145  23905826.871    23905831.351
  23038159.206    12074301.11449   9412277.16846  23038158.544    23038162.741
 03  4  9  1 17 30.0000000  0  8G18G31G 3G25G15G14G 9G23
  22515905.381     9873413.16849   7803525.17346  22515904.853    22515907.301
  22410304.296   -11014753.63749  -8286785.40446  22410303.799    22410308.068
  22398100.374    -8985113.53349  -6981785.71546  22398100.018    22398104.962
  24312068.791    -5374085.74049  -4162184.63645  24312068.475    24312076.764
  21516590.794     1764158.58349   1385265.18547  21516589.995    21516594.188
  20207952.871   -27554567.70649 -21413598.57248  20207952.386    20207954.108
  23915599.146    -5831587.42149  -4534799.31945  23915598.895    23915603.590
  23048766.992    12130045.59949   9455714.39546  23048766.371    23048770.542
 03  4  9  1 18  0.0000000  0  8G18G31G 3G25G15G14G 9G23
  22527882.045     9936350.99149   7852567.59346  22527881.493    22527883.989
  22413908.338   -10995814.31649  -8272027.52346  22413907.845    22413912.151
  22409640.408    -8924470.60849  -6934531.55146  22409640.029    22409645.034
  24293357.932    -5472410.79249  -4238801.38445  24293357.668    24293365.920
  21530614.577     1837854.09249   1442690.20747  21530613.846    21530618.020
  20207128.874   -27558897.74649 -21416972.62048  20207128.386    20207130.093
  23925473.983    -5779694.24849  -4494363.09845  23925473.818    23925478.435
  23059383.707    12185836.00249   9499187.39246  23059383.001    23059387.164
 03  4  9  1 18 30.0000000  0  8G18G31G 3G25G15G14G 9G23
  22539877.479     9999387.80749   7901687.17546  22539876.968    22539879.554
  22417615.724   -10976332.24749  -8256846.71646  22417615.228    22417619.501
  22421251.182    -8863455.76049  -6886987.57146  22421250.831    22421255.839
  24274642.206    -5570760.81049  -4315437.60145  24274642.115    24274650.496
  21544710.237     1911927.00549   1500409.31547  21544709.458    21544713.649
  20206404.086   -27562706.48449 -21419940.45348  20206403.588    20206405.290
  23935452.207    -5727259.87549  -4453505.15245  23935451.872    23935456.366
  23070009.206    12241673.81049   9542697.35646  23070008.526    23070012.741
 03  4  9  1 19  0.0000000  0  9G18G31G 3G25G11G15G14G 9G23
  22551891.244    10062520.04449   7950881.08846  22551890.691    22551893.270
  22421425.439   -10956312.22549  -8241246.73346  22421424.930    22421429.183
  22432931.537    -8802075.10749  -6839158.55546  22432931.185    22432936.251
  24255921.566    -5669136.78249  -4392094.02545  24255921.694    24255929.947
  24664686.772    -1899860.78659  -1460671.35745  24664685.333    24664690.113
  21558876.869     1986372.98749   1558419.12147  21558876.091    21558880.287
  20205777.774   -27565997.96149 -21422505.23648  20205777.271    20205778.961
  23945532.054    -5674289.16149  -4412229.30745  23945531.793    23945536.379
  23080643.291    12297555.69949   9586241.64746  23080642.573    23080646.772
 03  4  9  1 19 30.0000000  0  9G18G31G 3G25G11G15G14G 9G23
  22563923.426    10125749.84049   8000151.04046  22563922.882    22563925.455
  22425337.686   -10935753.10249  -8225226.66446  22425337.172    22425341.519
  22444681.509    -8740328.75349  -6791044.57746  22444681.170    22444686.254
  24237197.125    -5767533.44449  -4468766.55845  24237197.337    24237205.649
  24645607.196    -2000123.93949  -1538798.41445  24645606.002    24645610.619
  21573114.804     2061193.47149   1616720.75347  21573114.014    21573118.234
  20205250.136   -27568770.68149 -21424665.78548  20205249.627    20205251.331
  23955714.377    -5620781.11549  -4370534.72445  23955714.024    23955718.743
  23091285.996    12353484.16349   9629822.25346  23091285.346    23091289.655
 03  4  9  1 20  0.0000000  0  9G18G31G 3G25G11G15G14G 9G23
  22575974.490    10189079.05149   8049498.44846  22575973.998    22575976.666
  22429352.736   -10914653.97349  -8208785.81946  22429352.242    22429356.580
  22456500.953    -8678217.23749  -6742646.04746  22456500.608    22456505.695
  24218469.944    -5865945.85449  -4545451.37045  24218469.982    24218478.174
  24626538.683    -2100328.93749  -1616880.17245  24626537.562    24626542.241
  21587424.168     2136389.75649   1675315.21647  21587423.398    21587427.642
  20204821.448   -27571023.20349 -21426420.98748  20204820.954    20204822.651
  23965998.826    -5566735.27349  -4328421.07045  23965998.584    23966003.220
  23101938.246    12409461.49049   9673440.91746  23101937.552    23101941.770
 03  4  9  1 20 30.0000000  0  9G18G31G 3G25G11G15G14G 9G23
  22588044.202    10252505.52849   8098921.65346  22588043.673    22588046.387
  22433469.939   -10893018.24049  -8191926.84446  22433469.402    22433473.723
  22468389.095    -8615745.13449  -6693966.55446  22468388.748    22468393.797
  24199739.881    -5964373.40049  -4622147.98445  24199739.639    24199747.768
  24607481.172    -2200475.77449  -1694916.59345  24607480.366    24607484.929
  21601804.678     2211959.22949   1734200.46647  21601803.852    21601808.105
  20204491.294   -27572758.26849 -21427772.97948  20204490.812    20204492.469
  23976385.100    -5512155.19449  -4285891.15445  23976384.755    23976389.419
  23112599.344    12465485.84349   9717096.23246  23112598.661    23112602.879
 03  4  9  1 21  0.0000000  0  9G18G31G 3G25G11G15G14G 9G23
  22600132.236    10316028.42549   8148419.98146  22600131.714    22600134.396
  22437688.780   -10870848.04549  -8174651.39946  22437688.242    22437692.584
  22480345.154    -8552915.76249  -6645008.66146  22480344.801    22480349.922
  24181007.178    -6062814.04749  -4698854.78045  24181006.907    24181014.832
  24588435.002    -2300563.29949  -1772906.80645  24588434.321    24588438.671
  21616255.647     2287899.86149   1793374.94547  21616254.888    21616259.171
  20204259.281   -27573977.53749 -21428723.05048  20204258.773    20204260.448
  23986872.472    -5457043.45649  -4242946.94845  23986872.144    23986876.917
  23123269.276    12521556.58049   9760787.70246  23123268.614    23123272.856
 03  4  9  1 21 30.0000000  0  9G18G31G 3G25G11G15G14G 9G23
  22612238.911    10379649.01549   8197994.45046  22612238.393    22612240.996
  22442009.391   -10848143.37949  -8156959.48746  22442008.890    22442013.200
  22492369.022    -8489730.22249  -6595773.24046  22492368.667    22492373.730
  24162272.770    -6161263.83649  -4775568.70545  24162272.397    24162280.293
  24569400.870    -2400587.93649  -1850847.99945  24569400.448    24569404.635
  21630777.409     2364211.84549   1852838.77847  21630776.625    21630780.876
  20204125.528   -27574680.31649 -21429270.66448  20204125.025    20204126.676
  23997460.975    -5401400.23449  -4199588.61245  23997460.743    23997465.520
  23133948.369    12577675.24449   9804516.50246  23133947.702    23133951.884
 03  4  9  1 22  0.0000000  0  9G18G31G 3G25G11G15G14G 9G23
  22624363.886    10443366.47149   8247644.40046  22624363.410    22624366.051
  22446431.260   -10824906.40849  -8138852.78646  22446430.729    22446435.009
  22504460.055    -8426191.89749  -6546262.91546  22504459.667    22504464.779
  24143536.934    -6259720.88249  -4852288.28245  24143536.568    24143544.469
  24550378.883    -2500548.87649  -1928739.55445  24550378.447    24550382.857
  21645369.434     2440893.35349   1912590.55747  21645368.673    21645372.930
  20204089.780   -27574868.29949 -21429417.13148  20204089.270    20204090.900
  24008150.361    -5345227.68049  -4155817.79845  24008150.014    24008154.761
  23144636.330    12633841.22649   9848282.17946  23144635.712    23144639.892
 03  4  9  1 22 30.0000000  0  9G18G31G 3G25G11G15G14G 9G23
  22636507.335    10507180.32349   8297369.44846  22636506.842    22636509.401
  22450954.085   -10801138.63749  -8120332.48046  22450953.588    22450957.892
  22516617.629    -8362303.56549  -6496479.85646  22516617.240    22516622.360
  24124800.331    -6358182.25149  -4929011.22145  24124799.769    24124807.705
  24531369.356    -2600443.79649  -2006579.66745  24531369.037    24531373.449
  21660031.624     2517943.42249   1972629.52547  21660030.853    21660035.108
  20204151.760   -27574542.39349 -21429163.17048  20204151.257    20204152.956
  24018940.088    -5288527.44249  -4111635.80045  24018939.874    24018944.534
  23155333.488    12690054.72549   9892084.87446  23155332.837    23155337.009
 03  4  9  1 23  0.0000000  0  9G18G31G 3G25G11G15G14G 9G23
  22648669.202    10571090.96549   8347169.92146  22648668.653    22648671.223
  22455577.853   -10776841.11949  -8101399.38546  22455577.318    22455581.622
  22528841.367    -8298067.60649  -6446425.93246  22528840.978    22528846.102
  24106063.110    -6456644.98149  -5005735.23845  24106062.870    24106070.708
  24512372.957    -2700270.48849  -2084366.61145  24512372.668    24512377.082
  21674763.793     2595361.47649   2032955.23247  21674763.054    21674767.326
  20204311.467   -27573703.17249 -21428509.22248  20204310.957    20204312.649
  24029829.879    -5231301.10949  -4067043.88445  24029829.585    24029834.394
  23166039.707    12746316.20849   9935924.97746  23166039.035    23166043.222
 03  4  9  1 23 30.0000000  0  9G18G31G 3G25G11G15G14G 9G23
  22660849.043    10635096.64649   8397044.46046  22660848.541    22660851.166
  22460301.724   -10752016.96949  -8082055.92946  22460301.177    22460305.565
  22541130.462    -8233488.10749  -6396104.30846  22541130.040    22541135.273
  24087326.060    -6555107.91349  -5082459.40445  24087325.901    24087333.709
  24493389.661    -2800028.52849  -2162100.05745  24493389.310    24493393.660
  21689565.555     2673144.85449   2093565.59747  21689564.767    21689569.045
  20204568.327   -27572353.31249 -21427457.37648  20204567.819    20204569.494
  24040819.238    -5173551.93349  -4022044.50645  24040818.898    24040823.656
  23176754.774    12802624.22749   9979801.32646  23176754.117    23176758.298
 03  4  9  1 24  0.0000000  0  9G18G31G 3G25G11G15G14G 9G23
  22673047.278    10699198.28649   8446993.76046  22673046.726    22673049.276
  22465125.790   -10726666.66749  -8062302.47846  22465125.237    22465129.630
  22553484.638    -8168566.80549  -6345516.34446  22553484.227    22553489.427
  24068589.580    -6653567.46549  -5159180.94745  24068589.473    24068597.257
  24474419.952    -2899714.81049  -2239777.58745  24474419.512    24474423.981
  21704436.788     2751293.61649   2154460.68547  21704436.022    21704440.305
  20204922.432   -27570492.47049 -21426007.35948  20204921.924    20204923.602
  24051907.843    -5115280.57749  -3976638.29245  24051907.680    24051912.452
  23187479.050    12858980.10349  10023714.97546  23187478.403    23187482.529
 03  4  9  1 24 30.0000000  0  9G18G31G 3G25G11G15G14G 9G23
  22685263.522    10763395.18449   8497017.29546  22685263.029    22685265.568
  22470049.543   -10700792.08549  -8042140.50146  22470049.019    22470053.418
  22565903.280    -8103306.56549  -6294664.28146  22565902.881    22565908.050
  24049854.292    -6752021.29449  -5235898.02145  24049854.253    24049861.909
  24455464.192    -2999327.99449  -2317398.15745  24455463.725    24455468.086
  21719377.346     2829806.30749   2215639.35747  21719376.548    21719380.830
  20205373.522   -27568121.97649 -21424160.21548  20205373.011    20205374.696
  24063095.543    -5056489.32149  -3930826.91045  24063095.376    24063099.887
  23198212.279    12915383.47049  10067665.62746  23198211.643    23198215.774
 03  4  9  1 25  0.0000000  0  9G18G31G 3G25G11G15G14G 9G23
  22697498.099    10827688.39449   8547115.88146  22697497.560    22697500.249
  22475072.999   -10674393.80949  -8021570.45546  22475072.451    22475076.865
  22578386.037    -8037709.33749  -6243549.62146  22578385.689    22578390.806
  24031120.860    -6850465.41949  -5312607.54245  24031120.812    24031128.402
  24436522.965    -3098864.91549  -2394959.32045  24436522.507    24436526.839
  21734387.047     2908682.73349   2277101.45847  21734386.277    21734390.578
  20205921.545   -27565241.88749 -21421915.97948  20205921.042    20205922.695
  24074381.845    -4997178.88549  -3884610.98045  24074381.782    24074386.237
  23208954.699    12971835.46149  10111654.15746  23208954.055    23208958.207
 03  4  9  1 25 30.0000000  0  9G18G31G 3G25G11G15G14G 9G23
  22709750.821    10892076.72449   8597288.58246  22709750.267    22709752.961
  22480195.587   -10647474.38849  -8000594.31446  22480195.025    22480199.508
  22590932.272    -7971778.67949  -6192175.14446  22590931.874    22590937.025
  24012389.401    -6948898.64449  -5389308.55845  24012389.399    24012396.947
  24417596.497    -3198324.42749  -2472460.17445  24417595.930    24417600.229
  21749465.598     2987920.81949   2338845.35947  21749464.829    21749469.110
  20206566.250   -27561854.11649 -21419276.14548  20206565.716    20206567.377
  24085766.497    -4937352.02149  -3837992.64245  24085766.491    24085770.903
  23219706.381    13028335.34949  10155680.03146  23219705.712    23219709.794
 03  4  9  1 26  0.0000000  0  9G18G31G 3G25G11G15G14G 9G23
  22722021.542    10956559.76849   8647535.08446  22722020.992    22722023.729
  22485417.013   -10620035.60349  -7979213.48146  22485416.480    22485420.963
  22603541.303    -7905517.60549  -6140543.20146  22603540.984    22603546.211
  23993660.665    -7047318.22849  -5465998.94445  23993660.525    23993668.107
  24398684.939    -3297704.68049  -2549899.24745  24398684.353    24398688.510
  21764612.760     3067519.36849   2400870.16047  21764611.973    21764616.275
  20207307.283   -27557959.89149 -21416241.67648  20207306.753    20207308.399
  24097249.041    -4877010.72649  -3790973.46645  24097248.951    24097253.576
  23230467.094    13084883.10049  10199743.20046  23230466.393    23230470.557
 03  4  9  1 26 30.0000000  0  9G18G31G 3G25G11G15G14G 9G23
  22734310.336    11021137.50549   8697855.37146  22734309.744    22734312.401
  22490736.983   -10592079.23949  -7957429.34446  22490736.437    22490740.901
  22616212.833    -7838928.87949  -6088655.94846  22616212.472    22616217.640
  23974934.928    -7145721.16449  -5542676.35345  23974934.928    23974942.423
  24379788.842    -3397003.63049  -2627274.97845  24379788.264    24379792.455
  21779828.219     3147477.03449   2463174.78547  21779827.409    21779831.737
  20208144.450   -27553560.53249 -21412813.59448  20208143.913    20208145.582
  24108829.176    -4816157.01549  -3743554.95745  24108829.035    24108833.308
  23241236.754    13141478.85349  10243843.75746  23241236.137    23241240.414
 03  4  9  1 27  0.0000000  0  9G18G31G 3G25G11G15G14G 9G23
  22746617.423    11085811.00049   8748250.27846  22746616.815    22746619.375
  22496155.388   -10563605.59249  -7935242.11646  22496154.826    22496159.375
  22628946.347    -7772013.81349  -6036514.40546  22628946.036    22628951.178
  23956213.337    -7244103.63349  -5619337.80345  23956213.189    23956220.604
  24360908.856    -3496218.11649  -2704584.91245  24360908.274    24360912.389
  21795112.013     3227793.91849   2525759.32347  21795111.238    21795115.613
  20209077.794   -27548655.69549 -21408991.63548  20209077.277    20209078.952
  24120506.746    -4754791.36049  -3695737.56045  24120506.551    24120510.921
  23252016.075    13198124.05749  10287982.83946  23252015.425    23252019.642
 03  4  9  1 27 30.0000000  0  9G18G31G 3G25G11G15G14G 9G23
  22758942.106    11150577.79449   8798717.88346  22758941.533    22758944.088
  22501671.492   -10534618.39249  -7912654.72946  22501670.927    22501675.464
  22641741.223    -7704777.24349  -5984122.33746  22641740.829    22641745.975
  23937495.589    -7342465.09149  -5695982.89745  23937495.487    23937502.842
  24342044.937    -3595348.30949  -2781829.16645  24342044.353    24342048.449
  21810463.648     3308466.99749   2588621.40047  21810462.851    21810467.265
  20210106.751   -27543248.36649 -21404778.12748  20210106.215    20210107.904
  24132280.770    -4692917.84649  -3647524.44745  24132280.799    24132284.989
  23262804.376    13254816.78149  10332158.96646  23262803.726    23262807.906
 03  4  9  1 28  0.0000000  0  9G18G31G 3G25G11G15G14G 9G23
  22771284.861    11215439.00049   8849259.05446  22771284.208    22771286.792
  22507285.173   -10505118.30449  -7889667.68446  22507284.631    22507289.159
  22654596.856    -7637220.88849  -5931481.09046  22654596.459    22654601.643
  23918782.652    -7440801.54649  -5772608.49845  23918782.512    23918789.820
  24323197.794    -3694390.95949  -2859005.18545  24323197.171    24323201.261
  21825882.916     3389495.98049   2651760.80347  21825882.176    21825886.584
  20211231.312   -27537338.63149 -21400173.13348  20211230.816    20211232.470
  24144151.360    -4630537.06349  -3598916.02845  24144151.212    24144155.795
  23273601.973    13311558.22249  10376373.05846  23273601.301    23273605.511
 03  4  9  1 28 30.0000000  0  9G18G31G 3G25G11G15G14G 9G23
  22783645.631    11280395.54149   8899874.52346  22783645.041    22783647.617
  22512996.415   -10475105.95549  -7866281.47646  22512995.867    22513000.367
  22667512.977    -7569346.42349  -5878591.96846  22667512.578    22667517.769
  23900075.272    -7539109.56549  -5849211.94145  23900075.012    23900082.193
  24304367.902    -3793342.96649  -2936110.60345  24304367.227    24304371.347
  21841369.997     3470880.70749   2715177.41947  21841369.255    21841373.615
  20212451.485   -27530926.66849 -21395176.79248  20212450.971    20212452.622
  24156118.324    -4567649.97649  -3549913.12845  24156118.147    24156122.942
  23284409.097    13368349.62149  10420626.07846  23284408.370    23284412.556
 03  4  9  1 29  0.0000000  0  9G18G31G 3G25G11G15G14G 9G23
  22796024.391    11345446.33949   8950563.44846  22796023.771    22796026.398
  22518804.516   -10444584.12149  -7842498.26146  22518803.957    22518808.465
  22680488.825    -7501157.83849  -5825458.07146  22680488.455    22680493.720
  23881373.585    -7637387.38649  -5925791.86845  23881373.200    23881380.417
  24285555.327    -3892203.15949  -3013144.44845  24285554.701    24285558.730
  21856924.326     3552619.11349   2778869.64647  21856923.587    21856928.005
  20213766.825   -27524014.54349 -21389790.71448  20213766.311    20213767.967
  24168181.284    -4504259.69749  -3500518.08545  24168181.156    24168185.638
  23295225.349    13425190.23349  10464917.43146  23295224.762    23295228.969
 03  4  9  1 29 30.0000000  0  9G18G31G 3G25G11G15G14G 9G23
  22808420.373    11410587.43349   9001322.71046  22808419.749    22808422.362
  22524708.543   -10413558.38349  -7818322.39646  22524708.019    22524712.511
  22693523.288    -7432661.75049  -5772084.57646  22693522.921    22693528.155
  23862677.324    -7735635.79349  -6002348.88945  23862676.963    23862684.169
  24266759.873    -3990973.27249  -3090108.09945  24266759.233    24266763.371
  21872544.977     3634705.96949   2842833.35547  21872544.213    21872548.637
  20215176.378   -27516607.20649 -21384018.75948  20215175.885    20215177.539
  24180338.696    -4440371.89649  -3450735.37845  24180338.600    24180343.036
  23306050.417    13482076.36049  10509244.26046  23306049.877    23306054.091
 03  4  9  1 30  0.0000000  0  9G18G31G 3G25G11G15G14G 9G23
  22820834.619    11475825.13749   9052157.26546  22820834.076    22820836.718
  22530709.402   -10382024.03949  -7793750.21646  22530708.855    22530713.418
  22706616.993    -7363854.41349  -5718468.54646  22706616.606    22706621.843
  23843988.445    -7833845.52249  -6078875.76745  23843988.111    23843995.307
  24247983.138    -4089644.96349  -3166995.04945  24247982.521    24247986.695
  21888232.985     3717146.61249   2907072.75847  21888232.192    21888236.631
  20216681.220   -27508699.27649 -21377856.73448  20216680.713    20216682.358
  24192591.666    -4375982.04049  -3400561.49645  24192591.478    24192596.087
  23316885.377    13539014.57949  10553611.67846  23316884.806    23316889.122
 03  4  9  1 30 30.0000000  0  9G18G31G 3G25G11G15G14G 9G23
  22833266.936    11541157.15349   9103065.29246  22833266.378    22833268.987
  22536806.181   -10349985.14649  -7768784.87946  22536805.634    22536810.183
  22719768.901    -7294740.72149  -5664613.79146  22719768.481    22719773.814
  23825306.852    -7932016.55549  -6155372.51545  23825306.634    23825313.782
  24229225.161    -4188218.17249  -3243805.27145  24229224.537    24229228.674
  21903987.588     3799937.56649   2971585.13647  21903986.825    21903991.265
  20218280.610   -27500294.34949 -21371307.43948  20218280.096    20218281.768
  24204939.336    -4311094.42949  -3349999.71445  24204939.130    24204943.689
  23327729.853    13596002.85249  10598018.11446  23327729.319    23327733.574
 03  4  9  1 31  0.0000000  0  9G18G31G 3G25G11G15G14G 9G23
  22845716.985    11606581.84949   9154045.56346  22845716.310    22845718.896
  22542998.417   -10317444.91149  -7743428.89146  22542997.877    22543002.404
  22732978.293    -7225324.86749  -5610523.58746  22732977.967    22732983.330
  23806633.057    -8030147.50149  -6231838.04245  23806632.861    23806639.830
  24210486.013    -4286692.56049  -3320538.48345  24210485.430    24210489.623
  21919808.426     3883076.26149   3036368.48147  21919807.633    21919812.078
  20219974.068   -27491395.05549 -21364372.92048  20219973.573    20219975.221
  24217381.117    -4245712.52649  -3299052.75245  24217380.847    24217385.499
  23338583.790    13653040.03149  10642462.63746  23338583.215    23338587.384
 03  4  9  1 31 30.0000000  0  9G18G31G 3G25G11G15G14G 9G23
  22858184.788    11672101.09549   9205099.49946  22858184.208    22858186.830
  22549286.045   -10284403.33849  -7717682.24546  22549285.484    22549290.035
  22746245.121    -7155607.74249  -5556198.63446  22746244.752    22746250.103
  23787967.632    -8128233.65649  -6308268.67645  23787967.603    23787974.403
  24191766.522    -4385064.10049  -3397191.55045  24191766.029    24191770.119
  21935695.431     3966562.96949   3101422.99547  21935694.674    21935699.119
  20221761.809   -27482000.65049 -21357052.60248  20221761.296    20221762.903
  24229916.784    -4179836.59249  -3247720.88645  24229916.568    24229921.433
  23349447.294    13710128.10049  10686946.82246  23349446.684    23349450.906
 03  4  9  1 32  0.0000000  0  9G18G31G 3G25G11G15G14G 9G23
  22870670.372    11737712.65049   9256225.36846  22870669.685    22870672.351
  22555668.273   -10250864.54349  -7691548.15046  22555667.736    22555672.276
  22759568.206    -7085594.40249  -5501642.85246  22759567.859    22759573.300
  23769311.018    -8226274.25749  -6384663.82145  23769310.948    23769317.707
  24173066.606    -4483332.73349  -3473764.44345  24173066.204    24173070.156
  21951648.128     4050394.50349   3166746.21147  21951647.340    21951651.777
  20223643.070   -27472114.51449 -21349349.11048  20223642.544    20223644.175
  24242545.981    -4113470.77149  -3196007.25645  24242545.765    24242550.171
  23360320.194    13767265.21649  10731469.22446  23360319.548    23360323.793
 03  4  9  1 32 30.0000000  0  9G18G31G 3G25G11G15G14G 9G23
  22883173.402    11803416.68149   9307423.28846  22883172.769    22883175.500
  22562144.868   -10216829.92549  -7665027.70246  22562144.333    22562148.849
  22772947.258    -7015287.48649  -5446858.31246  22772946.907    22772952.327
  23750663.582    -8324266.41549  -6461021.21745  23750663.508    23750670.227
  24154386.761    -4581495.88949  -3550255.14145  24154386.356    24154390.323
  21967666.139     4134569.98049   3232337.44346  21967665.401    21967669.877
  20225617.707   -27461737.48449 -21341263.10648  20225617.197    20225618.831
  24255267.833    -4046616.78049  -3143913.24945  24255267.538    24255272.033
  23371202.373    13824451.95949  10776030.30446  23371201.754    23371206.127
 03  4  9  1 33  0.0000000  0  9G18G31G 3G25G11G15G14G 9G23
  22895694.226    11869214.18349   9358694.04146  22895693.631    22895696.373
  22568715.586   -10182300.50549  -7638121.69346  22568715.084    22568719.600
  22786381.886    -6944688.70849  -5391846.35546  22786381.486    22786386.902
  23732026.141    -8422206.11749  -6537337.73645  23732026.100    23732032.827
  24135727.462    -4679550.70549  -3626661.41045  24135727.134    24135731.000
  21983749.681     4219088.94549   3298196.31946  21983748.897    21983753.396
  20227685.748   -27450869.93149 -21332794.87448  20227685.225    20227686.857
  24268082.373    -3979275.81849  -3091439.80845  24268082.086    24268086.550
  23382094.399    13881689.41849  10820630.89346  23382093.714    23382098.053
 03  4  9  1 33 30.0000000  0  9G18G31G 3G25G11G15G14G 9G23
  22908232.801    11935105.06649   9410037.57446  22908232.251    22908235.044
  22575380.198   -10147277.91649  -7610831.39946  22575379.700    22575384.190
  22799871.406    -6873800.80249  -5336609.09746  22799871.027    22799876.509
  23713399.262    -8520090.56649  -6613611.20245  23713399.246    23713405.945
  24117089.243    -4777494.80449  -3702981.41045  24117088.837    24117092.818
  21999898.256     4303950.32349   3364322.00646  21999897.538    21999902.049
  20229846.892   -27439512.93549 -21323945.26048  20229846.369    20229848.011
  24280989.395    -3911449.76949  -3038588.33445  24280989.111    24280993.358
  23392996.050    13938977.89049  10865271.23946  23392995.416    23392999.718
 03  4  9  1 34  0.0000000  0  9G18G31G 3G25G11G15G14G 9G23
  22920789.042    12001088.70449   9461453.36746  22920788.518    22920791.291
  22582138.148   -10111764.84249  -7583158.91346  22582137.631    22582142.166
  22813415.394    -6802627.19449  -5281149.21846  22813414.991    22813420.455
  23694783.255    -8617917.63349  -6689839.94545  23694783.283    23694789.911
  24098472.399    -4875326.64849  -3779213.93745  24098471.975    24098476.031
  22016111.664     4389152.27949   3430713.07146  22016110.934    22016115.492
  20232100.834   -27427668.47049 -21314715.79848  20232100.308    20232101.938
  24293988.080    -3843141.36749  -2985361.03745  24293987.772    24293992.170
  23403907.430    13996317.10849  10909951.13446  23403906.782    23403910.994
 03  4  9  1 34 30.0000000  0  9G18G31G 3G25G11G15G14G 9G23
  22933362.983    12067164.97049   9512941.35446  22933362.473    22933365.216
  22588989.073   -10075763.11949  -7555105.66546  22588988.549    22588993.055
  22827013.182    -6731170.57149  -5225468.80746  22827012.798    22827018.262
  23676178.881    -8715684.41849  -6766021.68045  23676178.793    23676185.498
  24079877.282    -4973044.33749  -3855357.51445  24079876.888    24079880.913
  22032389.620     4474693.53949   3497368.53046  22032388.904    22032393.500
  20234447.327   -27415337.71649 -21305107.41048  20234446.824    20234448.403
  24307078.047    -3774352.61149  -2931759.35845  24307077.780    24307082.256
  23414828.493    14053707.51449  10954670.89846  23414827.832    23414832.000
 03  4  9  1 35  0.0000000  0  9G18G31G 3G25G11G15G14G 9G23
  22945954.712    12133334.80549   9564502.23046  22945954.227    22945956.977
  22595932.809   -10039273.74849  -7526672.42846  22595932.302    22595936.836
  22840664.461    -6659432.98349  -5169569.46846  22840664.057    22840669.535
  23657586.612    -8813387.06549  -6842153.44145  23657586.434    23657593.198
  24061304.643    -5070644.36249  -3931409.41045  24061304.226    24061308.180
  22048732.138     4560573.66849   3564288.05346  22048731.411    22048736.003
  20236886.283   -27402520.90749 -21295120.28148  20236885.755    20236887.333
  24320259.318    -3705084.66549  -2877784.35345  24320259.075    24320263.681
  23425759.547    14111150.33449  10999431.52346  23425758.845    23425763.052
 03  4  9  1 35 30.0000000  0  9G18G31G 3G25G11G15G14G 9G23
  22958563.518    12199594.55949   9616133.18246  22958563.058    22958565.859
  22602968.296   -10002302.19849  -7497863.46846  22602967.741    22602972.339
  22854367.971    -6587420.71049  -5113456.08646  22854367.580    22854373.094
  23639006.286    -8911026.66749  -6918236.05945  23639006.047    23639012.875
  24042754.136    -5168128.15249  -4007370.74045  24042753.678    24042757.536
  22065138.162     4646787.65149   3631467.71646  22065137.413    22065142.047
  20239416.801   -27389222.91749 -21284758.20248  20239416.274    20239417.833
  24333530.695    -3635343.26449  -2823440.40445  24333530.527    24333535.066
  23436699.884    14168642.09949  11044230.27346  23436699.180    23436703.368
 03  4  9  1 36  0.0000000  0  9G18G31G 3G25G11G15G14G 9G23
  22971190.353    12265948.96849   9667837.89446  22971189.896    22971192.679
  22610095.979    -9964846.19249  -7468677.01746  22610095.456    22610099.960
  22868124.058    -6515132.34149  -5057127.56246  22868123.657    22868129.190
  23620439.339    -9008596.04749  -6994263.96145  23620439.120    23620445.871
  24024226.813    -5265489.45149  -4083236.62345  24024226.434    24024230.257
  22081608.306     4733338.55049   3698909.91346  22081607.541    22081612.205
  20242039.406   -27375440.90749 -21274018.96348  20242038.858    20242040.474
  24346892.502    -3565126.21849  -2768725.81745  24346892.217    24346896.753
  23447650.401    14226187.46249  11089070.80946  23447649.661    23447653.972
 03  4  9  1 36 30.0000000  0  9G18G31G 3G25G11G15G14G 9G23
  22983834.528    12332394.59249   9719613.69046  22983834.053    22983836.885
  22617314.973    -9926910.49149  -7439116.76646  22617314.419    22617318.959
  22881931.623    -6442573.33749  -5000588.15646  22881931.229    22881936.818
  23601885.808    -9106094.78149  -7070236.79845  23601885.555    23601892.277
  24005722.603    -5362728.71549  -4159007.40445  24005722.265    24005726.109
  22098141.760     4820222.37749   3766611.53746  22098141.035    22098145.728
  20244753.335   -27361178.85649 -21262905.67048  20244752.819    20244754.450
  24360343.911    -3494438.55249  -2713644.52645  24360343.724    24360348.166
  23458610.636    14283783.89149  11133951.12046  23458609.902    23458614.228
 03  4  9  1 37  0.0000000  0  8G18G31G 3G25G11G15G14G23
  22996496.505    12398933.38849   9771462.06646  22996495.987    22996498.820
  22624625.123    -9888495.28349  -7409182.87446  22624624.588    22624629.141
  22895790.413    -6369744.81049  -4943838.73246  22895790.074    22895795.666
  23583346.551    -9203518.38649  -7146151.10645  23583346.289    23583352.990
  23987242.416    -5459841.89149  -4234679.95345  23987242.118    23987245.994
  22114738.749     4907439.61749   3834572.95846  22114737.995    22114742.677
  20247558.761   -27346436.27749 -21251417.94748  20247558.247    20247559.854
  23469581.065    14341433.43749  11178872.82146  23469580.258    23469584.534
 03  4  9  1 37 30.0000000  0  8G18G31G 3G25G11G15G14G23
  23009176.052    12465564.80349   9823382.63346  23009175.489    23009178.394
  22632026.047    -9849603.24549  -7378877.43646  22632025.514    22632030.053
  22909699.905    -6296650.01249  -4886881.82246  22909699.575    22909705.161
  23564822.009    -9300864.83249  -7222005.27245  23564821.813    23564828.382
  23968786.656    -5556827.44049  -4310253.05045  23968786.264    23968790.017
  22131398.724     4994988.11349   3902792.50346  22131397.981    22131402.652
  20250455.184   -27331215.44649 -21239557.55148  20250454.662    20250456.268
  23480561.473    14399135.88249  11223835.76046  23480560.627    23480565.003
 03  4  9  1 38  0.0000000  0  8G18G31G 3G25G11G15G14G23
  23021872.986    12532287.14249   9875374.04546  23021872.349    23021875.165
  22639517.066    -9810238.10349  -7348203.34546  22639516.529    22639521.083
  22923659.288    -6223293.45049  -4829720.94446  22923658.941    22923664.566
  23546312.404    -9398133.06849  -7297798.48845  23546312.147    23546318.650
  23950355.337    -5653684.64949  -4385726.14145  23950354.865    23950358.567
  22148121.180     5082864.93649   3971267.89846  22148120.425    22148125.138
  20253442.109   -27315519.16649 -21227326.67948  20253441.564    20253443.170
  23491551.618    14456889.88249  11268838.85446  23491550.938    23491555.208
 03  4  9  1 38 30.0000000  0  8G18G31G 3G25G11G15G14G23
  23034587.446    12599101.73849   9927437.34146  23034586.818    23034589.570
  22647097.928    -9770400.51049  -7317161.09946  22647097.371    22647101.958
  22937668.132    -6149676.82449  -4772357.42546  22937667.753    22937673.388
  23527818.277    -9495318.87749  -7373527.47945  23527818.141    23527824.668
  23931948.955    -5750410.16549  -4461096.59545  23931948.547    23931952.336
  22164906.039     5171070.04149   4039999.08746  22164905.325    22164910.069
  20256519.506   -27299347.29649 -21214725.21548  20256518.974    20256520.573
  23502551.937    14514697.07249  11313883.39646  23502551.332    23502555.576
 03  4  9  1 39  0.0000000  0  8G18G31G 3G25G11G15G14G23
  23047319.179    12666007.99749   9979572.07146  23047318.623    23047321.509
  22654768.230    -9730092.94649  -7285752.65646  22654767.691    22654772.273
  22951725.729    -6075803.37249  -4714793.77246  22951725.401    22951731.082
  23509340.350    -9592419.64649  -7449190.22245  23509340.353    23509346.809
  23913567.906    -5847002.32749  -4536363.15345  23913567.632    23913571.422
  22181753.108     5259601.60849   4108984.65846  22181752.392    22181757.115
  20259687.020   -27282701.74049 -21201754.64748  20259686.501    20259688.103
  23513562.325    14572557.26749  11358969.23746  23513561.770    23513566.111
 03  4  9  1 39 30.0000000  0  8G18G31G 3G25G11G15G14G23
  23060068.635    12733006.53549  10031778.70646  23060068.028    23060070.883
  22662527.650    -9689317.09449  -7253979.30846  22662527.069    22662531.689
  22965831.947    -6001675.36349  -4657031.76646  22965831.606    22965837.253
  23490879.419    -9689432.23549  -7524784.25345  23490879.263    23490885.669
  23895212.940    -5943457.92849  -4611523.30345  23895212.638    23895216.467
  22198662.176     5348458.75649   4178223.93446  22198661.426    22198666.140
  20262944.489   -27265583.57449 -21188415.81148  20262943.986    20262945.556
  23524583.122    14630471.38449  11404097.11146  23524582.480    23524586.754
 03  4  9  1 40  0.0000000  0  8G18G31G 3G25G11G15G14G23
  23072835.587    12800097.30449  10084057.19546  23072835.009    23072837.838
  22670375.768    -9648075.08549  -7221842.72246  22670375.216    22670379.816
  22979986.005    -5927295.80349  -4599073.74346  22979985.647    22979991.294
  23472435.756    -9786353.49949  -7600307.11445  23472435.642    23472441.888
  23876884.430    -6039775.15949  -4686575.62545  23876884.126    23876887.853
  22215632.831     5437639.96449   4247715.71746  22215632.118    22215636.817
  20266291.719   -27247994.08449 -21174709.70948  20266291.189    20266292.753
  23535614.232    14688439.83949  11449267.32046  23535613.503    23535617.788
 03  4  9  1 40 30.0000000  0  8G18G31G 3G25G11G15G14G23
  23085619.646    12867277.85049  10136405.65046  23085619.098    23085621.865
  22678311.744    -9606371.42149  -7189346.40746  22678311.202    22678315.825
  22994186.831    -5852669.92549  -4540923.79246  22994186.515    22994192.106
  23454009.470    -9883183.41649  -7675758.81345  23454009.388    23454015.573
  23858582.251    -6135954.08049  -4761520.19545  23858581.838    23858585.540
  22232664.433     5527141.44449   4317457.06546  22232663.737    22232668.451
  20269727.810   -27229937.03949 -21160639.27848  20269727.270    20269728.874
  23546655.167    14746460.26149  11494478.02546  23546654.470    23546658.784
 03  4  9  1 41  0.0000000  0  8G18G31G 3G25G11G15G14G23
  23098421.398    12934551.49949  10188826.65546  23098420.886    23098423.605
  22686335.806    -9564205.20849  -7156489.66746  22686335.247    22686339.860
  23008434.778    -5777797.28849  -4482581.55646  23008434.362    23008439.903
  23435601.889    -9979915.69349  -7751134.43145  23435601.721    23435607.772
  23840307.314    -6231989.27549  -4836352.75045  23840306.899    23840310.586
  22249757.350     5616964.78949   4387449.21346  22249756.594    22249761.325
  20273253.173   -27211411.01449 -21146203.41048  20273252.659    20273254.265
  23557706.471    14804535.99149  11539731.81046  23557705.899    23557710.164
 03  4  9  1 41 30.0000000  0  8G18G31G 3G25G11G15G14G23
  23111240.541    13001916.82249  10241319.10646  23111240.052    23111242.906
  22694447.132    -9521579.61049  -7123274.95946  22694446.582    22694451.246
  23022728.737    -5702681.94749  -4424050.20146  23022728.356    23022734.009
  23417213.147   -10076548.86549  -7826432.81245  23417212.901    23417218.898
  23822059.825    -6327879.59449  -4911072.40545  23822059.412    23822063.060
  22266911.008     5707107.52949   4457690.24146  22266910.219    22266914.980
  20276867.369   -27192418.39649 -21131403.95948  20276866.847    20276868.437
  23568768.374    14862666.42749  11585028.24146  23568767.732    23568772.067
 03  4  9  1 42  0.0000000  0  8G18G31G 3G25G11G15G14G23
  23124077.087    13069373.06049  10293882.38146  23124076.535    23124079.330
  22702645.397    -9478497.77149  -7089704.75046  22702644.816    22702649.475
  23037068.177    -5627327.86549  -4365332.81946  23037067.789    23037073.504
  23398843.574   -10173081.09149  -7901652.55646  23398843.318    23398849.259
  23803840.153    -6423623.72149  -4985678.14545  23803839.805    23803843.516
  22284124.967     5797567.43749   4528178.41446  22284124.202    22284129.003
  20280569.815   -27172961.90249 -21116243.04848  20280569.284    20280570.881
  23579840.505    14920850.91549  11630366.78746  23579839.837    23579844.250
 03  4  9  1 42 30.0000000  0  8G18G31G 3G25G11G15G14G23
  23136931.036    13136921.29549  10346517.34146  23136930.516    23136933.341
  22710930.235    -9434960.87749  -7055779.93846  22710929.640    22710934.331
  23051452.730    -5551736.86949  -4306430.81746  23051452.352    23051458.092
  23380493.915   -10269508.30549  -7976790.46046  23380493.632    23380499.599
  23785649.047    -6519218.58249  -5060167.58345  23785648.747    23785652.324
  22301399.197     5888344.18649   4598913.48546  22301398.443    22301403.334
  20284360.489   -27153041.71749 -21100720.81848  20284359.960    20284361.563
  23590923.190    14979090.66649  11675748.40546  23590922.584    23590926.855
 03  4  9  1 43  0.0000000  0  8G18G31G 3G25G11G15G14G23
  23149802.552    13204560.75749  10399223.40046  23149801.985    23149804.739
  22719301.019    -9390972.06749  -7021502.99346  22719300.486    22719305.205
  23065881.599    -5475912.62149  -4247347.08346  23065881.252    23065886.971
  23362164.640   -10365828.63049  -8051845.07446  23362164.321    23362170.287
  23767486.663    -6614662.60449  -5134539.47445  23767486.302    23767489.924
  22318733.275     5979435.19749   4669893.42646  22318732.533    22318737.441
  20288238.948   -27132660.20049 -21084839.11248  20288238.425    20288240.031
  23602016.437    15037385.29149  11721172.76146  23602015.814    23602019.968
 03  4  9  1 43 30.0000000  0  8G18G31G 3G25G11G15G14G23
  23162691.159    13272291.37349  10452000.48546  23162690.633    23162693.409
  22727757.498    -9346533.26749  -6986875.41246  22727756.971    22727761.673
  23080354.424    -5399857.93149  -4188083.76946  23080354.054    23080359.816
  23343856.273   -10462038.82649  -8126813.88146  23343855.975    23343861.973
  23749353.559    -6709953.32049  -5208791.93245  23749353.175    23749356.768
  22336127.009     6070839.36849   4741117.37646  22336126.241    22336131.150
  20292204.925   -27111818.73449 -21068599.00648  20292204.429    20292206.030
  23613120.199    15095735.30049  11766640.28845  23613119.487    23613123.611
 03  4  9  1 44  0.0000000  0  8G18G31G 3G25G11G15G14G23
  23175597.220    13340113.01049  10504848.48846  23175596.688    23175599.483
  22736299.088    -9301646.99049  -6951899.14446  22736298.518    22736303.300
  23094870.555    -5323575.72149  -4128643.18146  23094870.134    23094876.008
  23325569.393   -10558136.45049  -8201694.98046  23325569.085    23325575.060
  23731249.810    -6805088.61449  -5282923.27845  23731249.498    23731253.043
  22353579.964     6162554.97449   4812584.02146  22353579.189    22353584.111
  20296258.158   -27090518.99449 -21052001.80448  20296257.633    20296259.209
  23624234.221    15154140.71049  11812150.97845  23624233.604    23624237.844
 03  4  9  1 44 30.0000000  0  8G18G31G 3G25G11G15G14G23
  23188520.996    13408027.76949  10557769.06146  23188520.472    23188523.220
  22744925.814    -9256313.50549  -6916574.39546  22744925.265    22744930.029
  23109429.858    -5247066.94849  -4069026.03846  23109429.434    23109435.206
  23307304.802   -10654116.71549  -8276484.63346  23307304.519    23307310.483
  23713176.412    -6900064.01249  -5356930.01245  23713176.159    23713179.771
  22371092.213     6254582.55449   4884293.76146  22371091.486    22371096.446
  20300398.662   -27068760.55049 -21035047.16848  20300398.117    20300399.691
  23635359.445    15212604.03849  11857706.78845  23635358.802    23635362.982
 03  4  9  1 45  0.0000000  0  8G18G31G 3G25G11G15G14G23
  23201461.867    13476032.25149  10610759.54846  23201461.373    23201464.067
  22753636.565    -9210538.61249  -6880905.70146  22753635.996    22753640.803
  23124030.971    -5170338.05849  -4009237.36946  23124030.546    23124036.361
  23289062.431   -10749980.32949  -8351183.39846  23289062.148    23289068.086
  23695133.239    -6994881.18349  -5430813.45345  23695133.060    23695136.608
  22388662.982     6346916.85249   4956242.49646  22388662.182    22388667.153
  20304625.444   -27046548.52649 -21017739.09548  20304624.911    20304626.495
  23646495.089    15271122.05149  11903305.22545  23646494.492    23646498.681
 03  4  9  1 45 30.0000000  0  8G18G31G 3G25G11G15G14G23
  23214419.876    13544127.49449  10663820.76246  23214419.402    23214422.124
  22762431.014    -9164323.36949  -6844893.87846  22762430.467    22762435.255
  23138673.648    -5093390.48449  -3949278.31346  23138673.220    23138679.112
  23270843.104   -10845722.82149  -8425787.78246  23270842.851    23270848.683
  23677121.082    -7089536.25349  -5504570.60145  23677120.831    23677124.311
  22406291.996     6439557.65949   5028430.07146  22406291.167    22406296.120
  20308938.516   -27023883.07549 -21000077.70548  20308937.985    20308939.567
  23657641.422    15329696.31049  11948947.47045  23657640.796    23657644.962
 03  4  9  1 46  0.0000000  0  8G18G31G 3G25G11G15G14G23
  23227395.485    13612314.59049  10716953.53046  23227395.049    23227397.724
  22771309.162    -9117668.91749  -6808539.81646  22771308.571    22771313.375
  23153357.572    -5016226.12549  -3889150.33346  23153357.214    23153363.092
  23252647.607   -10941340.24949  -8500294.71846  23252647.277    23252653.074
  23659140.384    -7184025.85349  -5578198.79546  23659139.988    23659143.472
  22423979.281     6532504.63049   5100856.22046  22423978.452    22423983.406
  20313337.796   -27000764.78449 -20982063.44748  20313337.249    20313338.841
  23668798.708    15388328.36949  11994634.77845  23668798.112    23668802.271
 03  4  9  1 46 30.0000000  0  8G18G31G 3G25G11G15G14G23
  23240388.375    13680592.12549  10770156.78046  23240387.825    23240390.627
  22780270.016    -9070579.23749  -6771846.61146  22780269.438    22780274.232
  23168081.897    -4938849.52049  -3828856.96946  23168081.491    23168087.414
  23234476.126   -11036831.55049  -8574703.38446  23234475.817    23234481.490
  23641191.124    -7278349.53149  -5651697.71546  23641190.694    23641194.221
  22441724.194     6625754.64949   5173518.51646  22441723.408    22441728.394
  20317822.562   -26977196.97349 -20963698.91848  20317822.035    20317823.641
  23679966.785    15447016.98549  12040366.13945  23679966.191    23679970.257
 03  4  9  1 47  0.0000000  0  8G18G31G 3G25G11G15G14G23
  23253398.855    13748962.75849  10823432.58246  23253398.287    23253401.153
  22789313.770    -9023054.14649  -6734814.12746  22789313.187    22789318.004
  23182846.555    -4861261.01449  -3768398.47746  23182846.150    23182852.100
  23216329.639   -11132191.56349  -8649009.75446  23216329.300    23216334.913
  23623274.347    -7372502.20649  -5725063.36845  23623273.928    23623277.530
  22459526.950     6719308.59649   5246417.63346  22459526.164    22459531.193
  20322393.115   -26953178.56949 -20944983.27648  20322392.590    20322394.209
  23691146.060    15505764.98249  12086143.78245  23691145.541    23691149.771
 03  4  9  1 47 30.0000000  0  8G18G31G 3G25G11G15G14G23
  23266426.220    13817421.90049  10876777.35246  23266425.689    23266428.568
  22798439.137    -8975100.29049  -6697447.53246  22798438.609    22798443.402
  23197650.221    -4783467.87649  -3707780.54346  23197649.761    23197655.740
  23198207.790   -11227421.64949  -8723214.86846  23198207.485    23198213.073
  23605389.637    -7466485.99349  -5798297.42345  23605389.259    23605392.930
  22477386.413     6813160.66849   5319549.07746  22477385.620    22477390.717
  20327048.358   -26928715.29949 -20925920.98848  20327047.798    20327049.418
  23702335.992    15564568.26549  12131964.50345  23702335.485    23702339.647
 03  4  9  1 48  0.0000000  0  8G18G31G 3G25G11G15G14G23
  23279471.141    13885973.23949  10930193.96046  23279470.548    23279473.446
  22807646.256    -8926716.70949  -6659746.10146  22807645.715    22807650.481
  23212492.872    -4705469.59149  -3647002.74546  23212492.416    23212498.429
  23180111.882   -11322515.32349  -8797313.69846  23180111.663    23180117.222
  23587538.329    -7560295.10349  -5871395.37645  23587537.897    23587541.619
  22495303.093     6907312.91749   5392914.38946  22495302.286    22495307.318
  20331788.487   -26903805.65849 -20906510.87948  20331787.946    20331789.583
  23713537.207    15623430.71949  12177831.32045  23713536.660    23713540.864
 03  4  9  1 48 30.0000000  0  8G18G31G 3G25G11G15G14G23
  23292533.582    13954616.71449  10983682.35546  23292533.005    23292535.874
  22816934.650    -8877905.81949  -6621711.69146  22816934.145    22816938.927
  23227373.973    -4627269.16249  -3586067.43746  23227373.544    23227379.615
  23162042.532   -11417470.10149  -8871304.28746  23162042.222    23162047.845
  23569720.704    -7653927.49649  -5944355.63545  23569720.292    23569723.946
  22513276.434     7001763.46449   5466512.14946  22513275.673    22513280.741
  20336613.264   -26878451.31449 -20886754.24748  20336612.706    20336614.338
  23724749.706    15682352.55749  12223744.42445  23724749.128    23724753.344
 03  4  9  1 49  0.0000000  0  8G18G31G 3G25G11G15G14G23
  23305613.000    14023349.37549  11037240.25546  23305612.381    23305615.302
  22826303.412    -8828672.83149  -6583348.37646  22826302.899    22826307.702
  23242292.470    -4548872.44149  -3524979.17346  23242292.036    23242298.062
  23143999.505   -11512286.20049  -8945186.81146  23143999.173    23144004.814
  23551936.564    -7747383.56649  -6017178.49145  23551936.204    23551939.772
  22531305.610     7096507.60849   5540338.70546  22531304.882    22531309.985
  20341521.833   -26852656.63249 -20866654.49548  20341521.278    20341522.906
  23735972.864    15741331.22249  12269701.80545  23735972.318    23735976.616
 03  4  9  1 49 30.0000000  0  8G18G31G 3G25G11G15G14G23
  23318709.779    14092173.86949  11090869.69846  23318709.233    23318712.165
  22835752.512    -8779017.69949  -6544656.11946  22835752.017    22835756.797
  23257248.234    -4470279.58049  -3463738.06546  23257247.792    23257253.886
  23125984.035   -11606957.65049  -9018956.62146  23125983.725    23125989.303
  23534186.874    -7840658.45349  -6089860.16945  23534186.522    23534190.018
  22549390.940     7191546.38249   5614394.82846  22549390.192    22549395.353
  20346514.305   -26826420.78349 -20846210.97948  20346513.772    20346515.402
  23747207.635    15800369.68249  12315705.77645  23747206.991    23747211.337
 03  4  9  1 50  0.0000000  0  8G18G31G 3G25G11G15G14G23
  23331824.132    14161090.11749  11144570.65246  23331823.545    23331826.520
  22845281.508    -8728942.85549  -6505636.80846  22845281.011    22845285.744
  23272240.736    -4391493.60349  -3402346.48846  23272240.313    23272246.439
  23107996.598   -11701481.89749  -9092611.73446  23107996.217    23108001.758
  23516472.192    -7933749.86449  -6162398.88745  23516471.755    23516475.217
  22567532.094     7286878.22649   5688679.32446  22567531.283    22567536.450
  20351590.434   -26799745.58449 -20825425.11048  20351589.898    20351591.523
  23758453.691    15859468.45849  12361756.73145  23758453.125    23758457.509
 03  4  9  1 50 30.0000000  0  8G18G31G 3G25G11G15G14G23
  23344955.549    14230096.34949  11198341.72146  23344954.984    23344957.923
  22854889.450    -8678452.69149  -6466293.87046  22854888.960    22854893.739
  23287268.994    -4312519.32049  -3340808.17546  23287268.619    23287274.807
  23090037.283   -11795858.20849  -9166151.57046  23090036.881    23090042.358
  23498792.531    -8026657.14449  -6234794.11345  23498792.055    23498795.476
  22585728.297     7382499.70049   5763189.50946  22585727.506    22585732.676
  20356749.472   -26772634.57349 -20804299.64948  20356748.936    20356750.583
  23769711.008    15918625.79249  12407853.33445  23769710.442    23769714.800
 03  4  9  1 51  0.0000000  0  8G18G31G 3G25G11G15G14G23
  23358104.481    14299194.36349  11252184.30146  23358104.010    23358106.893
  22864576.461    -8627547.84349  -6426627.80346  22864575.884    22864580.618
  23302332.935    -4233358.04149  -3279124.15146  23302332.571    23302338.808
  23072107.043   -11890081.85549  -9239572.43646  23072106.623    23072112.083
  23481148.531    -8119376.67749  -6307043.04546  23481148.089    23481151.517
  22603979.621     7478411.03449   5837925.53946  22603978.861    22603984.040
  20361991.469   -26745087.62249 -20782834.49348  20361990.917    20361992.576
  23780979.883    15977843.82049  12453997.22245  23780979.371    23780983.571
 03  4  9  1 51 30.0000000  0  8G18G31G 3G25G11G15G14G23
  23371270.793    14368382.80149  11306097.34145  23371270.216    23371273.129
  22874341.556    -8576232.15149  -6386641.59846  22874341.033    22874345.749
  23317431.768    -4154013.72749  -3217297.50346  23317431.378    23317437.552
  23054206.184   -11984151.04549  -9312872.95346  23054205.755    23054211.155
  23463540.456    -8211907.22549  -6379144.70246  23463540.019    23463543.498
  22622285.687     7574609.24749   5912885.13246  22622284.818    22622290.038
  20367315.829   -26717107.78449 -20761032.02048  20367315.281    20367316.970
  23792260.103    16037121.85649  12500187.88445  23792259.591    23792263.827
 03  4  9  1 52  0.0000000  0  8G18G31G 3G25G11G15G14G23
  23384454.034    14437661.50449  11360080.73545  23384453.440    23384456.420
  22884184.338    -8524508.03749  -6346337.14846  22884183.819    22884188.621
  23332564.829    -4074489.53349  -3155330.68746  23332564.432    23332570.555
  23036335.170   -12078063.08049  -9386051.02046  23036334.748    23036340.126
  23445968.948    -8304246.36849  -6451097.22646  23445968.424    23445971.885
  22640645.826     7671092.71149   5988066.99246  22640645.028    22640650.268
  20372722.273   -26688696.65549 -20738893.48248  20372721.748    20372723.449
  23803551.776    16096459.97149  12546425.35245  23803551.255    23803555.587
 03  4  9  1 52 30.0000000  0  8G18G31G 3G25G11G15G14G23
  23397654.762    14507031.95749  11414135.60845  23397654.181    23397657.170
  22894104.568    -8472376.88649  -6305715.51946  22894104.021    22894108.851
  23347731.733    -3994787.14049  -3093225.00946  23347731.342    23347737.478
  23018494.767   -12171814.31249  -9459103.77346  23018494.358    23018499.716
  23428434.448    -8396390.67149  -6522897.91745  23428433.933    23428437.281
  22659060.249     7767860.81849   6063470.65146  22659059.450    22659064.728
  20378210.672   -26659854.96549 -20716419.43448  20378210.139    20378211.826
  23814855.035    16155859.70849  12592710.84145  23814854.639    23814859.061
 03  4  9  1 53  0.0000000  0  8G18G31G 3G25G11G15G14G23
  23410872.950    14576493.64449  11468261.56545  23410872.340    23410875.331
  22904101.788    -8419841.81049  -6264779.14846  22904101.211    22904106.017
  23362931.886    -3914909.98949  -3030983.17646  23362931.488    23362937.692
  23000685.479   -12265402.07749  -9532029.14946  23000685.057    23000690.346
  23410937.295    -8488338.34149  -6594545.38545  23410936.856    23410940.166
  22677528.457     7864911.33849   6139094.36646  22677527.604    22677532.838
  20383780.558   -26630584.96949 -20693611.64148  20383780.003    20383781.709
  23826170.303    16215320.76249  12639044.10945  23826169.696    23826174.145
 03  4  9  1 53 30.0000000  0  8G18G31G 3G25G11G15G14G23
  23424108.391    14646046.37849  11522458.47845  23424107.897    23424110.830
  22914175.236    -8366905.34049  -6223530.01046  22914174.697    22914179.575
  23378164.855    -3834860.90949  -2968607.36346  23378164.363    23378170.694
  22982907.919   -12358823.55549  -9604824.96446  22982907.444    22982912.699
  23393478.041    -8580086.95949  -6666037.75845  23393477.623    23393480.830
  22696050.114     7962242.67849   6214936.89746  22696049.212    22696054.470
  20389431.597   -26600888.51149 -20670471.54148  20389431.051    20389432.782
  23837497.020    16274843.70349  12685425.60245  23837496.495    23837501.029
 03  4  9  1 54  0.0000000  0  8G18G31G 3G25G11G15G14G23
  23437360.868    14715688.71449  11576725.22245  23437360.422    23437363.328
  22924324.333    -8313571.45349  -6181971.19546  22924323.831    22924328.670
  23393429.658    -3754644.31849  -2906101.03446  23393429.196    23393435.567
  22965162.262   -12452077.27349  -9677490.06846  22965161.819    22965166.907
  23376056.762    -8671635.82149  -6737374.47046  23376056.353    23376059.608
  22714624.469     8059851.63049   6290995.76046  22714623.643    22714628.887
  20395163.234   -26570768.46949 -20647001.37348  20395162.673    20395164.408
  23848835.492    16334427.45549  12731854.47145  23848834.895    23848839.351
 03  4  9  1 54 30.0000000  0  8G18G31G 3G25G11G15G14G23
  23450631.197    14785424.23249  11631064.55945  23450630.627    23450633.527
  22934549.245    -8259839.44949  -6140102.15246  22934548.702    22934553.657
  23408726.367    -3674260.24849  -2843464.19846  23408725.886    23408732.208
  22947449.619   -12545157.35349  -9750019.86046  22947449.172    22947454.155
  23358674.685    -8762979.17749  -6808551.02946  23358674.297    23358677.584
  22733251.957     8157739.77749   6367272.16946  22733251.208    22733256.438
  20400975.723   -26540223.61049 -20623200.18048  20400975.179    20400976.891
  23860186.105    16394075.52349  12778333.47045  23860185.518    23860190.001
 03  4  9  1 55  0.0000000  0  8G18G31G 3G25G11G15G14G23
  23463918.205    14855248.53449  11685473.08645  23463917.657    23463920.710
  22944848.510    -8205716.34149  -6097928.35746  22944848.022    22944852.928
  23424053.487    -3593715.78049  -2780702.36346  23424053.016    23424059.379
  22929769.549   -12638065.51549  -9822415.69446  22929769.221    22929774.163
  23341331.317    -8854119.08249  -6879569.07246  23341330.953    23341334.188
  22751931.502     8255901.07549   6443761.43446  22751930.746    22751935.996
  20406867.900   -26509260.05449 -20599072.72948  20406867.350    20406869.072
  23871548.138    16453783.93249  12824859.48945  23871547.582    23871552.136
 03  4  9  1 55 30.0000000  0  8G18G31G 3G25G11G15G14G23
  23477222.983    14925165.57549  11739953.88945  23477222.468    23477225.526
  22955222.687    -8151200.49249  -6055448.53946  22955222.111    22955226.988
  23439411.446    -3513009.62349  -2717814.56846  23439410.953    23439417.311
  22912123.690   -12730794.49149  -9894671.89746  22912123.328    22912128.335
  23324027.860    -8945049.09249  -6950423.54846  23324027.512    23324030.677
  22770663.526     8354337.94649   6520465.41846  22770662.688    22770667.979
  20412840.196   -26477875.40849 -20574617.15648  20412839.665    20412841.390
  23882922.669    16513557.22549  12871436.05745  23882922.097    23882926.657
 03  4  9  1 56  0.0000000  0  8G18G31G 3G25G11G15G14G23
  23490544.676    14995171.72349  11794504.10745  23490544.174    23490547.242
  22965670.154    -8096298.42049  -6012667.75646  22965669.617    22965674.554
  23454798.792    -3432148.69649  -2654806.14346  23454798.371    23454804.746
  22894511.618   -12823345.35349  -9966789.31746  22894511.310    22894516.373
  23306764.089    -9035770.49649  -7021115.48446  23306763.733    23306766.924
  22789446.752     8453044.53249   6597379.57046  22789445.975    22789451.291
  20418891.527   -26446075.44149 -20549837.95948  20418890.966    20418892.700
  23894308.800    16573391.80549  12918060.40945  23894308.175    23894312.872
 03  4  9  1 56 30.0000000  0  8G18G31G 3G25G11G15G14G23
  23503884.159    15065270.45949  11849126.48145  23503883.570    23503886.581
  22976191.459    -8041009.43749  -5969585.49946  22976190.864    22976195.741
  23470215.781    -3351132.34749  -2591676.64146  23470215.348    23470221.716
  22876934.719   -12915712.28449 -10038763.40946  22876934.398    22876939.415
  23289541.115    -9126277.85149  -7091640.62946  23289540.737    23289543.865
  22808281.741     8552022.64249   6674505.29046  22808280.936    22808286.289
  20425022.183   -26413858.63949 -20524733.96448  20425021.622    20425023.354
  23905707.298    16633291.45849  12964735.43845  23905706.773    23905711.483
 03  4  9  1 57  0.0000000  0  8G18G31G 3G25G11G15G14G23
  23517240.705    15135459.37049  11903819.11745  23517240.184    23517243.106
  22986785.267    -7985338.42449  -5926205.54746  22986784.700    22986789.661
  23485661.306    -3269965.98049  -2528430.23946  23485660.895    23485667.273
  22859393.021   -13007894.56849 -10110593.63446  22859392.612    22859397.584
  23272358.768    -9216571.16749  -7161998.99346  23272358.412    23272361.534
  22827167.632     8651268.15849   6751839.39846  22827166.771    22827172.106
  20431231.408   -26381228.88849 -20499308.18148  20431230.863    20431232.582
  23917117.992    16693254.16849  13011459.61845  23917117.334    23917121.980
 03  4  9  1 57 30.0000000  0  8G18G31G 3G25G11G15G14G23
  23530614.634    15205740.09649  11958583.28645  23530614.095    23530617.187
  22997451.679    -7929286.33449  -5882528.64646  22997451.135    22997456.157
  23501135.171    -3188650.94249  -2465067.98346  23501134.723    23501141.168
  22841887.223   -13099887.81349 -10182276.54146  22841886.741    22841891.709
  23255217.951    -9306646.31449  -7232187.36046  23255217.598    23255220.741
  22846104.281     8750781.07049   6829381.86446  22846103.512    22846108.853
  20437519.195   -26348186.46149 -20473560.83848  20437518.670    20437520.368
  23928540.706    16753282.01249  13058234.54045  23928540.186    23928545.048
 03  4  9  1 58  0.0000000  0  8G18G31G 3G25G11G15G14G23
  23544005.849    15276110.78149  12013417.59145  23544005.214    23544008.363
  23008189.671    -7872857.95949  -5838558.54846  23008189.142    23008194.184
  23516636.282    -3107192.23749  -2401593.77046  23516635.882    23516642.344
  22824417.453   -13191691.17749 -10253811.50846  22824417.045    22824421.944
  23238118.694    -9396503.11949  -7302205.59346  23238118.315    23238121.432
  22865091.268     8850557.62249   6907129.74746  22865090.407    22865095.767
  20443884.749   -26314735.32549 -20447495.01648  20443884.194    20443885.900
  23939976.044    16813373.32449  13105058.93545  23939975.410    23939980.020
 03  4  9  1 58 30.0000000  0  8G18G31G 3G25G11G15G14G23
  23557414.308    15346573.23049  12068323.37145  23557413.782    23557416.935
  23018999.261    -7816053.92449  -5794295.72146  23018998.659    23019003.726
  23532164.671    -3025590.71249  -2338008.26746  23532164.251    23532170.696
  22806984.674   -13283299.72049 -10325194.64846  22806984.374    22806989.229
  23221061.871    -9486136.63849  -7372049.82746  23221061.543    23221064.728
  22884128.391     8950597.91249   6985083.15146  22884127.558    22884132.868
  20450328.064   -26280875.37049 -20421110.63348  20450327.523    20450329.209
  23951423.380    16873530.41849  13151934.56745  23951422.825    23951427.560
 03  4  9  1 59  0.0000000  0  8G18G31G 3G25G11G15G14G23
  23570840.444    15417126.56049  12123299.98145  23570839.817    23570842.756
  23029879.497    -7758877.78449  -5749742.94846  23029878.906    23029884.065
  23547719.466    -2943850.12749  -2274314.42345  23547719.123    23547725.490
  22789589.487   -13374711.23549 -10396424.28946  22789589.286    22789594.118
  23204047.863    -9575546.14049  -7441719.51846  23204047.473    23204050.598
  22903215.035     9050899.34349   7063240.04246  22903214.344    22903219.667
  20456848.722   -26246609.24249 -20394409.75848  20456848.169    20456849.844
  23962883.455    16933752.66849  13198860.98545  23962882.891    23962887.372
 03  4  9  1 59 30.0000000  0  8G18G31G 3G25G11G15G14G23
  23584283.703    15487772.07749  12178348.41045  23584283.180    23584286.176
  23040830.330    -7701331.20549  -5704901.52346  23040829.735    23040834.832
  23563300.393    -2861972.52349  -2210513.79345  23563299.977    23563306.362
  22772232.450   -13465922.67449 -10467497.99746  22772232.192    22772237.028
  23187077.069    -9664727.84949  -7511211.70746  23187076.721    23187079.872
  22922351.464     9151461.35149   7141599.98946  22922350.647    22922356.041
  20463446.475   -26211937.72149 -20367392.98948  20463445.941    20463447.630
  23974356.096    16994041.60049  13245839.37045  23974355.489    23974359.878
 03  4  9  2  0  0.0000000  0  8G18G31G 3G25G11G15G14G23
  23597744.097    15558506.40149  12233466.04445  23597743.522    23597746.483
  23051850.399    -7643420.30749  -5659776.19346  23051849.816    23051854.983
  23578906.008    -2779964.42849  -2146611.49645  23578905.643    23578912.057
  22754913.389   -13556934.52949 -10538416.20346  22754913.172    22754917.953
  23170149.406    -9753683.10649  -7580527.43046  23170148.990    23170152.235
  22941536.431     9252278.38649   7220158.65646  22941535.575    22941540.955
  20470120.350   -26176866.21949 -20340064.54448  20470119.811    20470121.517
  23985840.770    17054394.03249  13292867.21545  23985840.228    23985844.655
 03  4  9  2  0 30.0000000  0  8G18G31G 3G25G11G15G14G23
  23611221.852    15629332.68049  12288655.33045  23611221.341    23611224.248
  23062939.915    -7585144.71349  -5614366.71146  23062939.369    23062944.575
  23594536.747    -2697825.46749  -2082607.22845  23594536.293    23594542.786
  22737633.421   -13647740.68849 -10609174.12446  22737633.224    22737637.998
  23153265.922    -9842406.33349  -7649662.35246  23153265.498    23153268.727
  22960770.120     9353351.94049   7298917.19346  22960769.260    22960774.676
  20476870.612   -26141393.33049 -20312423.33248  20476870.068    20476871.781
  23997338.279    17114813.55449  13339947.35545  23997337.679    23997342.091
 03  4  9  2  1  0.0000000  0  8G18G31G 3G25G11G15G14G23
  23624717.292    15700251.95449  12343917.07245  23624716.768    23624719.707
  23074098.555    -7526505.88149  -5568674.17646  23074098.004    23074103.216
  23610191.742    -2615557.57949  -2018502.48745  23610191.344    23610197.930
  22720393.322   -13738337.05149 -10679768.55546  22720393.199    22720397.932
  23136427.326    -9930893.81249  -7718613.61246  23136426.845    23136430.039
  22980052.437     9454681.31649   7377875.10946  22980051.652    22980057.048
  20483697.175   -26105519.72749 -20284469.87448  20483696.612    20483698.310
  24008848.826    17175301.83249  13387081.08045  24008848.290    24008852.670
 03  4  9  2  1 30.0000000  0  8G18G31G 3G25G11G15G14G23
  23638230.041    15771261.68549  12399249.30745  23638229.435    23638232.320
  23085325.263    -7467509.18349  -5522702.77946  23085324.722    23085329.939
  23625870.414    -2533165.99849  -1954301.38845  23625870.050    23625876.684
  22703193.317   -13828723.49749 -10750199.42946  22703193.147    22703197.847
  23119633.405   -10019145.89549  -7787381.41246  23119632.961    23119636.195
  22999382.655     9556262.10249   7457028.87946  22999381.879    22999387.318
  20490599.080   -26069250.15949 -20256207.87248  20490598.524    20490600.181
  24020372.132    17235856.57049  13434266.56645  24020371.413    24020375.881
 03  4  9  2  2  0.0000000  0  8G18G31G 3G25G11G15G14G23
  23651759.954    15842362.33549  12454652.38245  23651759.437    23651762.292
  23096619.667    -7408157.09149  -5476454.46346  23096619.123    23096624.390
  23641572.280    -2450653.47749  -1890006.02845  23641571.801    23641578.423
  22686033.923   -13918897.01049 -10820464.37546  22686033.606    22686038.253
  23102884.837   -10107159.72849  -7855963.56746  23102884.466    23102887.689
  23018760.479     9658092.76149   7536377.39746  23018759.604    23018765.083
  20497576.024   -26032586.09749 -20227638.47548  20497575.444    20497577.102
  24031908.083    17296478.41849  13481504.35645  24031907.367    24031911.824
 03  4  9  2  2 30.0000000  0  8G18G31G 3G25G11G15G14G23
  23665307.452    15913555.05849  12510127.21345  23665306.948    23665309.849
  23107981.351    -7348451.17149  -5429930.42846  23107980.768    23107986.098
  23657296.663    -2368021.52549  -1825617.61245  23657296.224    23657302.886
  22668915.637   -14008853.59349 -10890560.28946  22668915.317    22668919.941
  23086182.412   -10194931.73849  -7924357.28346  23086181.999    23086185.167
  23038185.742     9760172.72949   7615920.13846  23038184.796    23038190.367
  20504627.913   -25995528.14549 -20198762.14948  20504627.342    20504629.044
  24043457.096    17357169.00049  13528795.69145  24043456.401    24043460.821
 03  4  9  2  3  0.0000000  0  8G18G31G 3G25G11G15G14G23
  23678872.052    15984837.33349  12565671.82045  23678871.558    23678874.424
  23119409.413    -7288396.74349  -5383134.84046  23119408.817    23119414.108
  23673042.601    -2285276.01849  -1761140.71045  23673042.204    23673048.853
  22651838.552   -14098593.45349 -10960487.34146  22651838.319    22651842.889
  23069525.781   -10282462.38349  -7992562.93046  23069525.390    23069528.573
  23057657.617     9862497.43849   7695653.63046  23057656.666    23057662.110
  20511753.844   -25958080.89849 -20169582.47848  20511753.269    20511755.000
  24055018.754    17417925.93249  13576138.75045  24055017.978    24055022.498
 03  4  9  2  3 30.0000000  0  8G18G31G 3G25G11G15G14G23
  23692454.000    16056211.13349  12621287.75045  23692453.555    23692456.465
  23130903.558    -7227994.65849  -5336068.34346  23130902.999    23130908.350
  23688810.142    -2202417.66849  -1696575.88445  23688809.718    23688816.398
  22634803.668   -14188111.52249 -11030241.55546  22634803.482    22634808.030
  23052915.985   -10369747.33449  -8060577.13346  23052915.629    23052918.732
  23077175.914     9965067.16349   7775578.02046  23077175.054    23077180.558
  20518953.947   -25920244.24449 -20140099.36648  20518953.374    20518955.061
  24066593.456    17478751.58749  13623535.34645  24066592.754    24066597.270
 03  4  9  2  4  0.0000000  0  8G18G31G 3G25G11G15G14G23
  23706053.539    16127677.11649  12676975.51245  23706053.081    23706056.026
  23142463.513    -7167247.04749  -5288732.60046  23142462.986    23142468.293
  23704598.684    -2119448.85149  -1631924.96845  23704598.328    23704604.994
  22617811.778   -14277404.24149 -11099820.18446  22617811.575    22617816.098
  23036353.505   -10456783.48249  -8128397.45146  23036353.125    23036356.220
  23096740.689    10067880.70849   7855692.40146  23096739.869    23096745.403
  20526227.863   -25882019.70249 -20110314.00848  20526227.289    20526228.990
  24078181.470    17539646.99549  13670986.29745  24078180.862    24078185.332
 03  4  9  2  4 30.0000000  0  8G18G31G 3G25G11G15G14G23
  23719670.492    16199234.12449  12732734.20445  23719669.924    23719672.932
  23154088.515    -7106157.75149  -5241130.62346  23154087.938    23154093.214
  23720407.170    -2036373.87949  -1567191.35045  23720406.964    23720413.779
  22600862.999   -14366469.98649 -11169221.94546  22600862.808    22600867.350
  23019838.549   -10543569.71849  -8196023.03846  23019838.188    23019841.321
  23116351.294    10170934.97249   7935994.36946  23116350.483    23116356.017
  20533574.949   -25843410.21649 -20080228.69948  20533574.382    20533576.096
  24089782.629    17600611.37749  13718490.99345  24089781.992    24089786.470
 03  4  9  2  5  0.0000000  0  8G18G31G 3G25G11G15G14G23
  23733304.681    16270882.08549  12788563.75945  23733304.076    23733307.157
  23165777.847    -7044729.89349  -5193264.81746  23165777.256    23165782.584
  23736235.701    -1953195.59949  -1502377.22245  23736235.416    23736242.279
  22583957.940   -14455306.29649 -11238444.94446  22583957.711    22583962.219
  23003371.662   -10630103.53349  -8263451.91946  23003371.307    23003374.438
  23136007.280    10274227.92349   8016482.30646  23136006.546    23136012.091
  20540994.967   -25804417.72949 -20049844.94848  20540994.395    20540996.134
  24101396.955    17661645.00149  13766049.64645  24101396.290    24101400.822
 03  4  9  2  5 30.0000000  0  8G18G31G 3G25G11G15G14G23
  23746956.431    16342621.99749  12844464.97845  23746955.854    23746958.865
  23177531.230    -6982965.40249  -5145136.70146  23177530.679    23177536.019
  23752083.234    -1869916.32149  -1437484.39845  23752082.925    23752089.965
  22567097.256   -14543909.79449 -11307486.51446  22567096.954    22567101.418
  22986953.460   -10716382.09549  -8330681.91446  22986953.074    22986956.094
  23155708.529    10377758.40549   8097155.34546  23155707.807    23155713.378
  20548487.602   -25765043.55149 -20019163.76848  20548487.028    20548488.784
  24113024.647    17722748.98949  13813663.12545  24113024.030    24113028.540
 03  4  9  2  6  0.0000000  0  8G18G31G 3G25G11G15G14G23
  23760625.475    16414453.55349  12900437.59745  23760624.982    23760627.864
  23189348.180    -6920867.28149  -5096748.61846  23189347.599    23189352.968
  23767949.452    -1786539.06549  -1372515.22845  23767949.081    23767956.247
  22550281.360   -14632277.79649 -11376344.59446  22550281.006    22550285.431
  22970584.142   -10802403.24249  -8397711.32646  22970583.676    22970586.723
  23175454.683    10481524.45949   8178011.95746  23175453.907    23175459.422
  20556052.480   -25725289.89149 -19988186.89748  20556051.901    20556053.637
  24124665.797    17783923.56649  13861331.61745  24124665.182    24124669.790
 03  4  9  2  6 30.0000000  0  8G18G31G 3G25G11G15G14G23
  23774311.948    16486376.09749  12956481.11345  23774311.406    23774314.347
  23201227.921    -6858439.01449  -5048103.26846  23201227.334    23201232.758
  23783833.657    -1703067.31549  -1307472.43945  23783833.334    23783840.419
  22533510.537   -14720408.50349 -11445017.76146  22533510.166    22533514.576
  22954264.214   -10888165.00149  -8464538.61446  22954263.774    22954266.808
  23195245.126    10585523.58449   8259050.17746  23195244.347    23195249.856
  20563689.126   -25685159.19149 -19956916.21548  20563688.555    20563690.284
  24136320.332    17845168.39849  13909054.83045  24136319.584    24136324.262
 03  4  9  2  7  0.0000000  0  8G18G31G 3G25G11G15G14G23
  23788015.771    16558390.02649  13012595.84345  23788015.270    23788018.134
  23213169.995    -6795683.29349  -4999202.78146  23213169.397    23213174.721
  23799735.391    -1619503.88249  -1242358.19245  23799735.046    23799742.026
  22516785.362   -14808298.74949 -11513503.57646  22516785.134    22516789.539
  22937994.102   -10973664.79549  -8531161.75446  22937993.657    22937996.764
  23215079.586    10689753.86749   8340268.52346  23215078.716    23215084.317
  20571397.102   -25644653.39649 -19925353.25448  20571396.519    20571398.286
  24147988.296    17906483.82049  13956833.06145  24147987.567    24147992.242
 03  4  9  2  7 30.0000000  0  8G18G31G 3G25G11G15G14G23
  23801737.121    16630495.87749  13068782.20145  23801736.620    23801739.378
  23225173.909    -6732602.16549  -4950048.70946  23225173.357    23225178.714
  23815654.152    -1535850.95249  -1177174.20845  23815653.806    23815660.824
  22500106.822   -14895944.78049 -11581799.08746  22500106.591    22500110.967
  22921774.409   -11058899.51749  -8597578.36746  22921773.976    22921777.076
  23234957.785    10794214.06849   8421666.02146  23234956.914    23234962.453
  20579176.246   -25603773.46649 -19893498.75748  20579175.653    20579177.467
  24159669.685    17967871.18349  14004667.34745  24159669.109    24159673.788
 03  4  9  2  8  0.0000000  0  8G18G31G 3G25G11G15G14G23
  23815475.923    16702693.73849  13125040.24145  23815475.380    23815478.247
  23237239.319    -6669198.75049  -4900643.51546  23237238.704    23237244.061
  23831589.303    -1452111.48849  -1111922.81145  23831588.974    23831595.944
  22483475.242   -14983344.29349 -11649902.49846  22483474.905    22483479.297
  22905605.500   -11143867.32849  -8663786.99646  22905605.089    22905608.179
  23254879.320    10898902.06849   8503241.01746  23254878.472    23254883.983
  20587026.154   -25562521.69749 -19861354.51448  20587025.599    20587027.424
  24171365.235    18029330.67449  14052557.81545  24171364.492    24171369.233
 03  4  9  2  8 30.0000000  0  8G18G31G 3G25G11G15G14G23
  23829231.958    16774982.49249  13181369.12045  23829231.466    23829234.280
  23249365.228    -6605476.75449  -4850990.07346  23249364.560    23249369.992
  23847540.210    -1368289.51749  -1046607.10945  23847539.902    23847546.814
  22466890.755   -15070495.36449 -11717812.33146  22466890.556    22466894.915
  22889487.771   -11228566.36349  -8729786.18646  22889487.358    22889490.442
  23274843.661    11003815.11949   8584991.39846  23274842.831    23274848.346
  20594946.281   -25520901.06149 -19828922.84248  20594945.726    20594947.539
  24183074.199    18090861.59549  14100503.96945  24183073.467    24183078.249
 03  4  9  2  9  0.0000000  0  8G18G31G 3G25G11G15G14G23
  23843005.581    16847362.79549  13237769.31345  23843005.022    23843007.841
  23261551.261    -6541438.59449  -4801090.26246  23261550.654    23261556.123
  23863506.508    -1284386.95949   -981228.61345  23863506.178    23863513.015
  22450354.354   -15157394.85549 -11785526.12346  22450354.094    22450358.413
  22873421.711   -11312993.87549  -8795573.81946  22873421.320    22873424.264
  23294850.522    11108952.06749   8666916.23645  23294849.691    23294855.231
  20602936.372   -25478912.91649 -19796204.80548  20602935.804    20602937.602
  24194796.807    18152464.93749  14148506.53445  24194796.201    24194800.977
 03  4  9  2  9 30.0000000  0  8G18G31G 3G25G11G15G14G23
  23856796.546    16919835.49949  13294241.53745  23856796.093    23856799.002
  23273797.171    -6477086.29449  -4750945.67846  23273796.576    23273802.012
  23879487.419    -1200406.49949   -915789.40345  23879487.115    23879494.177
  22433866.493   -15244039.39749 -11853041.24446  22433866.078    22433870.396
  22857407.942   -11397146.88149  -8861147.53846  22857407.536    22857410.436
  23314899.868    11214311.67249   8749014.54145  23314898.951    23314904.576
  20610996.160   -25436558.50949 -19763201.36548  20610995.585    20610997.363
  24206533.672    18214141.84549  14196566.44245  24206533.056    24206537.750
 03  4  9  2 10  0.0000000  0  8G18G31G 3G25G11G15G14G23
  23870605.168    16992400.14849  13350785.37645  23870604.684    23870607.735
  23286102.273    -6412423.22449  -4700558.93446  23286101.597    23286106.971
  23895482.634    -1116351.59849   -850292.20945  23895482.261    23895489.504
  22417427.394   -15330426.76749 -11920355.98546  22417427.048    22417431.337
  22841446.800   -11481023.12649  -8926505.59146  22841446.396    22841449.310
  23334991.096    11319891.53149   8831284.49245  23334990.212    23334995.819
  20619125.152   -25393840.39649 -19729914.51848  20619124.577    20619126.330
  24218284.382    18275892.36249  14244683.69945  24218283.691    24218288.500
 03  4  9  2 10 30.0000000  0  8G18G31G 3G25G11G15G14G23
  23884431.194    17065056.56349  13407400.74345  23884430.733    23884433.798
  23298465.748    -6347452.54549  -4649932.48546  23298465.128    23298470.612
  23911491.573    -1032225.01549   -784739.14845  23911491.259    23911498.302
  22401037.695   -15416554.37249 -11987468.31346  22401037.415    22401041.694
  22825538.598   -11564620.74049  -8991646.54246  22825538.199    22825541.130
  23355123.761    11425689.27549   8913724.23945  23355122.885    23355128.501
  20627322.916   -25350760.82549 -19696346.01448  20627322.322    20627324.090
  24230049.001    18337716.58149  14292858.38045  24230048.397    24230053.310
 03  4  9  2 11  0.0000000  0  8G18G31G 3G25G11G15G14G23
  23898274.871    17137804.95849  13464087.78945  23898274.299    23898277.295
  23310887.281    -6282177.14049  -4599068.61246  23310886.649    23310892.231
  23927513.439     -948029.79749   -719132.59945  23927513.117    23927520.250
  22384697.941   -15502419.83349 -12054376.37346  22384697.706    22384701.937
  22809683.895   -11647937.26049  -9056568.44546  22809683.505    22809686.467
  23375297.415    11531702.80149   8996332.12245  23375296.589    23375302.297
  20635589.142   -25307321.42549 -19662497.12748  20635588.569    20635590.332
  24241828.062    18399614.75449  14341090.69445  24241827.402    24241832.118
 03  4  9  2 11 30.0000000  0  8G18G31G 3G25G11G15G14G23
  23912135.604    17210643.18749  13520844.81745  23912134.924    23912138.013
  23323365.988    -6216601.79349  -4547971.01146  23323365.370    23323370.842
  23943547.403     -863770.60349   -653476.21345  23943547.157    23943554.380
  22368408.339   -15588022.06949 -12121079.31946  22368408.063    22368412.289
  22793882.838   -11730972.28249  -9121271.00746  22793882.464    22793885.379
  23395511.629    11637928.51149   9079105.34345  23395510.775    23395516.470
  20643923.039   -25263526.35849 -19628371.10048  20643922.480    20643924.262
  24253620.819    18461585.40349  14389379.49445  24253620.068    24253624.797
 03  4  9  2 12  0.0000000  0  8G18G31G 3G25G11G15G14G23
  23926014.177    17283575.38349  13577675.07945  23926013.575    23926016.647
  23335901.869    -6150725.40349  -4496638.83046  23335901.282    23335906.757
  23959593.937     -779446.49249   -587769.24145  23959593.608    23959600.744
  22352170.195   -15673354.09249 -12187571.70547  22352169.875    22352174.050
  22778136.586   -11813719.25049  -9185749.13246  22778136.245    22778139.062
  23415766.529    11744368.40249   9162045.46045  23415765.683    23415771.282
  20652324.990   -25219373.85349 -19593966.55148  20652324.413    20652326.217
  24265428.079    18523632.81549  14437728.11345  24265427.355    24265432.216
 03  4  9  2 12 30.0000000  0  8G18G31G 3G25G11G15G14G23
  23939910.111    17356598.81849  13634576.42345  23939909.476    23939912.563
  23348493.921    -6084553.93949  -4445076.71346  23348493.305    23348498.822
  23975651.697     -695063.24149   -522016.18845  23975651.322    23975658.420
  22335983.299   -15758416.49149 -12253854.00847  22335982.961    22335987.111
  22762444.954   -11896178.94949  -9250003.38346  22762444.588    22762447.453
  23436061.109    11851017.67949   9245148.72945  23436060.373    23436066.081
  20660794.054   -25174868.58249 -19559287.12548  20660793.490    20660795.279
  24277249.288    18585754.24949  14486134.39645  24277248.630    24277253.529
 03  4  9  2 13  0.0000000  0  8G18G31G 3G25G11G15G14G23
  23953823.337    17429714.22349  13691549.45345  23953822.714    23953826.138
  23361141.825    -6018089.11849  -4393286.01246  23361141.188    23361146.675
  23991720.399     -610622.48649   -456218.32145  23991719.977    23991727.155
  22319848.416   -15843205.37749 -12319923.18947  22319848.111    22319852.261
  22746808.659   -11978347.68649  -9314030.90546  22746808.302    22746811.260
  23456395.383    11957875.37549   9328414.40345  23456394.746    23456400.419
  20669330.109   -25130011.46649 -19524333.52948  20669329.531    20669331.307
  24289085.036    18647951.35249  14534599.64345  24289084.347    24289089.201
 03  4  9  2 13 30.0000000  0  8G18G31G 3G25G11G15G14G23
  23967754.444    17502922.16749  13748594.57645  23967753.770    23967757.167
  23373845.093    -5951333.51849  -4341268.72646  23373844.453    23373849.905
  24007799.468     -526127.02849   -390377.84045  24007798.997    24007806.303
  22303766.238   -15927717.81249 -12385776.94647  22303765.874    22303769.979
  22731228.322   -12060223.10249  -9377829.87346  22731227.948    22731230.848
  23476769.049    12064939.83049   9411841.20445  23476768.431    23476774.211
  20677932.737   -25084804.35649 -19489107.21548  20677932.175    20677933.931
  24300935.210    18710224.76249  14583124.36645  24300934.693    24300939.400
 03  4  9  2 14  0.0000000  0  8G18G31G 3G25G11G15G14G23
  23981702.940    17576221.26349  13805710.70745  23981702.293    23981705.461
  23386602.769    -5884291.51749  -4289028.26546  23386602.162    23386607.726
  24023888.178     -441580.92549   -324497.89445  24023887.689    24023895.085
  22287736.833   -16011952.35349 -12451414.16347  22287736.511    22287740.582
  22715703.994   -12141803.92749  -9441399.28846  22715703.586    22715706.475
  23497181.643    12172207.72249   9495426.50545  23497180.831    23497186.633
  20686601.364   -25039250.43949 -19453610.65648  20686600.784    20686602.550
  24312799.979    18772573.60149  14631707.83845  24312799.369    24312803.919
 03  4  9  2 14 30.0000000  0  8G18G31G 3G25G11G15G14G23
  23995669.009    17649613.77749  13862899.64045  23995668.385    23995671.677
  23399414.832    -5816963.88449  -4236565.24246  23399414.272    23399419.731
  24039986.326     -356985.01549   -258579.14545  24039985.764    24039993.293
  22271761.116   -16095904.43249 -12516831.29747  22271760.911    22271764.939
  22700236.465   -12223085.89349  -9504735.82846  22700236.093    22700238.926
  23517632.813    12279678.92449   9579170.23545  23517631.982    23517637.817
  20695335.971   -24993349.77249 -19417843.90648  20695335.407    20695337.161
  24324679.427    18835000.34349  14680352.02945  24324678.775    24324683.316
 03  4  9  2 15  0.0000000  0  8G18G31G 3G25G11G15G14G23
  24009652.398    17723097.51149  13920159.67545  24009651.794    24009655.198
  23412280.380    -5749355.76149  -4183883.64946  23412279.796    23412285.162
  24056092.944     -272344.28949   -192625.47145  24056092.473    24056099.985
  22255839.373   -16179573.57849 -12582027.94347  22255839.163    22255843.143
  22684825.950   -12304068.50449  -9567839.11346  22684825.592    22684828.322
  23538121.852    12387349.58449   9663069.40345  23538121.108    23538126.946
  20704135.762   -24947106.54549 -19381810.21948  20704135.176    20704136.962
  24336573.240    18897503.28849  14729055.62345  24336572.721    24336577.261
 03  4  9  2 15 30.0000000  0  8G18G31G 3G25G11G15G14G23
  24023653.588    17796673.64049  13977491.69245  24023652.932    24023656.258
  23425198.847    -5681468.95749  -4130984.90346  23425198.242    23425203.818
  24072207.751     -187660.69749   -126638.39545  24072207.317    24072214.915
  22239972.225   -16262955.98549 -12647001.16047  22239971.908    22239975.919
  22669473.019   -12384748.30349  -9630706.42346  22669472.701    22669475.410
  23558648.633    12495218.77249   9747123.26145  23558647.928    23558653.920
  20713000.599   -24900521.47949 -19345510.17048  20713000.038    20713001.793
  24348481.796    18960083.57949  14777819.48245  24348481.238    24348485.984
 03  4  9  2 16  0.0000000  0  8G18G31G 3G25G11G15G14G23
  24037672.021    17870341.27449  14034895.01145  24037671.376    24037674.800
  23438169.628    -5613307.32249  -4077872.01446  23438169.003    23438174.640
  24088330.244     -102937.73949    -60620.64245  24088329.696    24088337.268
  22224159.830   -16346050.05449 -12711749.70047  22224159.555    22224163.548
  22654178.019   -12465124.01549  -9693336.78746  22654177.669    22654180.442
  23579212.842    12603283.62449   9831329.59145  23579212.002    23579218.035
  20721929.962   -24853597.64449 -19308946.14048  20721929.367    20721931.105
  24360405.147    19022740.87249  14826643.31445  24360404.622    24360409.308
 03  4  9  2 16 30.0000000  0  8G18G31G 3G25G11G15G14G23
  24051708.243    17944101.98449  14092370.86945  24051707.689    24051710.979
  23451192.364    -5544872.17449  -4024545.97146  23451191.798    23451197.509
  24104459.795      -18176.61249      5426.85945  24104459.230    24104466.934
  22208403.136   -16428851.33049 -12776270.09447  22208402.953    22208406.857
  22638941.645   -12545191.50649  -9755726.98046  22638941.297    22638944.086
  23599814.120    12711543.64249   9915687.98645  23599813.229    23599819.350
  20730923.684   -24806335.42949 -19272118.43448  20730923.081    20730924.808
  24372343.617    19085476.96049  14875528.56045  24372342.968    24372347.524
 03  4  9  2 17  0.0000000  0  8G18G31G 3G25G11G15G14G23
  24065762.251    18017955.74549  14149919.21945  24065761.680    24065764.934
  23464266.604    -5476166.86949  -3971009.44746  23464266.106    23464271.783
  24120595.993       66619.54249     71501.64545  24120595.519    24120603.141
  22192702.839   -16511357.43549 -12840560.48747  22192702.532    22192706.403
  22623764.262   -12624948.94549  -9817875.58346  22623763.905    22623766.678
  23620451.866    12819996.35249  10000196.52645  23620451.082    23620457.220
  20739981.314   -24758737.05249 -19235028.79548  20739980.720    20739982.470
  24384296.780    19148292.14049  14924475.43245  24384296.193    24384300.824
 03  4  9  2 17 30.0000000  0  8G18G31G 3G25G11G15G14G23
  24079833.412    18091900.22949  14207538.29545  24079832.759    24079836.212
  23477391.217    -5407196.57449  -3917266.42246  23477390.681    23477396.387
  24136737.960      151445.44049    137599.60445  24136737.584    24136745.069
  22177058.489   -16593568.28549 -12904620.80847  22177058.242    22177062.095
  22608645.956   -12704395.94049  -9879782.27946  22608645.581    22608648.341
  23641125.710    12928637.75349  10084852.10545  23641124.910    23641131.139
  20749102.080   -24710806.93249 -19197680.64548  20749101.476    20749103.267
  24396264.870    19211184.46749  14973482.43645  24396264.197    24396268.776
 03  4  9  2 18  0.0000000  0  8G18G31G 3G25G11G15G14G23
  24093922.297    18165937.36649  14265229.54245  24093921.674    24093925.010
  23490566.138    -5337962.43649  -3863317.80546  23490565.600    23490571.269
  24152885.401      236300.24249    203720.10045  24152884.956    24152892.677
  22161471.254   -16675479.35349 -12968447.53147  22161471.033    22161474.860
  22593587.572   -12783528.52049  -9941443.99146  22593587.185    22593589.827
  23661835.495    13037467.84249  10169654.72745  23661834.573    23661840.850
  20758285.969   -24662545.13549 -19160074.05048  20758285.408    20758287.206
  24408247.844    19274156.04049  15022551.18345  24408247.212    24408251.891
 03  4  9  2 18 30.0000000  0  8G18G31G 3G25G11G15G14G23
  24108028.766    18240067.78249  14322993.48545  24108028.179    24108031.438
  23503790.743    -5268466.98249  -3809165.56246  23503790.214    23503795.948
  24169037.861      321181.36949    269861.09745  24169037.384    24169045.062
  22145941.799   -16757087.25249 -13032038.02547  22145941.514    22145945.326
  22578589.521   -12862343.51849 -10002858.21846  22578589.098    22578591.817
  23682580.783    13146484.86049  10254603.01745  23682579.982    23682586.123
  20767532.679   -24613953.47949 -19122210.41748  20767532.087    20767533.902
  24420246.273    19337207.85449  15071682.43845  24420245.596    24420250.428
 03  4  9  2 19  0.0000000  0  8G18G31G 3G25G11G15G14G23
  24122152.939    18314289.91049  14380828.90945  24122152.331    24122155.528
  23517064.291    -5198714.45849  -3754813.01546  23517063.735    23517069.453
  24185194.486      406084.86249    336019.52145  24185194.028    24185201.787
  22130470.089   -16838391.03149 -13095391.53647  22130469.825    22130473.633
  22563651.951   -12940840.26349 -10064024.45646  22563651.579    22563654.367
  23703360.970    13255685.46049  10339694.34045  23703360.206    23703366.374
  20776841.529   -24565034.98249 -19084092.10348  20776840.942    20776842.758
  24432259.859    19400339.03149  15120875.56745  24432259.159    24432263.921
 03  4  9  2 19 30.0000000  0  8G18G31G 3G25G11G15G14G23
  24136294.634    18388604.74949  14438736.55345  24136294.001    24136297.242
  23530386.216    -5128707.08349  -3700261.88846  23530385.673    23530391.373
  24201355.231      491008.74749    402193.82745  24201354.720    24201362.466
  22115057.009   -16919387.21149 -13158505.36647  22115056.725    22115060.475
  22548775.646   -13019015.54749 -10124940.22146  22548775.308    22548778.074
  23724175.753    13365068.20549  10424927.58845  23724175.145    23724181.406
  20786212.336   -24515791.08049 -19045720.22648  20786211.745    20786213.568
  24444288.457    19463550.40049  15170131.14845  24444287.862    24444292.679
 03  4  9  2 20  0.0000000  0  8G18G31G 3G25G11G15G14G23
  24150453.882    18463012.56349  14496716.64945  24150453.309    24150456.583
  23543756.282    -5058447.40649  -3645514.15146  23543755.677    23543761.459
  24217519.144      575950.40349    468382.00345  24217518.690    24217526.482
  22099703.016   -17000072.82449 -13221377.18947  22099702.704    22099706.427
  22533961.101   -13096866.52449 -10185603.27746  22533960.743    22533963.451
  23745025.062    13474631.59749  10510301.59045  23745024.480    23745030.726
  20795644.747   -24466223.33149 -19007096.00748  20795644.155    20795646.008
  24456332.750    19526842.77749  15219449.86145  24456332.023    24456336.806
 03  4  9  2 20 30.0000000  0  8G18G31G 3G25G11G15G14G23
  24164630.756    18537512.47649  14554768.51645  24164630.145    24164633.514
  23557173.489    -4987939.41049  -3590572.91646  23557172.909    23557178.792
  24233685.850      660906.24549    534581.20645  24233685.428    24233693.240
  22084408.475   -17080445.97349 -13284005.54247  22084408.153    22084411.872
  22519208.461   -13174391.83049 -10246012.57146  22519208.137    22519210.809
  23765908.181    13584372.49249  10595813.94345  23765907.505    23765913.733
  20805138.146   -24416334.90649 -18968221.90848  20805137.563    20805139.449
  24468392.162    19590215.75049  15268831.39045  24468391.505    24468396.314
 03  4  9  2 21  0.0000000  0  8G18G31G 3G25G11G15G14G23
  24178825.366    18612105.29949  14612892.77645  24178824.798    24178828.069
  23570637.574    -4917185.28849  -3535439.91146  23570636.997    23570642.922
  24249854.783      745874.12149    600789.79645  24249854.355    24249862.187
  22069173.954   -17160503.63849 -13346388.06347  22069173.619    22069177.335
  22504518.366   -13251588.33749 -10306165.64746  22504518.036    22504520.733
  23786824.876    13694289.69049  10681463.65145  23786824.134    23786830.332
  20814692.414   -24366126.92249 -18929098.80648  20814691.819    20814693.702
  24480467.307    19653670.32049  15318276.49145  24480466.535    24480471.295
 03  4  9  2 21 30.0000000  0  8G18G31G 3G25G11G15G14G23
  24193037.365    18686789.30549  14671088.08145  24193036.710    24193040.015
  23584147.793    -4846189.62549  -3480118.69346  23584147.154    23584152.999
  24266025.142      830849.64549    667004.34945  24266024.680    24266032.641
  22053999.649   -17240244.90049 -13408524.02847  22053999.314    22054003.009
  22489891.078   -13328455.37349 -10366062.00046  22489890.753    22489893.378
  23807774.270    13804379.57549  10767247.92545  23807773.702    23807779.690
  20824306.776   -24315602.95549 -18889729.48448  20824306.223    20824308.086
  24492557.734    19717205.25849  15367784.21545  24492556.886    24492561.745
 03  4  9  2 22  0.0000000  0  8G18G31G 3G25G11G15G14G23
  24207267.119    18761567.09049  14729356.47745  24207266.468    24207269.594
  23597703.624    -4774953.19049  -3424609.85446  23597703.000    23597708.816
  24282197.035      915832.45149    733224.55945  24282196.535    24282204.521
  22038886.411   -17319664.97049 -13470409.72147  22038886.137    22038889.784
  22475327.277   -13404988.29449 -10425698.00346  22475326.945    22475329.547
  23828756.636    13914642.42849  10853166.98445  23828756.075    23828762.047
  20833981.397   -24264762.88749 -18850113.84648  20833980.805    20833982.615
  24504663.552    19780823.18749  15417356.63045  24504662.726    24504667.735
 03  4  9  2 22 30.0000000  0  8G18G31G 3G25G11G15G14G23
  24221514.246    18836437.19049  14787696.80545  24221513.645    24221516.820
  23611304.455    -4703480.39249  -3368916.83646  23611303.864    23611309.747
  24298369.455     1000818.19849    799447.07845  24298368.929    24298376.771
  22023834.592   -17398762.60049 -13532044.15647  22023834.297    22023837.912
  22460827.325   -13481186.19349 -10485072.94946  22460826.963    22460829.518
  23849771.380    14025074.76649  10939218.10145  23849770.697    23849776.692
  20843715.407   -24213610.32849 -18810254.70648  20843714.826    20843716.603
  24516785.359    19844523.10649  15466992.90145  24516784.593    24516789.372
 03  4  9  2 23  0.0000000  0  8G18G31G 3G25G11G15G14G23
  24235779.357    18911399.53249  14846109.00445  24235778.719    24235781.809
  23624949.725    -4631774.30349  -3313042.03446  23624949.157    23624955.046
  24314541.756     1085804.13749    865669.74545  24314541.203    24314549.202
  22008844.601   -17477534.88149 -13593425.07847  22008844.374    22008847.975
  22446391.497   -13557046.63449 -10544184.93646  22446391.147    22446393.733
  23870817.766    14135674.43749  11025399.62045  23870817.088    23870823.072
  20853508.571   -24162147.09149 -18770153.48148  20853507.967    20853509.728
  24528922.708    19908305.24349  15516693.25045  24528922.101    24528926.557
 03  4  9  2 23 30.0000000  0  8G18G31G 3G25G11G15G14G23
  24250062.055    18986455.78649  14904594.38645  24250061.402    24250064.460
  23638639.193    -4559836.13849  -3256986.40446  23638638.621    23638644.472
  24330713.967     1170789.08249    931891.62345  24330713.487    24330721.509
  21993917.375   -17555977.84349 -13654549.38647  21993917.118    21993920.696
  22432020.693   -13632565.67449 -10603030.88946  22432020.306    22432022.915
  23891896.007    14246441.18549  11111711.31845  23891895.376    23891901.403
  20863360.720   -24110373.52349 -18729810.43948  20863360.126    20863361.912
  24541075.932    19972171.68449  15566459.31145  24541075.426    24541080.073
 03  4  9  2 24  0.0000000  0  8G18G31G 3G25G11G15G14G23
  24264362.118    19061603.91149  14963151.33745  24264361.473    24264364.574
  23652371.803    -4487671.12849  -3200754.01646  23652371.234    23652377.101
  24346884.986     1255768.08749    998108.89545  24346884.493    24346892.496
  21979052.831   -17634091.35349 -13715416.98047  21979052.529    21979056.087
  22417714.846   -13707743.20449 -10661610.74346  22417714.479    22417717.098
  23913005.292    14357370.60949  11198149.78445  23913004.642    23913010.627
  20873271.094   -24058294.03949 -18689229.02148  20873270.505    20873272.299
  24553245.269    20036120.70949  15616289.71245  24553244.543    24553249.310
 03  4  9  2 24 30.0000000  0  8G18G31G 3G25G11G15G14G23
  24278680.152    19136845.15549  15021780.86845  24278679.490    24278682.619
  23666147.169    -4415280.96649  -3144346.16446  23666146.627    23666152.578
  24363054.591     1340739.71949   1064320.39845  24363054.158    24363062.198
  21964251.580   -17711871.71249 -13776024.97647  21964251.355    21964254.877
  22403474.722   -13782575.48949 -10719921.57746  22403474.307    22403476.910
  23934145.404    14468462.02849  11284714.46545  23934144.645    23934150.714
  20883239.628   -24005908.82949 -18648409.38248  20883239.045    20883240.879
  24565430.217    20100153.79649  15666185.61645  24565429.487    24565434.471
 03  4  9  2 25  0.0000000  0  8G18G31G 3G25G11G15G14G23
  24293015.547    19212179.11849  15080482.64745  24293015.006    24293018.261
  23679964.768    -4342669.34949  -3087765.78246  23679964.241    23679970.160
  24379222.497     1425700.56049   1130523.48545  24379221.896    24379229.858
  21949514.292   -17789316.61849 -13836371.57947  21949514.018    21949517.529
  22389300.591   -13857061.05749 -10777962.24246  22389300.160    22389302.701
  23955315.599    14579712.58649  11371403.16045  23955315.039    23955320.948
  20893265.768   -23953221.06249 -18607353.98448  20893265.184    20893267.060
  24577631.307    20164270.76649  15716146.88345  24577630.570    24577635.591
 03  4  9  2 25 30.0000000  0  8G18G31G 3G25G11G15G14G23
  24307368.884    19287606.15349  15139256.96245  24307368.309    24307371.504
  23693824.003    -4269838.82449  -3031014.79845  23693823.507    23693829.353
  24395387.400     1510648.25149   1196716.37745  24395386.995    24395395.064
  21934841.333   -17866423.49149 -13896454.77447  21934840.996    21934844.527
  22375192.876   -13931197.23549 -10835730.63446  22375192.477    22375195.050
  23976515.815    14691120.61649  11458214.59345  23976515.293    23976521.322
  20903349.201   -23900232.21049 -18566063.97048  20903348.633    20903350.510
  24589848.560    20228472.54249  15766174.21245  24589847.852    24589852.891
 03  4  9  2 26  0.0000000  0  8G18G31G 3G25G11G15G14G23
  24321739.900    19363126.11149  15198103.66445  24321739.260    24321742.483
  23707724.340    -4196792.62749  -2974095.76946  23707723.824    23707729.710
  24411549.549     1595580.07949   1262896.86145  24411549.206    24411557.176
  21920233.100   -17943189.71449 -13956272.52847  21920232.819    21920236.335
  22361152.169   -14004981.45449 -10893224.79446  22361151.767    22361154.336
  23997745.663    14802684.16249  11545147.17645  23997745.126    23997751.034
  20913489.494   -23846944.55549 -18524541.11848  20913488.913    20913490.794
  24602081.994    20292759.30249  15816267.78345  24602081.363    24602086.108
 03  4  9  2 26 30.0000000  0  8G18G31G 3G25G11G15G14G23
  24336128.525    19438738.31349  15257022.23945  24336127.730    24336131.030
  23721665.122    -4123534.15249  -2917011.32445  23721664.463    23721670.406
  24427708.015     1680492.65749   1329062.36145  24427707.610    24427715.692
  21905690.023   -18019613.58849 -14015823.51947  21905689.797    21905693.286
  22347178.779   -14078412.03549 -10950443.39146  22347178.370    22347180.882
  24019004.558    14914400.65949  11632198.93945  24019004.000    24019009.878
  20923686.173   -23793360.74449 -18482787.49348  20923685.624    20923687.449
  24614331.417    20357130.64049  15866427.27645  24614330.784    24614335.715
 03  4  9  2 27  0.0000000  0  8G18G31G 3G25G11G15G14G23
  24350534.788    19514443.97149  15316013.65645  24350533.937    24350537.236
  23735645.751    -4050065.52549  -2859763.12945  23735645.085    23735651.059
  24443862.277     1765384.29449   1395211.52545  24443861.936    24443870.244
  21891212.839   -18095691.45949 -14075104.89947  21891212.559    21891216.028
  22333273.245   -14151485.79949 -11007383.94846  22333272.857    22333275.365
  24040292.247    15026268.79949  11719368.89245  24040291.753    24040297.870
  20933939.079   -23739481.61949 -18440803.75948  20933938.486    20933940.276
  24626597.225    20421588.04449  15916653.81545  24626596.592    24626601.453
 03  4  9  2 27 30.0000000  0  8G18G31G 3G25G11G15G14G23
  24364958.867    19590242.50649  15375077.44045  24364958.000    24364961.224
  23749665.784    -3976390.28049  -2802353.93545  23749665.169    23749671.084
  24460012.254     1850251.78149   1461341.87145  24460011.825    24460020.091
  21876801.929   -18171421.16349 -14134114.98047  21876801.615    21876805.054
  22319435.998   -14224201.05949 -11064045.15746  22319435.616    22319438.115
  24061608.502    15138286.04849  11806655.01445  24061607.955    24061613.981
  20944247.653   -23685309.74249 -18398591.90848  20944247.050    20944248.797
  24638879.439    20486131.34049  15966947.28545  24638878.809    24638883.638
 03  4  9  2 28  0.0000000  0  8G18G31G 3G25G11G15G14G23
  24379400.260    19666132.87649  15434212.77445  24379399.363    24379402.931
  23763724.380    -3902512.59349  -2744786.98645  23763723.746    23763729.634
  24476156.682     1935091.00249   1527450.18745  24476156.209    24476164.594
  21862457.266   -18246802.25149 -14192853.41347  21862457.016    21862460.427
  22305667.170   -14296556.68849 -11120426.12846  22305666.778    22305669.220
  24082952.660    15250449.24849  11894054.88145  24082951.939    24082957.923
  20954611.283   -23630848.38449 -18356154.48848  20954610.695    20954612.426
  24651177.711    20550759.56049  16017306.92045  24651177.094    24651181.991
 03  4  9  2 28 30.0000000  0  8G18G31G 3G25G11G15G14G23
  24393859.585    19742117.42749  15493421.51145  24393858.882    24393862.442
  23777821.301    -3828432.93449  -2687062.66945  23777820.657    23777826.468
  24492295.760     2019901.84749   1593536.39845  24492295.337    24492303.728
  21848180.128   -18321829.01249 -14251315.75147  21848179.840    21848183.238
  22291967.730   -14368547.56049 -11176522.87646  22291967.312    22291969.784
  24104324.539    15362758.82149  11981568.78945  24104323.694    24104329.870
  20965030.166   -23576096.84649 -18313490.94548  20965029.562    20965031.252
  24663492.926    20615475.59049  16067734.97645  24663492.339    24663496.967
 03  4  9  2 29  0.0000000  0  8G18G31G 3G25G11G15G14G23
  24408336.514    19818193.58349  15552701.62545  24408335.911    24408339.065
  23791955.526    -3754157.19349  -2629185.54545  23791954.852    23791960.824
  24508428.546     2104678.95349   1659596.31945  24508427.968    24508436.507
  21833970.239   -18396502.19349 -14309502.56647  21833969.947    21833973.365
  22278337.659   -14440174.15949 -11232335.77547  22278337.188    22278339.681
  24125723.301    15475209.59049  12069192.73145  24125722.491    24125728.645
  20975503.293   -23521060.19049 -18270605.23148  20975502.682    20975504.411
  24675824.080    20680276.90249  16118229.49245  24675823.613    24675828.129
 03  4  9  2 29 30.0000000  0  8G18G31G 3G25G11G15G14G23
  24422831.020    19894363.16249  15612054.55645  24422830.376    24422833.618
  23806126.882    -3679686.59249  -2571156.58945  23806126.152    23806132.329
  24524554.623     2189421.30949   1725629.16545  24524554.074    24524562.565
  21819828.385   -18470817.37149 -14367410.42547  21819828.138    21819831.537
  22264777.450   -14511432.91149 -11287862.03347  22264777.036    22264779.614
  24147148.760    15587801.48749  12156926.62345  24147148.057    24147154.209
  20986030.567   -23465738.59949 -18227497.49248  20986029.984    20986031.748
  24688172.095    20745165.75849  16168792.22445  24688171.525    24688176.096
 03  4  9  2 30  0.0000000  0  8G18G31G 3G25G11G15G14G23
  24437343.510    19970626.66449  15671480.64545  24437342.869    24437346.071
  23820334.806    -3605023.58549  -2512977.71545  23820334.075    23820340.201
  24540673.708     2274126.63949   1791633.15245  24540673.145    24540681.499
  21805755.324   -18544771.49749 -14425036.94547  21805755.080    21805758.469
  22251287.904   -14582320.74849 -11343099.27947  22251287.494    22251290.048
  24168600.840    15700532.87349  12244769.22745  24168600.036    24168606.345
  20996611.876   -23410133.45449 -18184168.80748  20996611.318    20996613.089
  24700536.771    20810142.97249  16219423.83345  24700536.205    24700540.898
 03  4  9  2 30 30.0000000  0  8G18G31G 3G25G11G15G14G23
  24451873.524    20046982.42849  15730978.62245  24451872.901    24451876.093
  23834578.491    -3530172.82149  -2454652.52445  23834577.795    23834583.918
  24556784.558     2358790.77049   1857605.04645  24556784.242    24556792.726
  21791751.073   -18618364.01249 -14482381.68747  21791750.815    21791754.168
  22237869.115   -14652836.95549 -11398046.94447  22237868.704    22237871.201
  24190078.742    15813399.91549  12332717.52245  24190077.908    24190084.173
  21007246.471   -23354248.51649 -18140622.09647  21007245.886    21007247.654
  24712918.047    20875207.22649  16270123.23645  24712917.443    24712922.192
 03  4  9  2 31  0.0000000  0  8G18G31G 3G25G11G15G14G23
  24466421.323    20123431.44549  15790549.27645  24466420.540    24466423.863
  23848857.423    -3455136.18049  -2396182.49445  23848856.770    23848863.077
  24572887.722     2443412.29249   1923543.72245  24572887.284    24572895.838
  21777816.380   -18691591.34049 -14539441.87047  21777816.082    21777819.403
  22224521.584   -14722978.13249 -11452702.35747  22224521.194    22224523.783
  24211582.337    15926401.74549  12420770.84945  24211581.471    24211587.800
  21017934.074   -23298084.64749 -18096858.03347  21017933.467    21017935.300
  24725316.124    20940359.93849  16320891.58045  24725315.610    24725320.271
 03  4  9  2 31 30.0000000  0  8G18G31G 3G25G11G15G14G23
  24480986.599    20199972.82249  15850191.90145  24480985.996    24480989.288
  23863171.058    -3379917.78549  -2337570.84245  23863170.551    23863176.726
  24588981.980     2527987.49449   1989446.31545  24588981.522    24588989.989
  21763951.367   -18764452.05849 -14596216.38847  21763951.090    21763954.417
  22211245.796   -14792743.22249 -11507064.73947  22211245.365    22211247.887
  24233111.061    16039535.10749  12508926.70445  24233110.117    24233116.281
  21028674.186   -23241644.74549 -18052878.88747  21028673.622    21028675.488
  24737731.041    21005600.62649  16371728.47845  24737730.415    24737735.210
 03  4  9  2 32  0.0000000  0  8G18G31G 3G25G11G15G14G23
  24495569.897    20276608.34449  15909907.87445  24495569.221    24495572.428
  23877519.150    -3304518.74449  -2278818.41845  23877518.578    23877524.716
  24605067.157     2612515.34949   2055312.00945  24605066.686    24605075.312
  21750156.896   -18836942.13649 -14652702.09847  21750156.630    21750159.975
  22198042.237   -14862128.09749 -11561130.84647  22198041.835    22198044.363
  24254664.495    16152799.89749  12597184.94445  24254663.655    24254670.013
  21039466.745   -23184929.31349 -18008685.04447  21039466.181    21039468.083
  24750163.075    21070931.32849  16422635.51945  24750162.469    24750167.148
 03  4  9  2 32 30.0000000  0  8G18G31G 3G25G11G15G14G23
  24510170.674    20353335.71949  15969695.43845  24510170.122    24510173.212
  23891900.449    -3228944.58449  -2219929.53545  23891899.902    23891906.016
  24621142.583     2696990.79749   2121136.86945  24621142.137    24621150.615
  21736432.974   -18909061.59249 -14708899.00747  21736432.701    21736436.014
  22184911.002   -14931132.92549 -11614900.80347  22184910.566    22184913.069
  24276242.190    16266191.69649  12685542.14845  24276241.408    24276247.813
  21050310.951   -23127942.59849 -17964279.80347  21050310.374    21050312.290
  24762611.791    21136349.87049  16473611.00645  24762611.191    24762615.978
 03  4  9  2 33  0.0000000  0  7G18G31G 3G25G11G15G14
  24524788.896    20430154.61549  16029554.31345  24524788.333    24524791.248
  23906314.527    -3153198.58749  -2160906.75745  23906313.943    23906320.081
  24637207.383     2781410.99549   2186918.68145  24637206.946    24637215.452
  21722779.996   -18980808.18049 -14764805.37047  21722779.703    21722782.991
  22171852.470   -14999755.65549 -11668373.02547  22171852.086    22171854.556
  24297843.476    16379707.73549  12773996.17845  24297842.813    24297849.231
  21061206.284   -23070686.91149 -17919664.98147  21061205.721    21061207.681
 03  4  9  2 33 30.0000000  0  7G18G31G 3G25G11G15G14
  24539424.259    20507064.81349  16089484.34645  24539423.720    24539426.896
  23920760.645    -3077284.10749  -2101752.68145  23920760.032    23920766.210
  24653261.013     2865772.91249   2252655.07545  24653260.573    24653269.219
  21709198.349   -19052179.98949 -14820419.69247  21709198.075    21709201.338
  22158867.059   -15067994.52049 -11721546.12747  22158866.636    22158869.053
  24319468.124    16493345.64649  12862545.17145  24319467.493    24319473.910
  21072152.429   -23013164.53049 -17874842.34847  21072151.893    21072153.810
 03  4  9  2 34  0.0000000  0  7G18G31G 3G25G11G15G14
  24554077.963    20584070.09349  16149488.44045  24554077.376    24554080.481
  23935238.993    -3001200.10649  -2042466.53245  23935238.429    23935244.638
  24669303.975     2950078.04249   2318347.21445  24669303.426    24669312.111
  21695689.218   -19123170.69949 -14875737.06147  21695688.937    21695692.177
  22145955.949   -15135842.89449 -11774414.95247  22145955.544    22145957.911
  24341116.349    16607107.59049  12951190.80545  24341115.697    24341122.048
  21083149.805   -22955373.40049 -17829810.29747  21083149.229    21083151.106
 03  4  9  2 34 30.0000000  0  7G18G31G 3G25G11G15G14
  24568749.411    20661169.76649  16209566.12045  24568748.989    24568751.951
  23949749.075    -2924950.35549  -1983051.22345  23949748.424    23949754.569
  24685335.289     3034322.83549   2383992.33145  24685334.729    24685343.566
  21682252.929   -19193778.65849 -14930756.17747  21682252.649    21682255.870
  22133119.277   -15203299.65749 -11826978.62347  22133118.891    22133121.303
  24362787.714    16720990.44649  13039930.66345  24362786.904    24362793.213
  21094197.700   -22897316.32449 -17784571.01147  21094197.161    21094198.920
 03  4  9  2 35  0.0000000  0  7G18G31G 3G25G11G15G14
  24583438.611    20738361.34249  16269715.40445  24583438.140    24583441.271
  23964289.327    -2848540.59349  -1923511.21845  23964288.848    23964294.895
  24701354.075     3118502.03249   2449586.33745  24701353.558    24701362.476
  21668889.362   -19264004.22949 -14985477.34047  21668889.110    21668892.274
  22120357.062   -15270365.22549 -11879237.47047  22120356.696    22120359.101
  24384481.009    16834989.62249  13128761.15845  24384480.315    24384486.615
  21105295.361   -22838998.02649 -17739128.17847  21105294.778    21105296.506
 03  4  9  2 35 30.0000000  0  7G18G31G 3G25G11G15G14
  24598145.627    20815647.04149  16329938.02745  24598145.039    24598148.239
  23978859.989    -2771971.44449  -1863847.01145  23978859.411    23978865.582
  24717360.424     3202615.29549   2515128.96445  24717359.817    24717368.914
  21655599.480   -19333842.91149 -15039897.02047  21655599.191    21655602.342
  22107670.174   -15337035.16749 -11931188.02847  22107669.789    22107672.207
  24406196.494    16949105.13649  13217682.30045  24406195.802    24406202.062
  21116442.777   -22780418.10849 -17693481.48547  21116442.191    21116443.890
 03  4  9  2 36  0.0000000  0  6G31G 3G25G11G15G14
  23993458.729    -2695255.32249  -1804068.30145  23993458.134    23993464.280
  24733352.073     3286650.92649   2580611.08945  24733351.577    24733360.513
  21642381.825   -19403301.78649 -15094020.74147  21642381.551    21642384.700
  22095057.290   -15403316.22949 -11982835.56747  22095056.901    22095059.328
  24427931.973    17063325.66649  13306685.30345  24427931.245    24427937.514
  21127637.778   -22721587.83549 -17647639.70647  21127637.181    21127638.902
 03  4  9  2 36 30.0000000  0  6G31G 3G25G11G15G14
  24008086.849    -2618383.85749  -1744168.53145  24008086.238    24008092.469
  24749330.477     3370617.62749   2646039.50945  24749329.975    24749338.919
  21629239.047   -19472367.08649 -15147837.78547  21629238.810    21629241.952
  22082520.937   -15469195.10949 -12034169.72347  22082520.519    22082522.909
  24449689.097    17177660.45749  13395777.31445  24449688.363    24449694.665
  21138882.227   -22662497.85549 -17601595.56347  21138881.647    21138883.401
 03  4  9  2 37  0.0000000  0  6G31G 3G25G11G15G14
  24022743.997    -2541360.77549  -1684150.62345  24022743.311    24022749.585
  24765295.163     3454511.97049   2711411.53645  24765294.563    24765303.578
  21616171.491   -19541037.52349 -15201347.14747  21616171.206    21616174.312
  22070061.397   -15534670.39449 -12085189.39047  22070060.985    22070063.317
  24471467.539    17292106.73249  13484956.20745  24471466.846    24471473.277
  21150175.545   -22603151.06349 -17555351.30547  21150174.959    21150176.724
 03  4  9  2 37 30.0000000  0  6G31G 3G25G11G15G14
  24037428.907    -2464191.22649  -1624018.57945  24037428.215    24037434.533
  24781245.267     3538329.18349   2776723.46545  24781244.451    24781253.597
  21603179.120   -19609312.71949 -15254548.52847  21603178.811    21603181.927
  22057678.619   -15599742.05649 -12135894.53647  22057678.197    22057680.614
  24493266.390    17406660.05349  13574218.49845  24493265.625    24493272.080
  21161516.958   -22543551.39849 -17508910.00947  21161516.377    21161518.152
 03  4  9  2 38  0.0000000  0  5G31G25G11G15G14
  24052142.356    -2386870.83649  -1563768.98745  24052141.839    24052148.188
  21590263.714   -19677183.08849 -15307434.45847  21590263.452    21590266.545
  22045374.563   -15664400.18749 -12186277.44847  22045374.135    22045376.581
  24515086.617    17521325.78849  13663568.39645  24515085.740    24515092.203
  21172907.479   -22483693.28449 -17462267.30747  21172906.932    21172908.785
 03  4  9  2 38 30.0000000  0  5G31G25G11G15G14
  24066882.814    -2309410.21049  -1503410.13945  24066882.265    24066888.561
  21577424.312   -19744654.19049 -15360009.27747  21577424.070    21577427.108
  22033148.137   -15728650.46349 -12236342.56547  22033147.729    22033150.132
  24536926.386    17636094.31549  13752998.40245  24536925.480    24536931.840
  21184345.365   -22423586.47049 -17415430.82547  21184344.853    21184346.731
 03  4  9  2 39  0.0000000  0  5G31G25G11G15G14
  24081648.369    -2231816.64249  -1442947.69245  24081647.792    24081654.278
  21564660.602   -19811727.94349 -15412274.46147  21564660.317    21564663.347
  22020998.895   -15792495.07549 -12286091.57647  22020998.450    22021000.789
  24558784.388    17750959.08249  13842503.38945  24558783.568    24558789.976
  21195829.510   -22363237.12449 -17368405.35147  21195828.943    21195830.854
 03  4  9  2 39 30.0000000  0  5G31G25G11G15G14
  24096439.444    -2154088.84049  -1382380.64745  24096438.942    24096445.334
  21551973.679   -19878397.87149 -15464224.98347  21551973.359    21551976.410
  22008927.995   -15855927.56949 -12335519.45347  22008927.596    22008929.971
  24580661.007    17865922.29449  13932085.07345  24580660.602    24580666.814
  21207360.180   -22302642.86149 -17321189.03547  21207359.611    21207361.493
 03  4  9  2 40  0.0000000  0  5G31G25G11G15G14
  24111255.455    -2076231.01049  -1321712.28245  24111254.935    24111261.351
  21539363.683   -19944663.19749 -15515860.23147  21539363.439    21539366.447
  21996935.776   -15918947.03749 -12384625.48947  21996935.388    21996937.734
  24602556.015    17980980.53449  14021740.81745  24602555.476    24602561.678
  21218936.915   -22241806.97449 -17273784.44447  21218936.316    21218938.192
 03  4  9  2 40 30.0000000  0  5G31G25G11G15G14
  24126095.282    -1998246.78449  -1260945.42445  24126094.842    24126101.388
  21526831.153   -20010522.13749 -15567178.80847  21526830.875    21526833.810
  21985022.505   -15981551.64349 -12433408.26547  21985022.106    21985024.413
  24624468.437    18096130.99249  14111468.41945  24624467.826    24624474.024
  21230559.098   -22180732.15049 -17226193.66047  21230558.500    21230560.342
 03  4  9  2 41  0.0000000  0  5G31G25G11G15G14
  24140959.115    -1920137.41249  -1200081.05045  24140958.582    24140965.142
  21514376.703   -20075970.56549 -15618177.51247  21514376.387    21514379.314
  21973188.787   -16043737.82249 -12481864.99147  21973188.398    21973190.692
  24646398.129    18211373.35549  14201267.61945  24646397.625    24646403.914
  21242226.694   -22119418.48349 -17178416.76447  21242226.103    21242227.935
 03  4  9  2 41 30.0000000  0  5G31G25G11G15G14
  24155846.142    -1841905.57249  -1139121.25345  24155845.636    24155852.236
  21502000.765   -20141006.24049 -15668854.59147  21502000.455    21502003.383
  21961435.223   -16105503.00749 -12529993.65747  21961434.825    21961437.189
  24668345.100    18326705.80649  14291137.05445  24668344.680    24668351.051
  21253939.400   -22057867.72849 -17130455.14347  21253938.804    21253940.644
 03  4  9  2 42  0.0000000  0  4G31G25G11G14
  24170754.322    -1763563.13749  -1078075.28445  24170753.735    24170760.436
  21489702.029   -20205636.02949 -15719215.39547  21489701.709    21489704.674
  21949760.491   -16166854.08649 -12577799.65347  21949760.107    21949762.416
  21265695.219   -21996090.39649 -17082316.95447  21265694.646    21265696.469
 03  4  9  2 42 30.0000000  0  4G31G25G11G14
  24185684.149    -1685106.56449  -1016940.36645  24185683.569    24185690.244
  21477482.133   -20269851.29949 -15769253.19847  21477481.879    21477484.859
  21938166.255   -16227782.23349 -12625276.09747  21938165.834    21938168.138
  21277495.052   -21934081.93049 -17033998.65647  21277494.467    21277496.247
 03  4  9  2 43  0.0000000  0  4G31G25G11G14
  24200636.054    -1606533.46549   -955714.65045  24200635.558    24200642.272
  21465342.690   -20333644.36449 -15818962.01247  21465342.413    21465345.376
  21926653.803   -16288280.05249 -12672417.21247  21926653.384    21926655.727
  21289339.518   -21871839.05149 -16985497.69647  21289338.897    21289340.660
 03  4  9  2 43 30.0000000  0  4G31G25G11G14
  24215609.988    -1527846.31649   -894400.07845  24215609.372    24215615.943
  21453284.003   -20397012.77149 -15868339.92547  21453283.721    21453286.677
  21915223.740   -16348345.34049 -12719221.29047  21915223.327    21915225.645
  21301228.305   -21809363.02749 -16936815.07147  21301227.687    21301229.471
 03  4  9  2 44  0.0000000  0  4G31G25G11G14
  24230604.338    -1449050.58749   -833000.89645  24230603.722    24230610.465
  21441306.134   -20459956.72249 -15917387.09347  21441305.843    21441308.769
  21903876.049   -16407978.09749 -12765688.34547  21903875.642    21903877.880
  21313160.550   -21746658.31049 -16887954.24347  21313159.937    21313161.708
 03  4  9  2 44 30.0000000  0  4G31G25G11G14
  24245618.596    -1370150.72349   -771520.56945  24245617.958    24245624.752
  21429409.164   -20522475.45149 -15966102.91647  21429408.879    21429411.785
  21892610.646   -16467177.87749 -12811817.99647  21892610.241    21892612.537
  21325135.736   -21683728.23549 -16838917.81247  21325135.146    21325136.907
 03  4  9  2 45  0.0000000  0  4G31G25G11G14
  24260652.239    -1291148.39549   -709960.38945  24260651.600    24260658.449
  21417593.664   -20584565.96049 -16014485.06747  21417593.409    21417596.297
  21881428.303   -16525941.18149 -12857607.54747  21881427.913    21881430.171
  21337153.661   -21620573.59249 -16789706.39647  21337153.086    21337154.828
 03  4  9  2 45 30.0000000  0  4G31G25G11G14
  24275704.482    -1212048.49449   -648324.18345  24275703.890    24275710.688
  21405859.718   -20646228.04149 -16062533.37147  21405859.452    21405862.314
  21870329.041   -16584268.06049 -12903057.02747  21870328.647    21870330.886
  21349213.699   -21557197.95349 -16740322.76647  21349213.097    21349214.813
 03  4  9  2 46  0.0000000  0  4G31G25G11G14
  24290774.955    -1132853.28349   -586613.69945  24290774.326    24290781.059
  21394207.731   -20707459.28549 -16110245.96547  21394207.468    21394210.320
  21859313.306   -16642155.90849 -12948164.40847  21859312.903    21859315.134
  21361315.474   -21493602.58649 -16690767.92447  21361314.870    21361316.593
 03  4  9  2 46 30.0000000  0  4G31G25G11G14
  24305862.867    -1053566.70049   -524832.03345  24305862.201    24305868.871
  21382638.065   -20768258.24949 -16157621.71247  21382637.768    21382640.605
  21848381.379   -16699603.50549 -12992928.73847  21848380.981    21848383.196
  21373458.490   -21429790.62949 -16641044.31347  21373457.893    21373459.623
 03  4  9  2 47  0.0000000  0  4G31G25G11G14
  24320967.383     -974191.73349   -462981.48745  24320966.845    24320973.468
  21371150.926   -20828623.05849 -16204659.15847  21371150.660    21371153.479
  21837533.648   -16756608.50449 -13037348.18347  21837533.240    21837535.485
  21385642.435   -21365763.64749 -16591153.14247  21385641.828    21385643.544
 03  4  9  2 47 30.0000000  0  4G31G25G11G14
  24336088.690     -894728.71949   -401062.31745  24336088.117    24336094.819
  21359747.335   -20888549.29049 -16251354.85547  21359747.055    21359749.844
  21826770.925   -16813166.68049 -13081419.45647  21826770.521    21826772.786
  21397867.339   -21301521.14749 -16541094.04247  21397866.715    21397868.447
 03  4  9  2 48  0.0000000  0  4G31G25G11G14
  24351225.973     -815182.79349   -339078.56345  24351225.357    24351231.920
  21348427.159   -20948036.96149 -16297708.82047  21348426.882    21348429.644
  21816093.311   -16869278.07149 -13125142.59047  21816092.903    21816095.134
  21410132.530   -21237066.97249 -16490870.00147  21410131.904    21410133.664
 03  4  9  2 48 30.0000000  0  4G31G25G11G14
  24366378.081     -735558.36449   -277033.61845  24366377.458    24366383.938
  21337190.437   -21007085.76149 -16343720.80647  21337190.191    21337192.931
  21805500.689   -16924942.38349 -13168517.35547  21805500.276    21805502.478
  21422437.269   -21172404.66049 -16440483.76747  21422436.676    21422438.515
 03  4  9  2 49  0.0000000  0  4G31G25G11G14
  24381545.048     -655855.41949   -214927.48045  24381544.408    24381550.909
  21326038.227   -21065690.85649 -16389387.05247  21326037.961    21326040.705
  21794994.121   -16980154.47349 -13211539.73547  21794993.710    21794995.933
  21434781.908   -21107532.82249 -16389934.27347  21434781.330    21434783.222
 03  4  9  2 49 30.0000000  0  4G31G25G11G14
  24396725.848     -576080.14349   -152765.00545  24396725.188    24396731.754
  21314970.196   -21123853.26349 -16434708.34447  21314969.974    21314972.705
  21784573.368   -17034915.84549 -13254210.90247  21784572.954    21784575.186
  21447165.441   -21042456.70649 -16339225.60247  21447164.887    21447166.757
 03  4  9  2 50  0.0000000  0  4G31G25G11G14
  24411920.456     -496232.35449    -90546.01345  24411919.759    24411926.336
  21303987.382   -21181568.44149 -16479681.14347  21303987.107    21303989.829
  21774239.396   -17089221.22049 -13296526.75847  21774238.988    21774241.125
  21459588.166   -20977175.09849 -16288356.80647  21459587.587    21459589.427
 03  4  9  2 50 30.0000000  0  4G31G25G11G14
  24427127.769     -416318.50749    -28275.55845  24427127.022    24427133.509
  21293089.383   -21238837.54949 -16524306.35947  21293089.081    21293091.802
  21763991.808   -17143072.36449 -13338488.65547  21763991.402    21763993.562
  21472048.962   -20911693.18049 -16237331.92147  21472048.410    21472050.226
 03  4  9  2 51  0.0000000  0  4G31G25G11G14
  24442347.413     -336337.46549     34047.27345  24442346.856    24442353.530
  21282277.391   -21295654.66849 -16568579.37647  21282277.096    21282279.823
  21753831.913   -17196462.95249 -13380091.68347  21753831.516    21753833.644
  21484548.261   -20846008.95349 -16186149.39047  21484547.687    21484549.530
 03  4  9  2 51 30.0000000  0  4G31G25G11G14
  24457579.273     -256294.03749     96418.68745  24457578.720    24457585.509
  21271551.368   -21352019.76349 -16612500.17447  21271551.122    21271553.823
  21743759.656   -17249393.05049 -13421335.88847  21743759.229    21743761.356
  21497085.384   -20780125.97049 -16134811.98247  21497084.808    21497086.630
 03  4  9  2 52  0.0000000  0  4G31G25G11G14
  24472821.998     -176192.43049    158835.46045  24472821.438    24472828.426
  21260911.515   -21407932.52349 -16656068.50147  21260911.238    21260913.917
  21733775.034   -17301862.34149 -13462221.02247  21733774.631    21733776.717
  21509659.757   -20714047.37949 -16083322.16747  21509659.143    21509660.943
 03  4  9  2 52 30.0000000  0  4G31G25G11G14
  24488076.057      -96032.48549    221297.67045  24488075.418    24488082.305
  21250358.605   -21463388.13049 -16699280.60647  21250358.323    21250360.991
  21723879.127   -17353865.82149 -13502743.18847  21723878.712    21723880.770
  21522271.542   -20647772.03749 -16031679.03747  21522270.932    21522272.719
 03  4  9  2 53  0.0000000  0  4G31G25G11G14
  24503340.135      -15820.38349    283800.52545  24503339.401    24503346.113
  21239892.470   -21518387.86049 -16742137.47747  21239892.179    21239894.818
  21714071.548   -17405404.67449 -13542903.30047  21714071.141    21714073.219
  21534919.802   -20581304.86949 -15979886.42447  21534919.206    21534920.949
 03  4  9  2 53 30.0000000  0  4G31G25G11G14
  24518613.075       64439.16949    346340.36745  24518612.318    24518619.064
  21229512.997   -21572931.91049 -16784639.28247  21229512.724    21229515.385
  21704352.373   -17456478.90649 -13582701.36947  21704351.950    21704354.069
  21547603.930   -20514649.35549 -15927947.04347  21547603.325    21547605.030
 03  4  9  2 54  0.0000000  0  4G31G25G11G14
  24533895.412      144749.14749    408919.48545  24533894.758    24533901.658
  21219221.807   -21627012.30449 -16826779.79847  21219221.529    21219224.158
  21694723.104   -17507081.02849 -13622131.57047  21694722.706    21694724.784
  21560324.577   -20447801.71149 -15875857.95847  21560323.988    21560325.651
 03  4  9  2 54 30.0000000  0  4G31G25G11G14
  24549186.420      225103.82149    471533.43645  24549185.752    24549192.912
  21209018.615   -21680630.39149 -16868560.06847  21209018.322    21209020.904
  21685183.563   -17557211.76549 -13661194.45147  21685183.170    21685185.233
  21573080.950   -20380766.31849 -15823622.57747  21573080.357    21573082.008
 03  4  9  2 55  0.0000000  0  4G31G25G11G14
  24564485.539      305501.34549    534180.78445  24564484.941    24564492.183
  21198903.873   -21733783.32749 -16909977.88747  21198903.595    21198906.178
  21675734.151   -17606868.50449 -13699887.98847  21675733.772    21675735.835
  21585872.852   -20313544.22649 -15771241.71347  21585872.292    21585873.923
 03  4  9  2 55 30.0000000  0  5G31G20G25G11G14
  24579791.461      385933.87049    596855.40145  24579790.925    24579798.143
  24719027.865    -3751776.26959  -2898428.21045  24719026.993    24719032.902
  21188877.045   -21786474.47249 -16951035.86747  21188876.766    21188879.373
  21666374.410   -17656054.34949 -13738214.59547  21666374.022    21666376.049
  21598699.067   -20246142.16249 -15718720.61247  21598698.492    21598700.138
 03  4  9  2 56  0.0000000  0  5G31G20G25G11G14
  24595104.807      466405.12049    659560.18445  24595104.134    24595111.394
  24702730.331    -3837421.37149  -2965164.52145  24702729.386    24702734.914
  21178939.652   -21838695.36149 -16991727.41547  21178939.405    21178942.000
  21657105.885   -17704760.52749 -13776167.43247  21657105.508    21657107.553
  21611560.464   -20178554.94649 -15666055.22647  21611559.868    21611561.562
 03  4  9  2 56 30.0000000  0  5G31G20G25G11G14
  24610423.728      546906.59149    722288.53245  24610423.058    24610430.393
  24686425.944    -3923100.49749  -3031927.36445  24686425.084    24686430.630
  21169091.058   -21890450.04549 -17032055.68547  21169090.784    21169093.365
  21647927.919   -17752991.23449 -13813749.77747  21647927.532    21647929.554
  21624455.583   -20110790.23949 -15613251.54747  21624454.991    21624456.747
 03  4  9  2 57  0.0000000  0  5G31G20G25G11G14
  24625748.961      627440.46249    785042.11645  24625748.199    24625755.647
  24670116.185    -4008808.26649  -3098712.51645  24670115.306    24670120.766
  21159332.403   -21941731.86549 -17072015.49247  21159332.129    21159334.702
  21638841.696   -17800739.55249 -13850956.23447  21638841.282    21638843.293
  21637385.101   -20042844.67849 -15560306.94847  21637384.540    21637386.351
 03  4  9  2 57 30.0000000  0  5G31G20G25G11G14
  24641079.203      708001.65149    847816.99045  24641078.557    24641085.994
  24653800.519    -4094546.21949  -3165521.19345  24653799.709    24653805.157
  21149663.714   -21992540.89049 -17111606.88647  21149663.463    21149666.025
  21629847.141   -17848006.03349 -13887787.23147  21629846.749    21629848.764
  21650348.351   -19974722.19749 -15507224.48847  21650347.826    21650349.618
 03  4  9  2 58  0.0000000  0  5G31G20G25G11G14
  24656414.319      788588.09549    910611.54745  24656413.720    24656421.091
  24637479.526    -4180312.99549  -3232352.32545  24637478.828    24637484.396
  21140085.384   -22042875.12749 -17150828.31747  21140085.114    21140087.664
  21620944.805   -17894788.05649 -13924240.73347  21620944.402    21620946.414
  21663345.186   -19906423.70749 -15454004.87247  21663344.609    21663346.355
 03  4  9  2 58 30.0000000  0  5G31G20G25G11G14
  24671753.450      869194.73649    973421.84345  24671752.771    24671760.191
  24621152.880    -4266110.12249  -3299207.08845  24621152.271    24621157.648
  21130597.305   -22092735.24249 -17189680.29747  21130597.022    21130599.578
  21612134.503   -17941086.25449 -13960317.21847  21612134.101    21612136.137
  21676374.754   -19837953.26449 -15400651.26047  21676374.178    21676375.833
 03  4  9  2 59  0.0000000  0  5G31G20G25G11G14
  24687095.968      949820.26249   1036246.85245  24687095.339    24687102.734
  24604820.772    -4351935.50349  -3366083.88745  24604820.078    24604825.503
  21121200.079   -22142117.66049 -17228160.04947  21121199.798    21121202.350
  21603417.000   -17986897.06049 -13996013.92247  21603416.586    21603418.627
  21689436.957   -19769311.06149 -15347163.81947  21689436.356    21689437.984
 03  4  9  2 59 30.0000000  0  5G31G20G25G11G14
  24702441.277     1030460.71949   1099083.50945  24702440.716    24702448.107
  24588483.195    -4437789.92149  -3432983.30545  24588482.458    24588487.786
  21111893.859   -22191022.11349 -17266267.36047  21111893.580    21111896.085
  21594792.246   -18032220.20849 -14031330.63847  21594791.857    21594793.848
  21702531.310   -19700499.73149 -15293544.58947  21702530.701    21702532.307
 03  4  9  3  0  0.0000000  0  5G31G20G25G11G14
  24717789.242     1111114.30249   1161930.37845  24717788.651    24717795.993
  24572140.262    -4523671.75649  -3499904.10345  24572139.562    24572144.789
  21102679.026   -22239446.21549 -17304000.36947  21102678.730    21102681.212
  21586260.831   -18077053.03749 -14066265.27847  21586260.433    21586262.431
  21715657.656   -19631520.16949 -15239794.27147  21715657.063    21715658.629
 03  4  9  3  0 30.0000000  0  5G31G20G25G11G14
  24733139.030     1191778.13149   1224785.25545  24733138.554    24733145.820
  24555792.347    -4609580.29949  -3566845.69845  24555791.510    24555796.982
  21093555.881   -22287388.41749 -17341357.87347  21093555.605    21093558.054
  21577823.058   -18121393.54149 -14100816.28747  21577822.664    21577824.695
  21728815.698   -19562374.01449 -15185914.13547  21728815.084    21728816.684
 03  4  9  3  1  0.0000000  0  5G31G20G25G11G14
  24748490.441     1272449.19149   1287645.76145  24748489.797    24748497.302
  24539439.392    -4695515.21949  -3633807.86445  24539438.530    24539443.890
  21084524.694   -22334847.37749 -17378338.82347  21084524.428    21084526.851
  21569479.252   -18165240.51949 -14134982.73047  21569478.851    21569480.863
  21742004.998   -19493063.13849 -15131905.64047  21742004.434    21742006.097
 03  4  9  3  1 30.0000000  0  5G31G20G25G11G14
  24763842.396     1353124.38149   1350509.47045  24763841.768    24763849.319
  24523081.542    -4781476.14849  -3700790.28845  24523080.705    24523085.989
  21075585.712   -22381821.84449 -17414942.24948  21075585.446    21075587.842
  21561229.601   -18208592.61949 -14168763.56247  21561229.192    21561231.175
  21755225.298   -19423589.68949 -15077770.47447  21755224.741    21755226.422
 03  4  9  3  2  0.0000000  0  5G31G20G25G11G14
  24779194.724     1433801.03749   1413374.34145  24779194.110    24779201.632
  24506718.777    -4867462.48549  -3767792.52245  24506717.962    24506723.037
  21066739.286   -22428309.98349 -17451166.71648  21066739.000    21066741.369
  21553074.355   -18251448.35249 -14202157.60647  21553073.968    21553076.000
  21768476.321   -19353955.07549 -15023509.73547  21768475.748    21768477.498
 03  4  9  3  2 30.0000000  0  5G31G20G25G11G14
  24794546.828     1514476.68549   1476238.43245  24794546.232    24794553.779
  24490351.346    -4953472.96449  -3834813.57545  24490350.524    24490355.583
  21057985.708   -22474310.12249 -17487010.92848  21057985.430    21057987.783
  21545014.024   -18293805.48949 -14235163.13647  21545013.637    21545015.672
  21781757.700   -19284160.72749 -14969124.51647  21781757.133    21781758.918
 03  4  9  3  3  0.0000000  0  5G31G20G25G11G14
  24809897.914     1595146.82349   1539098.21745  24809897.375    24809904.912
  24473979.084    -5039508.95749  -3901854.49745  24473978.428    24473983.316
  21049324.962   -22519822.68549 -17522475.20848  21049324.656    21049326.975
  21537048.628   -18335663.99449 -14267780.12247  21537048.222    21537050.270
  21795068.897   -19214209.90649 -14914617.37747  21795068.338    21795070.107
 03  4  9  3  3 30.0000000  0  5G31G20G25G11G14
  24825247.600     1675809.54049   1601952.21945  24825246.959    24825254.459
  24457602.416    -5125568.80649  -3968914.02245  24457601.755    24457606.580
  21040757.423   -22564844.93849 -17557557.43348  21040757.137    21040759.472
  21529178.478   -18377021.61749 -14300006.81847  21529178.070    21529180.084
  21808409.764   -19144103.21949 -14859988.78147  21808409.182    21808410.931
 03  4  9  3  4  0.0000000  0  5G31G20G25G11G14
  24840595.651     1756463.52349   1664799.42445  24840594.975    24840602.491
  24441221.433    -5211650.61649  -4035990.67645  24441220.675    24441225.783
  21032283.794   -22609374.11849 -17592255.44048  21032283.483    21032285.813
  21521404.291   -18417875.22349 -14331840.76847  21521403.892    21521405.865
  21821780.225   -19073841.15749 -14805239.11447  21821779.656    21821781.345
 03  4  9  3  4 30.0000000  0  5G31G20G25G11G14
  24855940.976     1837103.80749   1727635.95445  24855940.411    24855947.930
  24424836.158    -5297755.66349  -4103085.41745  24424835.309    24424840.303
  21023903.744   -22653411.14549 -17626569.95948  21023903.455    21023905.761
  21513725.903   -18458225.33349 -14363282.38647  21513725.508    21513727.471
  21835179.504   -19003427.51349 -14750371.33347  21835178.950    21835180.610
 03  4  9  3  5  0.0000000  0  5G31G20G25G11G14
  24871283.566     1917729.53249   1790461.13345  24871282.878    24871290.480
  24408446.842    -5383881.48649  -4170196.35845  24408445.944    24408451.160
  21015618.023   -22696952.91249 -17660498.55848  21015617.731    21015620.003
  21506143.893   -18498068.92949 -14394329.31847  21506143.507    21506145.461
  21848607.739   -18932861.84149 -14695385.08647  21848607.154    21848608.777
 03  4  9  3  5 30.0000000  0  5G31G20G25G11G14
  24886622.592     1998336.79249   1853271.92545  24886621.990    24886629.522
  24392053.508    -5470028.56749  -4237323.86145  24392052.613    24392057.869
  21007426.602   -22739998.79149 -17694040.75148  21007426.292    21007428.587
  21498658.325   -18537405.64749 -14424981.28147  21498657.919    21498659.866
  21862064.373   -18862146.95049 -14640282.56147  21862063.768    21862065.371
 03  4  9  3  6  0.0000000  0  5G31G20G25G11G14
  24901957.378     2078921.97949   1916065.50645  24901956.893    24901964.472
  24375656.092    -5556197.03549  -4304468.04145  24375655.215    24375660.445
  20999329.608   -22782548.32349 -17727196.18948  20999329.337    20999331.623
  21491269.400   -18576234.67449 -14455237.63847  21491269.004    21491270.930
  21875548.864   -18791285.36649 -14585065.73547  21875548.283    21875549.843
 03  4  9  3  6 30.0000000  0  5G31G20G25G11G14
  24917287.807     2159483.27549   1978840.47645  24917287.151    24917294.749
  24359255.024    -5642385.32949  -4371627.65645  24359254.170    24359259.198
  20991327.499   -22824599.66349 -17759963.42448  20991327.217    20991329.481
  21483977.550   -18614553.50249 -14485096.43847  21483977.172    21483979.072
  21889061.196   -18720277.80249 -14529735.15847  21889060.579    21889062.123
 03  4  9  3  7  0.0000000  0  4G20G25G11G14
  24342850.857    -5728589.29249  -4438799.49445  24342850.146    24342855.066
  20983421.151   -22866147.74549 -17792338.50848  20983420.860    20983423.113
  21476783.725   -18652357.19149 -14514553.83047  21476783.322    21476785.243
  21902601.571   -18649122.49149 -14474289.45447  21902600.955    21902602.495
 03  4  9  3  7 30.0000000  0  4G20G25G11G14
  24326444.906    -5814802.97449  -4505978.88945  24326444.083    24326449.004
  20975611.725   -22907186.45449 -17824316.68148  20975611.416    20975613.660
  21469689.188   -18689639.10849 -14543604.65647  21469688.774    21469690.679
  21916170.795   -18577815.62749 -14418725.66447  21916170.191    21916171.743
 03  4  9  3  8  0.0000000  0  4G20G25G11G14
  24310034.584    -5901039.85249  -4573176.36345  24310033.814    24310038.597
  20967896.843   -22947728.07849 -17855907.52148  20967896.577    20967898.811
  21462691.520   -18726412.06749 -14572258.88647  21462691.108    21462693.011
  21929765.861   -18506373.04149 -14363056.11447  21929765.249    21929766.809
 03  4  9  3  8 30.0000000  0  4G20G25G11G14
  24293620.487    -5987296.39549  -4640389.16445  24293619.617    24293624.412
  20960277.300   -22987768.85949 -17887108.08448  20960277.022    20960279.232
  21455791.448   -18762671.98249 -14600513.33747  21455791.025    21455792.944
  21943386.940   -18434793.60349 -14307279.92247  21943386.360    21943387.938
 03  4  9  3  9  0.0000000  0  4G20G25G11G14
  24277202.848    -6073570.87049  -4707615.94845  24277202.063    24277206.984
  20952753.553   -23027306.18149 -17917916.35048  20952753.281    20952755.478
  21448989.550   -18798416.17349 -14628365.93347  21448989.144    21448991.024
  21957034.024   -18363077.47849 -14251397.21547  21957033.452    21957035.056
 03  4  9  3  9 30.0000000  0  4G20G25G11G14
  24260781.986    -6159863.52649  -4774856.88445  24260781.170    24260785.908
  20945325.590   -23066340.27549 -17948332.48748  20945325.303    20945327.492
  21442285.783   -18833644.62749 -14655816.64947  21442285.365    21442287.264
  21970706.610   -18291227.61449 -14195410.29647  21970706.037    21970707.651
 03  4  9  3 10  0.0000000  0  4G20G25G11G14
  24244358.233    -6246170.80949  -4842109.22545  24244357.361    24244362.148
  20937994.124   -23104867.02149 -17978353.29148  20937993.869    20937996.047
  21435681.005   -18868352.73049 -14682861.90447  21435680.627    21435682.499
  21984404.915   -18219242.58649 -14139318.06147  21984404.324    21984405.945
 03  4  9  3 10 30.0000000  0  4G20G25G11G14
  24227931.534    -6332493.20249  -4909373.33545  24227930.653    24227935.554
  20930759.282   -23142886.46149 -18007978.79148  20930759.007    20930761.187
  21429175.252   -18902540.68049 -14709501.84147  21429174.851    21429176.730
  21998128.402   -18147125.11649 -14083122.62147  21998127.843    21998129.467
 03  4  9  3 11  0.0000000  0  4G20G25G11G14
  24211502.451    -6418828.31349  -4976647.34845  24211501.606    24211506.482
  20923621.374   -23180396.08049 -18037207.02748  20923621.119    20923623.284
  21422769.000   -18936205.60549 -14735734.22347  21422768.596    21422770.498
  22011877.114   -18074875.28049 -14026824.03847  22011876.515    22011878.136
 03  4  9  3 11 30.0000000  0  4G20G25G11G14
  24195070.572    -6505178.30649  -5043932.95645  24195069.752    24195074.548
  20916580.248   -23217397.47949 -18066039.24048  20916579.953    20916582.128
  21416461.975   -18969349.05449 -14761560.26147  21416461.572    21416463.435
  22025650.134   -18002497.51049 -13970425.76947  22025649.550    22025651.130
 03  4  9  3 12  0.0000000  0  4G20G25G11G14
  24178636.607    -6591539.09049  -5111226.97145  24178635.779    24178640.596
  20909636.577   -23253886.24249 -18094472.00748  20909636.330    20909638.482
  21410255.002   -19001966.76449 -14786976.63847  21410254.609    21410256.485
  22039447.839   -17929990.25449 -13913926.60147  22039447.238    22039448.789
 03  4  9  3 12 30.0000000  0  4G20G25G11G14
  24162200.206    -6677912.19449  -5178530.58845  24162199.397    24162204.344
  20902790.374   -23289863.40049 -18122506.11448  20902790.070    20902792.193
  21404147.981   -19034059.35349 -14811983.82547  21404147.597    21404149.463
  22053269.463   -17857357.05249 -13857329.29247  22053268.860    22053270.425
 03  4  9  3 13  0.0000000  0  4G20G25G11G14
  24145761.986    -6764294.71249  -5245841.53945  24145761.237    24145766.126
  20896042.050   -23325326.12049 -18150139.36648  20896041.722    20896043.851
  21398141.520   -19065623.46749 -14836579.22147  21398141.125    21398142.960
  22067115.146   -17784597.17649 -13800633.28547  22067114.574    22067116.129
 03  4  9  3 13 30.0000000  0  4G20G25G11G14
  24129321.795    -6850687.93949  -5313160.83345  24129321.019    24129325.909
  20889391.399   -23360275.16449 -18177372.34648  20889391.076    20889393.224
  21392235.464   -19096659.81449 -14860763.36047  21392235.064    21392236.933
  22080984.307   -17711714.22349 -13743841.37147  22080983.733    22080985.270
 03  4  9  3 14  0.0000000  0  4G20G25G11G14
  24112879.973    -6937089.97749  -5380486.98145  24112879.072    24112884.062
  20882838.884   -23394708.58349 -18204203.54248  20882838.592    20882840.729
  21386430.255   -19127166.56549 -14884534.83647  21386429.853    21386431.659
  22094876.773   -17638708.95249 -13686954.14647  22094876.166    22094877.688
 03  4  9  3 14 30.0000000  0  4G20G25G11G14
  24096436.563    -7023500.21249  -5447819.53745  24096435.625    24096440.616
  20876384.639   -23428625.79649 -18230632.50048  20876384.340    20876386.449
  21380725.973   -19157142.64649 -14907892.79647  21380725.572    21380727.376
  22108792.220   -17565582.81749 -13629972.74147  22108791.612    22108793.141
 03  4  9  3 15  0.0000000  0  4G20G25G11G14
  24079991.554    -7109918.92249  -5515158.67945  24079990.539    24079995.581
  20870028.637   -23462026.56349 -18256659.03048  20870028.360    20870030.436
  21375122.672   -19186588.10449 -14930837.28347  21375122.281    21375124.099
  22122730.111   -17492338.34349 -13572899.12247  22122729.523    22122731.093
 03  4  9  3 15 30.0000000  0  4G20G25G11G14
  24063545.239    -7196344.13949  -5582502.91545  24063544.195    24063549.277
  20863771.310   -23494909.03149 -18282281.69548  20863771.022    20863773.085
  21369620.939   -19215499.91749 -14953365.95147  21369620.530    21369622.313
  22136690.488   -17418975.92449 -13515733.60047  22136689.879    22136691.509
 03  4  9  3 16  0.0000000  0  4G20G25G11G14
  24047097.931    -7282774.87149  -5649851.43545  24047097.051    24047101.916
  20857612.807   -23527272.00149 -18307499.55748  20857612.525    20857614.575
  21364220.814   -19243877.56149 -14975478.37547  21364220.388    21364222.212
  22150673.106   -17345496.73649 -13458477.08847  22150672.528    22150674.120
 03  4  9  3 16 30.0000000  0  4G20G25G11G14
  24030649.777    -7369210.52749  -5717203.79345  24030648.788    24030653.584
  20851553.287   -23559114.78249 -18332312.08448  20851552.990    20851555.039
  21358922.525   -19271720.09149 -14997173.82947  21358922.116    21358923.968
  22164677.663   -17271902.66149 -13401131.05047  22164677.073    22164678.608
 03  4  9  3 17  0.0000000  0  4G20G25G11G14
  24014200.393    -7455652.29449  -5784560.93845  24014199.395    24014204.117
  20845592.552   -23590438.64649 -18356720.25248  20845592.227    20845594.284
  21353725.898   -19299028.37349 -15018452.99047  21353725.513    21353727.308
  22178703.304   -17198197.20649 -13343698.22447  22178702.714    22178704.261
 03  4  9  3 17 30.0000000  0  4G20G25G11G14
  23997750.363    -7542097.66249  -5851920.85945  23997749.384    23997753.940
  20839730.989   -23621241.12749 -18380722.15248  20839730.705    20839732.768
  21348631.481   -19325799.90649 -15039313.90347  21348631.080    21348632.834
  22192750.228   -17124380.17349 -13286178.44847  22192749.659    22192751.231
 03  4  9  3 18  0.0000000  0  4G20G25G11G14
  23981299.946    -7628544.79849  -5919282.17545  23981298.992    23981303.530
  20833969.044   -23651520.22349 -18404316.21848  20833968.754    20833970.785
  21343639.559   -19352032.53849 -15059754.89447  21343639.136    21343640.932
  22206818.305   -17050451.88149 -13228571.98647  22206817.730    22206819.304
 03  4  9  3 18 30.0000000  0  4G20G25G11G14
  23964849.031    -7714994.41049  -5986645.41145  23964848.140    23964852.628
  20828306.541   -23681276.69849 -18427503.05348  20828306.254    20828308.291
  21338750.033   -19377726.92549 -15079776.47447  21338749.621    21338751.426
  22220906.956   -16976415.35249 -13170881.17647  22220906.387    22220907.995
 03  4  9  3 19  0.0000000  0  4G20G25G11G14
  23948397.886    -7801445.45349  -6054009.76445  23948396.990    23948401.475
  20822743.681   -23710509.58649 -18450281.89548  20822743.405    20822745.427
  21333963.235   -19402881.62549 -15099377.51847  21333962.815    21333964.620
  22235016.010   -16902271.96249 -13113107.09347  22235015.409    22235017.032
 03  4  9  3 19 30.0000000  0  4G20G25G11G14
  23931946.919    -7887895.27149  -6121373.15745  23931946.019    23931950.542
  20817280.913   -23739216.38149 -18472650.79348  20817280.617    20817282.648
  21329279.631   -19427493.97349 -15118555.95447  21329279.227    21329281.026
  22249145.474   -16828021.39049 -13055249.49847  22249144.868    22249146.459
 03  4  9  3 20  0.0000000  0  4G20G25G11G14
  23915495.919    -7974345.48349  -6188736.87045  23915495.098    23915499.366
  20811917.934   -23767398.81649 -18494611.10448  20811917.669    20811919.710
  21324698.921   -19451565.64849 -15137313.08647  21324698.519    21324700.314
  22263294.635   -16753667.23249 -12997311.19447  22263293.992    22263295.551
 03  4  9  3 20 30.0000000  0  4G20G25G11G14
  23899045.293    -8060794.20649  -6256099.41545  23899044.416    23899048.629
  20806655.138   -23795055.18849 -18516161.49048  20806654.813    20806656.852
  21320221.490   -19475094.65649 -15155647.35947  21320221.088    21320222.877
  22277463.323   -16679210.05249 -12939292.60747  22277462.694    22277464.277
 03  4  9  3 21  0.0000000  0  4G20G25G11G14
  23882594.968    -8147240.68749  -6323460.20845  23882594.194    23882598.354
  20801492.465   -23822184.85449 -18537301.46448  20801492.187    20801494.205
  21315847.405   -19498080.51149 -15173558.39847  21315847.006    21315848.802
  22291651.255   -16604651.66249 -12881195.15847  22291650.651    22291652.248
 03  4  9  3 21 30.0000000  0  4G20G25G11G14
  23866145.402    -8233682.89249  -6390817.68745  23866144.612    23866148.849
  20796430.378   -23848786.22049 -18558029.77348  20796430.061    20796432.087
  21311577.118   -19520520.98749 -15191044.46247  21311576.713    21311578.515
  22305858.550   -16529991.84449 -12823018.66347  22305857.976    22305859.491
 03  4  9  3 22  0.0000000  0  4G20G25G11G14
  23849696.688    -8320120.65749  -6458171.70145  23849695.959    23849700.229
  20791468.801   -23874859.38649 -18578346.49848  20791468.516    20791470.511
  21307410.581   -19542416.19049 -15208105.64347  21307410.167    21307411.942
  22320084.772   -16455232.98949 -12764764.99647  22320084.148    22320085.654
 03  4  9  3 22 30.0000000  0  4G20G25G11G14
  23833249.010    -8406553.65249  -6525521.99945  23833248.305    23833252.483
  20786607.776   -23900404.24549 -18598251.55448  20786607.461    20786609.427
  21303347.932   -19563765.50449 -15224741.45347  21303347.520    21303349.282
  22334329.398   -16380377.11749 -12706435.73946  22334328.746    22334330.265
 03  4  9  3 23  0.0000000  0  4G20G25G11G14
  23816802.539    -8492980.61549  -6592867.60045  23816801.781    23816805.891
  20781847.426   -23925419.74749 -18617744.12848  20781847.127    20781849.116
  21299389.310   -19584568.06649 -15240951.22247  21299388.900    21299390.661
  22348592.184   -16305425.44749 -12648031.83046  22348591.552    22348593.074
 03  4  9  3 23 30.0000000  0  5G20G25G11G14G 1
  23800356.554    -8579404.79149  -6660211.03045  23800355.797    23800359.900
  20777187.053   -23949910.05149 -18636827.46148  20777186.753    20777188.710
  21295534.060   -19604827.53549 -15256737.80547  21295533.649    21295535.414
  22362872.189   -16230383.30049 -12589557.42146  22362871.596    22362873.092
  24624394.010    -6673300.58259  -5179527.06645  24624393.388    24624401.091
 03  4  9  3 24  0.0000000  0  5G20G25G11G14G 1
  23783909.146    -8665836.24749  -6727560.12645  23783908.413    23783912.439
  20772624.659   -23973885.25849 -18655509.40948  20772624.381    20772626.354
  21291780.250   -19624553.86149 -15272108.94647  21291779.838    21291781.572
  22377167.038   -16155263.04949 -12531022.14746  22377166.440    22377167.995
  24608841.729    -6755027.53049  -5243210.18045  24608841.114    24608848.719
 03  4  9  3 24 30.0000000  0  5G20G25G11G14G 1
  23767465.011    -8752250.09949  -6794895.52445  23767464.307    23767468.310
  20768165.044   -23997320.67849 -18673770.75148  20768164.749    20768166.709
  21288132.538   -19643722.64249 -15287045.64447  21288132.123    21288133.858
  22391481.055   -16080042.04849 -12472408.36546  22391480.471    22391482.098
  24593319.689    -6836595.10149  -5306769.12945  24593319.040    24593326.760
 03  4  9  3 25  0.0000000  0  5G20G25G11G14G 1
  23751023.966    -8838648.30449  -6862218.71145  23751023.259    23751027.216
  20763807.601   -24020219.19649 -18691613.72948  20763807.305    20763809.220
  21284590.511   -19662336.00349 -15301549.54947  21284590.105    21284591.829
  22405813.431   -16004724.92249 -12413719.69446  22405812.848    22405814.521
  24577827.487    -6918005.98549  -5370205.99345  24577826.824    24577834.427
 03  4  9  3 25 30.0000000  0  5G20G25G11G14G 1
  23734585.385    -8925033.63649  -6929531.85645  23734584.629    23734588.518
  20759551.803   -24042583.49949 -18709040.43048  20759551.502    20759553.423
  21281153.624   -19680396.88049 -15315622.94047  21281153.244    21281154.954
  22420163.256   -15929316.33149 -12354959.74546  22420162.674    22420164.287
  24562364.607    -6999262.99049  -5433522.95245  24562363.990    24562371.428
 03  4  9  3 26  0.0000000  0  5G20G25G11G14G 1
  23718149.128    -9011406.15049  -6996835.03745  23718148.378    23718152.273
  20755397.487   -24064414.12149 -18726051.28048  20755397.228    20755399.144
  21277821.802   -19697905.61549 -15329266.09747  21277821.411    21277823.124
  22434530.027   -15853818.79749 -12296130.48346  22434529.428    22434530.963
  24546930.828    -7080367.01949  -5496720.73645  24546930.264    24546937.610
 03  4  9  3 26 30.0000000  0  5G20G25G11G14G 1
  23701715.288    -9097765.86949  -7064128.23245  23701714.505    23701718.541
  20751344.603   -24085712.10149 -18742647.08048  20751344.343    20751346.242
  21274594.996   -19714862.61849 -15342479.32647  21274594.595    21274596.309
  22448913.186   -15778234.69349 -12237233.75746  22448912.551    22448914.090
  24531526.106    -7161318.77349  -5559799.84645  24531525.548    24531532.953
 03  4  9  3 27  0.0000000  0  5G20G25G11G14G 1
  23685284.418    -9184109.76649  -7131409.10745  23685283.630    23685287.804
  20747393.540   -24106474.99849 -18758825.93448  20747393.298    20747395.165
  21271473.655   -19731265.23349 -15355260.56747  21271473.246    21271474.988
  22463312.953   -15702563.04749 -12178268.82946  22463312.313    22463313.895
  24516150.659    -7242115.81149  -5622758.43045  24516150.293    24516157.737
 03  4  9  3 27 30.0000000  0  5G20G25G11G14G 1
  23668856.415    -9270439.05749  -7198678.60345  23668855.652    23668859.754
  20743544.071   -24126704.22749 -18774588.94248  20743543.773    20743545.652
  21268457.524   -19747115.02349 -15367611.03547  21268457.114    21268458.846
  22477728.705   -15626807.65149 -12119238.64846  22477728.082    22477729.672
  24500804.389    -7322760.13349  -5685598.00645  24500804.256    24500811.546
 03  4  9  3 28  0.0000000  0  5G20G25G11G14G 1
  23652431.471    -9356752.63349  -7265935.85645  23652430.673    23652434.638
  20739796.129   -24146399.48049 -18789935.86948  20739795.888    20739797.761
  21265546.663   -19762411.58649 -15379530.42547  21265546.269    21265547.968
  22492160.211   -15550969.69049 -12060144.13046  22492159.601    22492161.124
  24485487.482    -7403251.11149  -5748318.08545  24485487.091    24485494.287
 03  4  9  3 28 30.0000000  0  5G20G25G11G14G 1
  23636009.785    -9443048.88949  -7333179.61445  23636008.952    23636012.908
  20736150.021   -24165559.95049 -18804866.07548  20736149.752    20736151.617
  21262741.339   -19777153.66249 -15391017.73647  21262740.951    21262742.679
  22506607.278   -15475049.77549 -12000985.73846  22506606.631    22506608.147
  24470199.752    -7483587.85749  -5810918.00245  24470199.264    24470206.441
 03  4  9  3 29  0.0000000  0  5G20G25G11G14G 1
  23619591.286    -9529328.28349  -7400410.22645  23619590.418    23619594.443
  20732605.396   -24184186.87349 -18819380.53448  20732605.126    20732606.993
  21260041.330   -19791342.28949 -15402073.79247  21260040.920    21260042.665
  22521069.362   -15399050.68149 -11941765.64946  22521068.769    22521070.295
  24454941.331    -7563771.62249  -5873398.70445  24454940.687    24454947.749
 03  4  9  3 29 30.0000000  0  5G20G25G11G14G 1
  23603176.456    -9615588.51449  -7467625.91045  23603175.612    23603179.621
  20729162.641   -24202278.53849 -18833477.90648  20729162.390    20729164.265
  21257447.002   -19804975.37549 -15412696.95847  21257446.626    21257448.324
  22535546.533   -15322972.39649 -11882483.85046  22535545.956    22535547.483
  24439712.091    -7643800.68149  -5935758.86245  24439711.411    24439718.457
 03  4  9  3 30  0.0000000  0  5G20G25G11G14G 1
  23586765.545    -9701828.08449  -7534825.48645  23586764.742    23586768.740
  20725821.920   -24219834.03949 -18847157.48948  20725821.642    20725823.527
  21254958.584   -19818052.13949 -15422886.63047  21254958.179    21254959.882
  22550038.709   -15246815.60549 -11823140.87446  22550038.094    22550039.579
  24424512.410    -7723674.22849  -5997997.87545  24424511.803    24424518.814
 03  4  9  3 30 30.0000000  0  5G20G25G11G14G 1
  23570358.689    -9788046.11849  -7602008.28045  23570357.891    23570361.926
  20722583.209   -24236853.35949 -18860419.27248  20722582.954    20722584.823
  21252576.046   -19830572.31949 -15432642.60347  21252575.638    21252577.343
  22564545.452   -15170581.81449 -11763737.90246  22564544.881    22564546.407
  24409342.552    -7803392.24249  -6060115.65845  24409341.915    24409348.830
 03  4  9  3 31  0.0000000  0  5G20G25G11G14G 1
  23553955.562    -9874244.45749  -7669175.74345  23553954.846    23553958.855
  20719445.960   -24253339.56449 -18873265.63948  20719445.696    20719447.570
  21250298.939   -19842538.49049 -15441966.87947  21250298.524    21250300.249
  22579066.064   -15094275.35649 -11704278.30846  22579065.488    22579067.066
  24394201.739    -7882957.23549  -6122114.21845  24394201.176    24394208.098
 03  4  9  3 31 30.0000000  0  5G20G25G11G14G 1
  23537557.312    -9960417.96649  -7736323.83545  23537556.509    23537560.581
  20716411.113   -24269287.76649 -18885692.77948  20716410.857    20716412.715
  21248128.131   -19853946.14249 -15450855.93947  21248127.747    21248129.434
  22593601.125   -15017893.17149 -11644759.71546  22593600.556    22593602.097
  24379090.866    -7962364.82749  -6183990.12445  24379090.257    24379097.150
 03  4  9  3 32  0.0000000  0  5G20G25G11G14G 1
  23521163.622   -10046567.04349  -7803452.91245  23521162.798    23521166.764
  20713478.354   -24284699.50849 -18897701.90448  20713478.078    20713479.935
  21246063.399   -19864796.29349 -15459310.58947  21246062.997    21246064.681
  22608150.075   -14941438.00049 -11585184.25546  22608149.494    22608151.019
  24364009.676    -8041616.24549  -6245744.32345  24364009.098    24364015.927
 03  4  9  3 32 30.0000000  0  5G20G25G11G14G 1
  23504774.551   -10132691.56649  -7870562.85645  23504773.784    23504777.737
  20710647.423   -24299575.97049 -18909293.93148  20710647.167    20710649.023
  21244104.620   -19875089.64449 -15467331.36447  21244104.213    21244105.942
  22622712.456   -14864912.18949 -11525553.73646  22622711.863    22622713.404
  24348958.170    -8120712.12949  -6307377.35045  24348957.628    24348964.445
 03  4  9  3 33  0.0000000  0  5G20G25G11G14G 1
  23488390.685   -10218789.10049  -7937651.76145  23488389.886    23488393.788
  20707918.791   -24313915.05849 -18920467.21948  20707918.526    20707920.382
  21242252.109   -19884824.44849 -15474916.91347  21242251.695    21242253.441
  22637288.302   -14788315.45149 -11465867.95646  22637287.682    22637289.233
  24333936.526    -8199650.74649  -6368887.81345  24333935.967    24333942.831
 03  4  9  3 33 30.0000000  0  5G20G25G11G14G 1
  23472011.958   -10304859.59249  -8004719.60045  23472011.205    23472014.957
  20705292.184   -24327717.89049 -18931222.65348  20705291.905    20705293.766
  21240505.779   -19894001.38349 -15482067.76147  21240505.384    21240507.105
  22651877.174   -14711650.09149 -11406128.68646  22651876.612    22651878.132
  24318944.651    -8278433.02849  -6430276.45245  24318944.135    24318950.899
 03  4  9  3 34  0.0000000  0  5G20G25G11G14G 1
  23455638.557   -10390902.10449  -8071765.64045  23455637.870    23455641.465
  20702767.649   -24340984.45549 -18941560.21348  20702767.343    20702769.197
  21238865.644   -19902620.28949 -15488783.78147  21238865.240    21238866.946
  22666478.909   -14634917.31349 -11346336.89546  22666478.373    22666479.908
  24303982.598    -8357058.79749  -6491543.14145  24303981.994    24303988.868
 03  4  9  3 34 30.0000000  0  5G20G25G11G14G 1
  23439271.191   -10476913.36049  -8138787.30545  23439270.421    23439273.959
  20700345.486   -24353712.80049 -18951478.38148  20700345.169    20700347.031
  21237332.131   -19910679.01749 -15495063.29547  21237331.721    21237333.445
  22681093.692   -14558116.39749 -11286492.01946  22681093.126    22681094.628
  24289050.684    -8435525.75049  -6552686.07645  24289050.061    24289056.987
 03  4  9  3 35  0.0000000  0  5G20G25G11G14G 1
  23422909.472   -10562894.25249  -8205785.31045  23422908.708    23422912.259
  20698025.412   -24365904.73749 -18960978.56948  20698025.125    20698026.934
  21235904.832   -19918179.49949 -15500907.81247  21235904.439    21235906.145
  22695720.631   -14481250.67749 -11226596.63546  22695720.120    22695721.663
  24274148.639    -8513835.66649  -6613706.64545  24274148.167    24274154.843
 03  4  9  3 35 30.0000000  0  5G20G25G11G14G 1
  23406553.949   -10648842.76949  -8272758.09845  23406553.181    23406556.695
  20695807.590   -24377559.39949 -18970060.10148  20695807.291    20695809.109
  21234584.087   -19925120.06749 -15506316.03247  21234583.674    21234585.336
  22710360.058   -14404320.11549 -11166650.73546  22710359.505    22710361.045
  24259276.827    -8591987.34249  -6674603.91345  24259276.292    24259282.941
 03  4  9  3 36  0.0000000  0  5G20G25G11G14G 1
  23390204.508   -10734759.26449  -8339705.92446  23390203.740    23390207.268
  20693691.736   -24388678.08349 -18978723.98948  20693691.456    20693693.273
  21233369.571   -19931502.28049 -15511289.17247  21233369.155    21233370.831
  22725011.279   -14327327.32849 -11106656.33346  22725010.702    22725012.277
  24244434.758    -8669982.04249  -6735378.86045  24244434.188    24244440.845
 03  4  9  3 36 30.0000000  0  5G20G25G11G14G 1
  23373861.718   -10820641.00549  -8406626.66346  23373860.943    23373864.472
  20691678.167   -24399259.33149 -18986969.09248  20691677.880    20691679.685
  21232261.640   -19937324.41649 -15515825.88447  21232261.231    21232262.928
  22739674.474   -14250271.89649 -11046613.12146  22739673.881    22739675.448
  24229622.898    -8747817.91849  -6796030.04245  24229622.352    24229628.968
 03  4  9  3 37  0.0000000  0  5G20G25G11G14G 1
  23357525.845   -10906486.36449  -8473519.06846  23357525.082    23357528.576
  20689766.953   -24409302.72749 -18994795.09048  20689766.663    20689768.467
  21231260.417   -19942585.84049 -15519925.67947  21231260.015    21231261.690
  22754349.504   -14173154.66149 -10986521.76246  22754348.882    22754350.398
  24214841.563    -8825494.32649  -6856556.97045  24214841.114    24214847.600
 03  4  9  3 37 30.0000000  0  5G20G25G11G14G 1
  23341196.860   -10992295.76349  -8540383.45446  23341196.106    23341199.505
  20687957.717   -24418810.04349 -19002203.37148  20687957.455    20687959.251
  21230365.623   -19947288.01749 -15523589.70247  21230365.204    21230366.890
  22769035.647   -14095978.50849 -10926384.47646  22769034.975    22769036.487
  24200090.178    -8903012.58249  -6916960.66245  24200089.727    24200096.251
 03  4  9  3 38  0.0000000  0  5G20G25G11G14G 1
  23324875.113   -11078066.74349  -8607217.89946  23324874.346    23324877.683
  20686250.772   -24427780.12049 -19009193.01948  20686250.497    20686252.302
  21229577.457   -19951429.84149 -15526817.08647  21229577.040    21229578.696
  22783732.983   -14018743.09449 -10866201.01546  22783732.350    22783733.919
  24185369.147    -8980371.33749  -6977240.07545  24185368.728    24185375.212
 03  4  9  3 38 30.0000000  0  5G20G25G11G14G 1
  23308560.704   -11163799.01649  -8674022.18746  23308559.920    23308563.319
  20684645.907   -24436213.51749 -19015764.47348  20684645.658    20684647.443
  21228895.811   -19955011.72249 -15529608.14847  21228895.412    21228897.060
  22798441.256   -13941450.31249 -10805972.86146  22798440.618    22798442.243
  24170678.428    -9057571.10649  -7037395.60045  24170677.928    24170684.489
 03  4  9  3 39  0.0000000  0  5G20G25G11G14G 1
  23292253.972   -11249490.67749  -8740794.82046  23292253.169    23292256.682
  20683143.296   -24444109.89849 -19021917.47548  20683143.008    20683144.802
  21228320.886   -19958033.04849 -15531962.41647  21228320.480    21228322.136
  22813160.413   -13864100.83449 -10745700.52246  22813159.778    22813161.340
  24156018.122    -9134611.19349  -7097426.69245  24156017.657    24156024.105
 03  4  9  3 39 30.0000000  0  5G20G25G11G14G 1
  23275955.166   -11335140.93549  -8807535.19946  23275954.352    23275957.974
  20681742.661   -24451470.05149 -19027652.64048  20681742.398    20681744.161
  21227852.499   -19960494.25449 -15533880.22547  21227852.094    21227853.731
  22827890.125   -13786696.07249 -10685385.12046  22827889.471    22827890.908
  24141388.157    -9211491.68749  -7157333.44445  24141387.715    24141393.982
 03  4  9  3 40  0.0000000  0  5G20G25G11G14G 1
  23259664.556   -11420748.39149  -8874242.22046  23259663.740    23259667.389
  20680444.140   -24458293.88749 -19032969.89248  20680443.867    20680445.637
  21227490.827   -19962395.07049 -15535361.37247  21227490.424    21227492.016
  22842630.130   -13709236.92449 -10625027.32446  22842629.486    22842630.878
  24126788.628    -9288212.21649  -7217115.52645  24126788.072    24126794.453
 03  4  9  3 40 30.0000000  0  5G20G25G11G14G 1
  23243382.349   -11506311.89849  -8940914.99846  23243381.522    23243385.169
  20679247.685   -24464581.28649 -19037869.14448  20679247.385    20679249.153
  21227235.734   -19963735.53249 -15536405.87547  21227235.311    21227236.935
  22857380.145   -13631724.31749 -10564627.87746  22857379.565    22857380.998
  24112219.503    -9364772.80949  -7276773.01145  24112218.899    24112225.317
 03  4  9  3 41  0.0000000  0  5G20G25G11G14G 1
  23227109.027   -11591828.67649  -9007551.35446  23227108.168    23227111.814
  20678153.525   -24470330.97049 -19042349.39848  20678153.242    20678154.991
  21227087.505   -19964514.19249 -15537012.61447  21227087.113    21227088.744
  22872140.630   -13554157.86849 -10504186.46946  22872139.997    22872141.476
  24097681.260    -9441171.59349  -7336304.40845  24097680.653    24097686.923
 03  4  9  3 41 30.0000000  0  5G20G25G11G14G 1
  23210844.112   -11677301.21949  -9074153.24746  23210843.297    23210846.877
  20677160.945   -24475547.04849 -19046413.85048  20677160.660    20677162.403
  21227045.512   -19964734.90649 -15537184.59447  21227045.093    21227046.723
  22886910.329   -13476542.71049 -10443707.12246  22886909.702    22886911.190
  24083173.004    -9517412.14049  -7395712.48845  24083172.397    24083178.732
 03  4  9  3 42  0.0000000  0  5G20G25G11G14G 1
  23194588.593   -11762724.12549  -9140716.47346  23194587.781    23194591.311
  20676270.565   -24480225.87349 -19050059.67148  20676270.286    20676272.020
  21227110.436   -19964393.63649 -15536918.66247  21227110.048    21227111.659
  22901689.883   -13398875.57149 -10383187.25646  22901689.201    22901690.692
  24068695.683    -9593490.12049  -7454993.91045  24068695.109    24068701.449
 03  4  9  3 42 30.0000000  0  5G20G25G11G14G 1
  23178342.465   -11848098.05749  -9207241.52146  23178341.608    23178345.108
  20675481.949   -24484369.93349 -19053288.78648  20675481.662    20675483.407
  21227281.929   -19963492.41949 -15536216.40647  21227281.539    21227283.164
  22916478.622   -13321159.55849 -10322629.29646  22916477.992    22916479.506
  24054249.039    -9669407.34749  -7514150.07145  24054248.410    24054254.754
 03  4  9  3 43  0.0000000  0  5G20G25G11G14G 1
  23162105.886   -11933421.53249  -9273727.27146  23162105.118    23162108.491
  20674795.180   -24487978.73149 -19056100.81848  20674794.947    20674796.662
  21227559.999   -19962031.12449 -15535077.72147  21227559.606    21227561.212
  22931276.627   -13243394.93649 -10262033.48046  22931276.048    22931277.570
  24039833.010    -9745163.32249  -7573180.59045  24039832.360    24039838.654
 03  4  9  3 43 30.0000000  0  5G20G25G11G14G 1
  23145878.989   -12018694.40449  -9340173.59346  23145878.182    23145881.517
  20674210.108   -24491053.60949 -19058496.81048  20674209.812    20674211.521
  21227944.398   -19960010.93049 -15533503.53847  21227944.010    21227945.620
  22946083.532   -13165584.30649 -10201401.79946  22946082.957    22946084.423
  24025447.705    -9820759.08049  -7632086.24445  24025446.960    24025453.103
 03  4  9  3 44  0.0000000  0  5G20G25G11G14G 1
  23129662.219   -12103913.87849  -9406578.28946  23129661.439    23129664.740
  20673726.701   -24493593.67149 -19060476.05548  20673726.427    20673728.145
  21228435.395   -19957430.87849 -15531493.09447  21228435.000    21228436.572
  22960899.170   -13087727.29749 -10140733.98546  22960898.611    22960900.080
  24011093.015    -9896193.22349  -7690865.97745  24011092.267    24011098.295
 03  4  9  3 44 30.0000000  0  5G20G25G11G14G 1
  23113455.808   -12189078.96449  -9472940.62446  23113454.978    23113458.279
  20673345.012   -24495599.47649 -19062039.00648  20673344.711    20673346.444
  21229032.812   -19954291.24649 -15529046.62047  21229032.417    21229034.020
  22975723.394   -13009825.15649 -10080031.00046  22975722.818    22975724.325
  23996768.933    -9971465.87449  -7749519.87045  23996768.243    23996774.319
 03  4  9  3 45  0.0000000  0  5G20G25G11G14G 1
  23097260.118   -12274187.36049  -9539258.77846  23097259.280    23097262.579
  20673065.045   -24497070.40249 -19063185.16948  20673064.785    20673066.521
  21229736.937   -19950591.18549 -15526163.44747  21229736.529    21229738.109
  22990556.287   -12931877.68249 -10019292.70946  22990555.729    22990557.295
  23982475.851   -10046575.75049  -7808046.93145  23982475.169    23982481.286
 03  4  9  3 45 30.0000000  0  5G20G25G11G14G 1
  23081075.005   -12359239.99049  -9605533.47946  23081074.145    23081077.471
  20672886.346   -24498009.30349 -19063916.75848  20672886.099    20672887.842
  21230547.140   -19946333.50949 -15522845.77047  21230546.738    21230548.292
  23005397.173   -12853888.51749  -9958521.91846  23005396.576    23005398.119
  23968213.278   -10121525.22449  -7866448.98945  23968212.642    23968218.741
 03  4  9  3 46  0.0000000  0  5G20G25G11G14G 1
  23064901.183   -12444233.11349  -9671761.80846  23064900.382    23064903.696
  20672809.299   -24498413.92949 -19064232.02948  20672809.072    20672810.814
  21231463.909   -19941515.77749 -15519091.68147  21231463.504    21231465.094
  23020246.176   -12775855.95049  -9897717.30846  23020245.616    23020247.133
  23953981.927   -10196311.33849  -7924723.76145  23953981.323    23953987.385
 03  4  9  3 46 30.0000000  0  5G20G25G11G14G 1
  23048738.559   -12529168.13249  -9737944.86246  23048737.761    23048741.066
  20672833.359   -24498287.46249 -19064133.46748  20672833.096    20672834.847
  21232486.694   -19936140.98449 -15514903.52647  21232486.286    21232487.885
  23035102.711   -12697783.53749  -9836881.64846  23035102.221    23035103.778
  23939781.075   -10270936.95349  -7982873.46545  23939780.405    23939786.457
 03  4  9  3 47  0.0000000  0  5G20G25G11G14G 1
  23032587.742   -12614041.14049  -9804079.60546  23032586.942    23032590.228
  20672958.798   -24497628.01649 -19063619.59648  20672958.569    20672960.328
  21233615.828   -19930207.24749 -15510279.82847  21233615.434    21233617.042
  23049967.263   -12619670.03849  -9776013.98746  23049966.750    23049968.322
  23925611.152   -10345399.51549  -8040896.11145  23925610.435    23925616.504
 03  4  9  3 47 30.0000000  0  5G20G25G11G14G 1
  23016448.890   -12698850.81849  -9870164.98146  23016448.105    23016451.409
  20673185.653   -24496435.81149 -19062690.58548  20673185.412    20673187.194
  21234851.319   -19923714.70549 -15505220.69647  21234850.909    21234852.521
  23064839.524   -12541516.10949  -9715114.78846  23064838.964    23064840.545
  23911472.348   -10419698.81849  -8098791.54845  23911471.812    23911477.755
 03  4  9  3 48  0.0000000  0  5G20G25G11G14G 1
  23000321.852   -12783598.74849  -9936202.27146  23000321.070    23000324.328
  20673513.143   -24494714.64149 -19061349.39448  20673512.905    20673514.699
  21236192.515   -19916666.58549 -15499728.64747  21236192.110    21236193.721
  23079718.612   -12463325.82549  -9654187.28546  23079718.074    23079719.565
  23897364.183   -10493837.61349  -8156561.89845  23897363.670    23897369.532
 03  4  9  3 48 30.0000000  0  5G20G25G11G14G 1
  22984207.301   -12868281.02449 -10002188.39446  22984206.476    22984209.714
  20673941.800   -24492462.23849 -19059594.25348  20673941.538    20673943.327
  21237639.890   -19909060.70549 -15493801.98547  21237639.468    21237641.049
  23094604.960   -12385097.57049  -9593230.19246  23094604.388    23094605.886
  23883286.984   -10567813.20349  -8214205.09545  23883286.465    23883292.220
 03  4  9  3 49  0.0000000  0  5G20G25G11G14G 1
  22968105.489   -12952896.29649 -10068122.30946  22968104.632    22968107.825
  20674471.351   -24489679.30649 -19057425.71548  20674471.082    20674472.853
  21239193.177   -19900897.90449 -15487441.35247  21239192.783    21239194.369
  23109498.306   -12306832.25949  -9532244.23346  23109497.757    23109499.321
  23869240.890   -10641625.79149  -8271721.25845  23869240.288    23869245.939
 03  4  9  3 49 30.0000000  0  5G20G25G11G14G 1
  22952016.568   -13037443.75449 -10134003.37546  22952015.760    22952018.891
  20675101.666   -24486366.87549 -19054844.58348  20675101.415    20675103.175
  21240852.365   -19892178.83749 -15480647.27247  21240851.974    21240853.560
  23124398.399   -12228531.56349  -9471230.69346  23124397.883    23124399.444
  23855225.653   -10715275.76549  -8329110.71445  23855225.181    23855230.794
 03  4  9  3 50  0.0000000  0  5G20G25G11G14G 1
  22935940.758   -13121922.50449 -10199830.90846  22935939.939    22935943.018
  20675832.565   -24482526.12649 -19051851.77648  20675832.289    20675834.048
  21242617.224   -19882904.46349 -15473420.48247  21242616.822    21242618.424
  23139304.968   -12150196.81949  -9410190.63146  23139304.483    23139306.005
  23841241.329   -10788763.59449  -8386373.82145  23841240.723    23841246.480
 03  4  9  3 50 30.0000000  0  5G20G25G11G14G 1
  22919878.570   -13206329.49749 -10265602.51346  22919877.749    22919880.838
  20676664.118   -24478156.06949 -19048446.52048  20676663.873    20676665.602
  21244487.884   -19873073.97949 -15465760.36347  21244487.478    21244489.047
  23154218.272   -12071827.39349  -9349123.54946  23154217.708    23154219.148
  23827288.125   -10862087.62649  -8443509.30145  23827287.602    23827293.137
 03  4  9  3 51  0.0000000  0  5G20G25G11G14G 1
  22903830.011   -13290665.05649 -10331318.46546  22903829.199    22903832.230
  20677595.974   -24473259.35649 -19044630.88148  20677595.698    20677597.389
  21246463.968   -19862689.50249 -15457668.55847  21246463.559    21246465.188
  23169137.651   -11993425.85049  -9288031.42346  23169137.060    23169138.509
  23813365.758   -10935249.62549  -8500518.50345  23813365.241    23813370.746
 03  4  9  3 51 30.0000000  0  5G20G25G11G14G 1
  22887795.548   -13374926.17549 -10396976.42146  22887794.750    22887797.791
  20678628.241   -24467834.50549 -19040403.70448  20678627.974    20678629.664
  21248545.722   -19851749.87249 -15449144.16447  21248545.318    21248546.929
  23184063.171   -11914991.42949  -9226913.69346  23184062.627    23184064.044
  23799474.503   -11008247.88149  -8557400.10645  23799473.967    23799479.625
 03  4  9  3 52  0.0000000  0  5G20G25G11G14G 1
  22871775.563   -13459111.34349 -10462575.17846  22871774.760    22871777.795
  20679760.881   -24461882.35649 -19035765.64748  20679760.630    20679762.339
  21250732.952   -19840255.74649 -15440187.69247  21250732.544    21250734.187
  23198994.928   -11836524.91749  -9165770.95646  23198994.410    23198995.741
  23785614.410   -11081082.23249  -8614154.00545  23785613.852    23785619.563
 03  4  9  3 52 30.0000000  0  5G20G25G11G14G 1
  22855769.847   -13543221.46749 -10528115.46646  22855769.010    22855772.086
  20680993.247   -24455406.05549 -19030719.16348  20680992.996    20680994.695
  21253025.167   -19828209.90249 -15430801.32047  21253024.787    21253026.424
  23213932.130   -11758029.69649  -9104605.82946  23213931.530    23213932.884
  23771785.120   -11153754.83149  -8670781.87545  23771784.625    23771790.245
 03  4  9  3 53  0.0000000  0  5G20G25G11G14G 1
  22839779.321   -13627251.76649 -10593593.54246  22839778.491    22839781.537
  20682325.925   -24448402.81549 -19025262.07848  20682325.684    20682327.370
  21255422.936   -19815609.73349 -15420983.00747  21255422.537    21255424.144
  23228875.021   -11679503.12149  -9043416.27446  23228874.525    23228875.952
  23757987.418   -11226262.34849  -8727281.09445  23757986.838    23757992.334
 03  4  9  3 53 30.0000000  0  5G20G25G11G14G 1
  22823803.651   -13711204.14749 -10659010.91546  22823802.830    22823805.838
  20683758.106   -24440876.61649 -19019397.48848  20683757.833    20683759.554
  21257925.348   -19802459.22649 -15410735.85447  21257924.965    21257926.590
  23243823.320   -11600949.60749  -8982205.75846  23243822.776    23243824.271
  23744220.288   -11298608.20949  -8783654.36245  23744219.729    23744225.300
 03  4  9  3 54  0.0000000  0  5G20G25G11G14G 1
  22807843.739   -13795073.74849 -10724363.78846  22807842.899    22807845.888
  20685290.220   -24432825.08949 -19013123.55148  20685289.962    20685291.676
  21260533.085   -19788755.65349 -15400057.73947  21260532.699    21260534.270
  23258777.280   -11522366.43849  -8920972.11046  23258776.704    23258778.111
  23730484.588   -11370788.95749  -8839898.96045  23730484.158    23730489.531
 03  4  9  3 54 30.0000000  0  5G20G25G11G14G 1
  22791899.232   -13878862.59449 -10789653.72046  22791898.377    22791901.384
  20686921.510   -24424252.40549 -19006443.51948  20686921.272    20686922.991
  21263245.298   -19774502.91849 -15388951.70547  21263244.912    21263246.485
  23273735.937   -11443757.98849  -8859718.77446  23273735.329    23273736.807
  23716779.750   -11442807.93149  -8896017.51345  23716779.276    23716784.575
 03  4  9  3 55  0.0000000  0  5G20G25G11G14G 1
  22775970.697   -13962567.33949 -10854878.13146  22775969.844    22775972.852
  20688652.206   -24415157.60649 -18999356.64148  20688651.944    20688653.652
  21266062.216   -19759699.88549 -15377416.85947  21266061.822    21266063.388
  23288699.610   -11365123.15849  -8798444.88846  23288699.039    23288700.443
  23703105.962   -11514663.56049  -8952008.76945  23703105.442    23703110.845
 03  4  9  3 55 30.0000000  0  5G20G25G11G14G 1
  22760058.441   -14046186.15849 -10920035.58246  22760057.660    22760060.729
  20690482.152   -24405541.05849 -18991863.21348  20690481.887    20690483.595
  21268983.668   -19744347.45849 -15365453.92647  21268983.279    21268984.840
  23303668.401   -11286462.63749  -8737150.97846  23303667.766    23303669.007
  23689463.367   -11586355.47849  -9007872.47945  23689462.837    23689468.134
 03  4  9  3 56  0.0000000  0  5G20G25G11G14G 1
  22744162.720   -14129718.48249 -10985125.62546  22744161.924    22744165.010
  20692411.038   -24395404.42949 -18983964.52348  20692410.792    20692412.498
  21272009.432   -19728447.04949 -15353063.99847  21272009.025    21272010.565
  23318641.495   -11207778.12949  -8675838.36046  23318640.891    23318642.167
  23675851.718   -11657884.59949  -9063609.33745  23675851.160    23675856.357
 03  4  9  3 56 30.0000000  0  5G20G25G11G14G 1
  22728284.119   -14213161.05149 -11050145.73846  22728283.317    22728286.430
  20694439.083   -24384746.93949 -18975659.97148  20694438.828    20694440.539
  21275139.650   -19711997.57649 -15340246.22147  21275139.238    21275140.798
  23333619.301   -11129068.69749  -8614506.34246  23333618.702    23333620.096
  23662271.496   -11729249.09049  -9119217.91645  23662270.871    23662276.093
 03  4  9  3 57  0.0000000  0  5G20G25G11G14G 1
  22712422.548   -14296514.12349 -11115096.11946  22712421.758    22712424.847
  20696565.718   -24373571.32249 -18966951.68248  20696565.466    20696567.170
  21278373.882   -19695001.57249 -15327002.58147  21278373.459    21278375.009
  23348601.545   -11050336.88549  -8553156.88846  23348600.960    23348602.255
  23648722.227   -11800450.72949  -9174699.61545  23648721.581    23648726.860
 03  4  9  3 57 30.0000000  0  5G20G25G11G14G 1
  22696578.614   -14379774.08149 -11179973.94346  22696577.817    22696580.914
  20698791.189   -24361876.41749 -18957838.75448  20698790.915    20698792.584
  21281712.306   -19677458.04749 -15313332.29847  21281711.917    21281713.448
  23363588.311   -10971581.36649  -8491788.95446  23363587.626    23363588.949
  23635204.270   -11871487.31249  -9230052.69545  23635203.659    23635208.870
 03  4  9  3 58  0.0000000  0  5G20G25G11G14G 1
  22680752.240   -14462942.36749 -11244780.34046  22680751.403    22680754.440
  20701114.759   -24349666.04749 -18948324.16548  20701114.467    20701116.124
  21285154.196   -19659370.79049 -15299238.32647  21285153.785    21285155.321
  23378578.633   -10892805.94349  -8430405.50746  23378578.056    23378579.402
  23621717.166   -11942361.97049  -9285279.58245  23621716.556    23621721.730
 03  4  9  3 58 30.0000000  0  5G20G25G11G14G 1
  22664943.971   -14546015.49249 -11309512.58246  22664943.116    22664946.041
  20703536.670   -24336938.79349 -18938406.80848  20703536.380    20703538.033
  21288699.830   -19640738.20349 -15284719.42447  21288699.450    21288700.977
  23393573.145   -10814009.44649  -8369005.62746  23393572.547    23393573.907
  23608261.358   -12013072.67149  -9340378.71145  23608260.781    23608265.720
 03  4  9  3 59  0.0000000  0  5G20G25G11G14G 1
  22649153.928   -14628992.30949 -11374169.77846  22649153.138    22649156.043
  20706056.626   -24323696.34249 -18928088.00448  20706056.355    20706057.959
  21292349.018   -19621561.96049 -15269776.89747  21292348.604    21292350.098
  23408571.276   -10735193.25749  -8307590.40646  23408570.714    23408572.108
  23594836.591   -12083619.90349  -9395350.47045  23594835.955    23594840.984
 03  4  9  3 59 30.0000000  0  5G20G25G11G14G 1
  22633382.721   -14711870.20149 -11438749.89246  22633381.916    22633384.841
  20708674.571   -24309938.88849 -18917367.89648  20708674.283    20708675.883
  21296101.472   -19601842.38349 -15254410.98747  21296101.076    21296102.606
  23423573.318   -10656356.90349  -8246159.49346  23423572.708    23423574.199
  23581443.009   -12154002.64849  -9450194.07745  23581442.427    23581447.483
 03  4  9  4  0  0.0000000  0  5G20G25G11G14G 1
  22617630.452   -14794648.45349 -11503252.35446  22617629.581    22617632.588
  20711390.206   -24295667.94649 -18906247.66548  20711389.963    20711391.555
  21299957.153   -19581580.69749 -15238622.65647  21299956.747    21299958.295
  23438578.905   -10577501.91149  -8184714.03646  23438578.310    23438579.831
  23568080.682   -12224221.70049  -9504910.11745  23568080.148    23568085.135
 03  4  9  4  0 30.0000000  0  5G20G25G11G14G 1
  22601897.093   -14877327.29449 -11567677.36246  22601896.253    22601899.245
  20714203.069   -24280886.36349 -18894729.53548  20714202.786    20714204.390
  21303915.422   -19560779.71049 -15222414.09347  21303915.007    21303916.587
  23453587.586   -10498630.88649  -8123256.09246  23453586.959    23453588.531
  23554749.172   -12294279.07349  -9559500.17545  23554748.587    23554753.579
 03  4  9  4  1  0.0000000  0  5G20G25G11G14G 1
  22586183.716   -14959901.65549 -11632020.95746  22586182.891    22586185.791
  20717113.535   -24265591.58649 -18882811.51648  20717113.281    20717114.867
  21307976.808   -19539436.86649 -15205783.30447  21307976.405    21307977.972
  23468599.757   -10419741.18549  -8061783.60446  23468599.177    23468600.777
  23541449.119   -12364171.16549  -9613961.44645  23541448.474    23541453.419
 03  4  9  4  1 30.0000000  0  5G20G25G11G14G 1
  22570489.952   -15042372.93149 -11696284.22246  22570489.095    22570491.967
  20720120.862   -24249787.89149 -18870496.93348  20720120.579    20720122.217
  21312140.398   -19517557.06349 -15188734.09647  21312139.963    21312141.573
  23483614.924   -10340836.55949  -8000299.49346  23483614.272    23483615.772
  23528179.807   -12433901.22849  -9668296.44945  23528179.131    23528184.069
 03  4  9  4  2  0.0000000  0  5G20G25G11G14G 1
  22554816.332   -15124737.92449 -11760464.67046  22554815.496    22554818.350
  20723225.106   -24233474.76949 -18857785.40048  20723224.850    20723226.479
  21316406.563   -19495138.31349 -15171264.94047  21316406.159    21316407.712
  23498633.017   -10261915.85349  -7938802.85546  23498632.416    23498633.962
  23514941.686   -12503467.42549  -9722503.77446  23514941.045    23514945.988
 03  4  9  4  2 30.0000000  0  5G20G25G11G14G 1
  22539163.355   -15206994.53949 -11824560.67646  22539162.543    22539165.377
  20726426.225   -24216652.80049 -18844677.36348  20726425.974    20726427.572
  21320774.981   -19472182.00849 -15153376.91147  21320774.585    21320776.176
  23513654.175   -10182979.36149  -7877293.91146  23513653.566    23513655.075
  23501734.842   -12572869.67449  -9776583.34946  23501734.229    23501739.177
 03  4  9  4  3  0.0000000  0  5G20G25G11G14G 1
  22523531.047   -15289142.65849 -11888572.13946  22523530.235    22523533.083
  20729723.623   -24199324.59149 -18831174.85348  20729723.371    20729725.020
  21325245.251   -19448690.54149 -15135071.87447  21325244.870    21325246.425
  23528677.749   -10104029.49249  -7815774.52546  23528677.186    23528678.683
  23488558.816   -12642109.38649  -9830536.27546  23488558.199    23488563.136
 03  4  9  4  3 30.0000000  0  5G20G25G11G14G 1
  22507919.767   -15371179.86249 -11952497.17146  22507918.962    22507921.875
  20733117.369   -24181490.10249 -18817277.84148  20733117.152    20733118.794
  21329817.324   -19424664.16749 -15116350.02347  21329816.935    21329818.494
  23543703.990   -10025066.35149  -7754244.81446  23543703.383    23543704.798
  23475413.918   -12711185.78249  -9884361.94146  23475413.240    23475418.261
 03  4  9  4  4  0.0000000  0  5G20G25G11G14G 1
  22492330.137   -15453103.71849 -12016333.88146  22492329.344    22492332.213
  20736607.447   -24163149.61549 -18802986.54148  20736607.206    20736608.854
  21334491.072   -19400103.47049 -15097211.81747  21334490.680    21334492.278
  23558732.966    -9946089.52149  -7692704.43345  23558732.240    23558733.627
  23462300.244   -12780098.25649  -9938059.86746  23462299.638    23462304.626
 03  4  9  4  4 30.0000000  0  5G20G25G11G14G 1
  22476762.106   -15534914.04249 -12080082.14046  22476761.342    22476764.133
  20740193.231   -24144306.29449 -18788303.42648  20740192.973    20740194.626
  21339266.039   -19375010.80049 -15077659.09047  21339265.654    21339267.222
  23573763.990    -9867101.05249  -7631154.98945  23573763.293    23573764.593
  23449217.557   -12848848.27749  -9991631.20946  23449216.955    23449221.861
 03  4  9  4  5  0.0000000  0  5G20G25G11G14G 1
  22461216.260   -15616608.29149 -12143739.94146  22461215.454    22461218.177
  20743874.622   -24124960.23549 -18773228.56448  20743874.415    20743876.048
  21344142.220   -19349386.45649 -15057692.07247  21344141.808    21344143.360
  23588797.120    -9788100.75249  -7569596.28945  23588796.457    23588797.840
  23436165.811   -12917435.16349 -10045075.43146  23436165.240    23436170.070
 03  4  9  4  5 30.0000000  0  5G20G25G11G14G 1
  22445692.906   -15698183.89149 -12207305.29346  22445692.101    22445694.769
  20747651.680   -24105111.71849 -18757762.17648  20747651.440    20747653.080
  21349119.463   -19323230.73349 -15037310.99747  21349119.063    21349120.634
  23603832.557    -9709088.57449  -7508028.36545  23603831.927    23603833.440
  23423145.253   -12985858.10949 -10098391.91246  23423144.685    23423149.475
 03  4  9  4  6  0.0000000  0  5G20G25G11G14G 1
  22430192.284   -15779639.98349 -12270777.52646  22430191.472    22430194.050
  20751523.978   -24084762.69749 -18741905.79248  20751523.739    20751525.367
  21354197.474   -19296545.68749 -15016517.46047  21354197.087    21354198.650
  23618870.200    -9630065.97849  -7446452.32945  23618869.537    23618870.928
  23410155.629   -13054118.08749 -10151581.41546  23410155.077    23410159.930
 03  4  9  4  6 30.0000000  0  5G20G25G11G14G 1
  22414714.719   -15860975.04949 -12334155.45546  22414713.896    22414716.504
  20755491.239   -24063914.66849 -18725660.56748  20755490.993    20755492.605
  21359375.875   -19269332.74749 -14995312.57747  21359375.492    21359377.116
  23633909.528    -9551033.69749  -7384868.73645  23633908.856    23633910.164
  23397197.152   -13122215.16749 -10204643.98646  23397196.618    23397201.359
 03  4  9  4  7  0.0000000  0  5G20G25G11G14G 1
  22399260.347   -15942188.04949 -12397438.26146  22399259.515    22399262.172
  20759553.108   -24042569.40749 -18709027.88448  20759552.870    20759554.480
  21364654.489   -19241593.73949 -14973697.77147  21364654.088    21364655.689
  23648950.531    -9471993.12649  -7323278.68945  23648949.822    23648951.123
  23384269.543   -13190150.15349 -10257580.24346  23384268.968    23384273.589
 03  4  9  4  7 30.0000000  0  5G20G25G11G14G 1
  22383829.694   -16023276.02449 -12460623.63746  22383828.908    22383831.619
  20763709.596   -24020726.77349 -18692007.64048  20763709.373    20763710.951
  21370033.113   -19213328.68549 -14951673.05947  21370032.734    21370034.349
  23663993.046    -9392943.52349  -7261681.57945  23663992.399    23663993.686
  23371372.939   -13257921.95449 -10310389.35146  23371372.366    23371376.968
 03  4  9  4  8  0.0000000  0  5G20G25G11G14G 1
  22368423.341   -16104236.89449 -12523709.97446  22368422.533    22368425.269
  20767960.552   -23998387.94549 -18674600.75148  20767960.280    20767961.861
  21375511.671   -19184538.61549 -14929239.24047  21375511.291    21375512.919
  23679037.471    -9313885.26049  -7200077.75045  23679036.785    23679037.939
  23358507.410   -13325530.05149 -10363070.89846  23358506.853    23358511.499
 03  4  9  4  8 30.0000000  0  5G20G25G11G14G 1
  22353041.031   -16185071.32449 -12586697.79746  22353040.202    22353042.908
  20772305.222   -23975556.53949 -18656810.03948  20772304.972    20772306.561
  21381089.472   -19155227.21049 -14906399.18847  21381089.090    21381090.711
  23694082.875    -9234821.21849  -7138469.41445  23694082.118    23694083.340
  23345672.613   -13392977.08549 -10415626.94446  23345672.067    23345676.741
 03  4  9  4  9  0.0000000  0  5G20G25G11G14G 1
  22337683.542   -16265775.42649 -12649584.05946  22337682.694    22337685.383
  20776743.868   -23952231.36849 -18638634.57048  20776743.600    20776745.199
  21386766.578   -19125393.64649 -14883152.25547  21386766.180    21386767.833
  23709129.758    -9155749.69049  -7076855.23845  23709128.961    23709130.143
  23332868.842   -13460260.92549 -10468055.83746  23332868.312    23332872.938
 03  4  9  4  9 30.0000000  0  5G20G25G11G14G 1
  22322351.126   -16346347.31449 -12712367.29546  22322350.289    22322353.009
  20781276.160   -23928413.90749 -18620075.49948  20781275.902    20781277.481
  21392542.931   -19095038.77049 -14859499.10347  21392542.541    21392544.176
  23724177.794    -9076671.36849  -7015235.76745  23724177.034    23724178.317
  23320096.148   -13527381.61149 -10520357.59646  23320095.603    23320100.247
 03  4  9  4 10  0.0000000  0  5G20G25G11G14G 1
  22307043.922   -16426786.54449 -12775047.16746  22307043.086    22307045.849
  20785901.656   -23904106.63949 -18601134.76748  20785901.400    20785902.954
  21398417.951   -19064165.38149 -14835441.92747  21398417.544    21398419.169
  23739226.735    -8997588.13049  -6953612.46045  23739226.016    23739227.311
  23307354.269   -13594340.57849 -10572533.33646  23307353.715    23307358.232
 03  4  9  4 10 30.0000000  0  5G20G25G11G14G 1
  22291762.654   -16507090.04249 -12837621.27446  22291761.844    22291764.493
  20790620.353   -23879309.58349 -18581812.37848  20790620.093    20790621.680
  21404391.544   -19032773.93949 -14810981.06647  21404391.148    21404392.777
  23754276.986    -8918499.27949  -6891984.79245  23754276.267    23754277.518
  23294643.395   -13661136.52449 -10624582.04846  23294642.854    23294647.290
